<?xml version="1.0" encoding="UTF-8" standalone="no" ?>
<gpx xmlns="http://www.topografix.com/GPX/1/1" xmlns:xsi="http://www.w3.org/2001/XMLSchema-instance" xsi:schemaLocation="http://www.topografix.com/GPX/1/1 http://www.topografix.com/GPX/1/1/gpx.xsd" version="1.1" creator="VisuGPX - https://www.visugpx.com">
  <metadata>
    <name>22GravelIc 82k</name>
    <desc><![CDATA[La trace du 82km de la gravelic 2023]]></desc>
  </metadata>
  <trk>
    <name><![CDATA[Gravel’ic 82]]></name>
    <trkseg>
      <trkpt lat="48.56372" lon="-2.81562">
        <ele>106.818508</ele>
        <time>2023-03-24T13:59:48.274Z</time>
      </trkpt>
      <trkpt lat="48.56375" lon="-2.81546">
        <ele>106.818508</ele>
        <time>2023-03-24T13:59:50.864Z</time>
      </trkpt>
      <trkpt lat="48.56376" lon="-2.81513">
        <ele>106.818508</ele>
        <time>2023-03-24T13:59:56.172Z</time>
      </trkpt>
      <trkpt lat="48.56372" lon="-2.81493">
        <ele>106.818508</ele>
        <time>2023-03-24T13:59:59.538Z</time>
      </trkpt>
      <trkpt lat="48.56368" lon="-2.81481">
        <ele>106.818508</ele>
        <time>2023-03-24T14:00:01.911Z</time>
      </trkpt>
      <trkpt lat="48.56357" lon="-2.81454">
        <ele>106.818508</ele>
        <time>2023-03-24T14:00:07.828Z</time>
      </trkpt>
      <trkpt lat="48.56347" lon="-2.81438">
        <ele>106.849476</ele>
        <time>2023-03-24T14:00:12.177Z</time>
      </trkpt>
      <trkpt lat="48.5632" lon="-2.81407">
        <ele>107.661838</ele>
        <time>2023-03-24T14:00:22.356Z</time>
      </trkpt>
      <trkpt lat="48.56245" lon="-2.81337">
        <ele>109.767948</ele>
        <time>2023-03-24T14:00:53.192Z</time>
      </trkpt>
      <trkpt lat="48.56222" lon="-2.81314">
        <ele>110.432575</ele>
        <time>2023-03-24T14:01:03.911Z</time>
      </trkpt>
      <trkpt lat="48.56213" lon="-2.813">
        <ele>110.741791</ele>
        <time>2023-03-24T14:01:08.774Z</time>
      </trkpt>
      <trkpt lat="48.562" lon="-2.81273">
        <ele>111.23018</ele>
        <time>2023-03-24T14:01:16.761Z</time>
      </trkpt>
      <trkpt lat="48.56189" lon="-2.81238">
        <ele>111.688356</ele>
        <time>2023-03-24T14:01:26.120Z</time>
      </trkpt>
      <trkpt lat="48.56184" lon="-2.81225">
        <ele>111.870231</ele>
        <time>2023-03-24T14:01:29.812Z</time>
      </trkpt>
      <trkpt lat="48.56182" lon="-2.8122">
        <ele>111.938681</ele>
        <time>2023-03-24T14:01:31.176Z</time>
      </trkpt>
      <trkpt lat="48.5617" lon="-2.81201">
        <ele>112.242541</ele>
        <time>2023-03-24T14:01:37.173Z</time>
      </trkpt>
      <trkpt lat="48.56152" lon="-2.81184">
        <ele>112.617319</ele>
        <time>2023-03-24T14:01:44.157Z</time>
      </trkpt>
      <trkpt lat="48.56146" lon="-2.81193">
        <ele>112.765383</ele>
        <time>2023-03-24T14:01:47.007Z</time>
      </trkpt>
      <trkpt lat="48.56142" lon="-2.81194">
        <ele>112.839593</ele>
        <time>2023-03-24T14:01:48.333Z</time>
      </trkpt>
      <trkpt lat="48.56134" lon="-2.8119">
        <ele>112.987798</ele>
        <time>2023-03-24T14:01:50.794Z</time>
      </trkpt>
      <trkpt lat="48.56129" lon="-2.8118">
        <ele>113.134446</ele>
        <time>2023-03-24T14:01:53.472Z</time>
      </trkpt>
      <trkpt lat="48.56129" lon="-2.81169">
        <ele>113.26703</ele>
        <time>2023-03-24T14:01:55.742Z</time>
      </trkpt>
      <trkpt lat="48.56134" lon="-2.8116">
        <ele>113.399419</ele>
        <time>2023-03-24T14:01:57.926Z</time>
      </trkpt>
      <trkpt lat="48.5614" lon="-2.81156">
        <ele>113.521266</ele>
        <time>2023-03-24T14:01:59.609Z</time>
      </trkpt>
      <trkpt lat="48.56147" lon="-2.81159">
        <ele>113.644966</ele>
        <time>2023-03-24T14:02:01.175Z</time>
      </trkpt>
      <trkpt lat="48.56155" lon="-2.81132">
        <ele>113.982856</ele>
        <time>2023-03-24T14:02:06.358Z</time>
      </trkpt>
      <trkpt lat="48.56162" lon="-2.8111">
        <ele>114.269643</ele>
        <time>2023-03-24T14:02:10.164Z</time>
      </trkpt>
      <trkpt lat="48.56153" lon="-2.81097">
        <ele>114.319576</ele>
        <time>2023-03-24T14:02:13.290Z</time>
      </trkpt>
      <trkpt lat="48.56148" lon="-2.8108">
        <ele>114.320952</ele>
        <time>2023-03-24T14:02:16.490Z</time>
      </trkpt>
      <trkpt lat="48.5615" lon="-2.8106">
        <ele>114.322418</ele>
        <time>2023-03-24T14:02:19.215Z</time>
      </trkpt>
      <trkpt lat="48.56157" lon="-2.81043">
        <ele>114.323882</ele>
        <time>2023-03-24T14:02:22.292Z</time>
      </trkpt>
      <trkpt lat="48.56161" lon="-2.81039">
        <ele>114.324436</ele>
        <time>2023-03-24T14:02:23.520Z</time>
      </trkpt>
      <trkpt lat="48.56175" lon="-2.80989">
        <ele>114.328476</ele>
        <time>2023-03-24T14:02:31.320Z</time>
      </trkpt>
      <trkpt lat="48.56186" lon="-2.80956">
        <ele>114.331177</ele>
        <time>2023-03-24T14:02:36.354Z</time>
      </trkpt>
      <trkpt lat="48.56211" lon="-2.80918">
        <ele>114.335146</ele>
        <time>2023-03-24T14:02:44.206Z</time>
      </trkpt>
      <trkpt lat="48.56219" lon="-2.80893">
        <ele>114.337216</ele>
        <time>2023-03-24T14:02:48.668Z</time>
      </trkpt>
      <trkpt lat="48.56224" lon="-2.80869">
        <ele>114.325337</ele>
        <time>2023-03-24T14:02:52.064Z</time>
      </trkpt>
      <trkpt lat="48.56246" lon="-2.80728">
        <ele>113.956346</ele>
        <time>2023-03-24T14:03:13.157Z</time>
      </trkpt>
      <trkpt lat="48.56257" lon="-2.80665">
        <ele>113.790914</ele>
        <time>2023-03-24T14:03:22.415Z</time>
      </trkpt>
      <trkpt lat="48.5628" lon="-2.80525">
        <ele>112.78678</ele>
        <time>2023-03-24T14:03:42.164Z</time>
      </trkpt>
      <trkpt lat="48.56296" lon="-2.80456">
        <ele>112.079697</ele>
        <time>2023-03-24T14:03:51.712Z</time>
      </trkpt>
      <trkpt lat="48.56311" lon="-2.80415">
        <ele>111.619956</ele>
        <time>2023-03-24T14:03:57.742Z</time>
      </trkpt>
      <trkpt lat="48.56327" lon="-2.80385">
        <ele>111.24558</ele>
        <time>2023-03-24T14:04:02.678Z</time>
      </trkpt>
      <trkpt lat="48.56351" lon="-2.80349">
        <ele>110.750429</ele>
        <time>2023-03-24T14:04:09.192Z</time>
      </trkpt>
      <trkpt lat="48.56404" lon="-2.80281">
        <ele>109.712864</ele>
        <time>2023-03-24T14:04:22.902Z</time>
      </trkpt>
      <trkpt lat="48.56422" lon="-2.80254">
        <ele>109.343694</ele>
        <time>2023-03-24T14:04:27.805Z</time>
      </trkpt>
      <trkpt lat="48.56443" lon="-2.80279">
        <ele>108.950799</ele>
        <time>2023-03-24T14:04:33.237Z</time>
      </trkpt>
      <trkpt lat="48.56451" lon="-2.80295">
        <ele>108.750628</ele>
        <time>2023-03-24T14:04:36.004Z</time>
      </trkpt>
      <trkpt lat="48.56475" lon="-2.80391">
        <ele>108.133051</ele>
        <time>2023-03-24T14:04:49.977Z</time>
      </trkpt>
      <trkpt lat="48.56483" lon="-2.80469">
        <ele>107.866847</ele>
        <time>2023-03-24T14:05:01.216Z</time>
      </trkpt>
      <trkpt lat="48.56486" lon="-2.80526">
        <ele>107.674731</ele>
        <time>2023-03-24T14:05:09.779Z</time>
      </trkpt>
      <trkpt lat="48.56486" lon="-2.80581">
        <ele>107.489306</ele>
        <time>2023-03-24T14:05:18.197Z</time>
      </trkpt>
      <trkpt lat="48.5648" lon="-2.80642">
        <ele>107.257235</ele>
        <time>2023-03-24T14:05:27.566Z</time>
      </trkpt>
      <trkpt lat="48.56479" lon="-2.80694">
        <ele>107.047606</ele>
        <time>2023-03-24T14:05:35.434Z</time>
      </trkpt>
      <trkpt lat="48.56489" lon="-2.80744">
        <ele>106.84112</ele>
        <time>2023-03-24T14:05:43.039Z</time>
      </trkpt>
      <trkpt lat="48.56505" lon="-2.80793">
        <ele>106.620994</ele>
        <time>2023-03-24T14:05:50.978Z</time>
      </trkpt>
      <trkpt lat="48.5655" lon="-2.80844">
        <ele>106.131917</ele>
        <time>2023-03-24T14:06:02.751Z</time>
      </trkpt>
      <trkpt lat="48.56636" lon="-2.80958">
        <ele>103.534767</ele>
        <time>2023-03-24T14:06:24.344Z</time>
      </trkpt>
      <trkpt lat="48.5666" lon="-2.81006">
        <ele>102.635659</ele>
        <time>2023-03-24T14:06:31.609Z</time>
      </trkpt>
      <trkpt lat="48.5667" lon="-2.81024">
        <ele>102.278865</ele>
        <time>2023-03-24T14:06:34.337Z</time>
      </trkpt>
      <trkpt lat="48.56689" lon="-2.81007">
        <ele>101.639667</ele>
        <time>2023-03-24T14:07:01.620Z</time>
      </trkpt>
      <trkpt lat="48.56699" lon="-2.81006">
        <ele>101.338811</ele>
        <time>2023-03-24T14:07:04.573Z</time>
      </trkpt>
      <trkpt lat="48.56725" lon="-2.80987">
        <ele>100.507841</ele>
        <time>2023-03-24T14:07:13.570Z</time>
      </trkpt>
      <trkpt lat="48.56752" lon="-2.80977">
        <ele>99.684648</ele>
        <time>2023-03-24T14:07:22.261Z</time>
      </trkpt>
      <trkpt lat="48.56776" lon="-2.80976">
        <ele>98.977919</ele>
        <time>2023-03-24T14:07:29.576Z</time>
      </trkpt>
      <trkpt lat="48.56811" lon="-2.80984">
        <ele>97.924764</ele>
        <time>2023-03-24T14:07:40.758Z</time>
      </trkpt>
      <trkpt lat="48.56816" lon="-2.8098">
        <ele>97.782052</ele>
        <time>2023-03-24T14:07:42.317Z</time>
      </trkpt>
      <trkpt lat="48.56849" lon="-2.80975">
        <ele>96.777071</ele>
        <time>2023-03-24T14:07:52.830Z</time>
      </trkpt>
      <trkpt lat="48.56897" lon="-2.80953">
        <ele>95.096176</ele>
        <time>2023-03-24T14:08:08.447Z</time>
      </trkpt>
      <trkpt lat="48.56922" lon="-2.80931">
        <ele>94.156725</ele>
        <time>2023-03-24T14:08:17.107Z</time>
      </trkpt>
      <trkpt lat="48.56944" lon="-2.80924">
        <ele>93.388438</ele>
        <time>2023-03-24T14:08:24.455Z</time>
      </trkpt>
      <trkpt lat="48.56997" lon="-2.80897">
        <ele>91.549734</ele>
        <time>2023-03-24T14:08:41.042Z</time>
      </trkpt>
      <trkpt lat="48.56997" lon="-2.80897">
        <ele>91.549734</ele>
        <time>2023-03-24T14:08:41.044Z</time>
      </trkpt>
      <trkpt lat="48.57012" lon="-2.80887">
        <ele>90.985947</ele>
        <time>2023-03-24T14:08:46.403Z</time>
      </trkpt>
      <trkpt lat="48.57019" lon="-2.80877">
        <ele>90.633708</ele>
        <time>2023-03-24T14:08:48.980Z</time>
      </trkpt>
      <trkpt lat="48.57024" lon="-2.80867">
        <ele>90.313745</ele>
        <time>2023-03-24T14:08:51.251Z</time>
      </trkpt>
      <trkpt lat="48.5706" lon="-2.80835">
        <ele>88.682442</ele>
        <time>2023-03-24T14:09:03.728Z</time>
      </trkpt>
      <trkpt lat="48.57082" lon="-2.80785">
        <ele>87.112015</ele>
        <time>2023-03-24T14:09:15.776Z</time>
      </trkpt>
      <trkpt lat="48.57096" lon="-2.80767">
        <ele>86.406435</ele>
        <time>2023-03-24T14:09:21.101Z</time>
      </trkpt>
      <trkpt lat="48.57102" lon="-2.80762">
        <ele>86.135563</ele>
        <time>2023-03-24T14:09:23.046Z</time>
      </trkpt>
      <trkpt lat="48.57129" lon="-2.80717">
        <ele>84.571411</ele>
        <time>2023-03-24T14:09:34.881Z</time>
      </trkpt>
      <trkpt lat="48.57139" lon="-2.80706">
        <ele>84.102311</ele>
        <time>2023-03-24T14:09:37.085Z</time>
      </trkpt>
      <trkpt lat="48.57142" lon="-2.80703">
        <ele>83.938918</ele>
        <time>2023-03-24T14:09:37.940Z</time>
      </trkpt>
      <trkpt lat="48.57152" lon="-2.8069">
        <ele>83.646275</ele>
        <time>2023-03-24T14:09:41.064Z</time>
      </trkpt>
      <trkpt lat="48.57167" lon="-2.80655">
        <ele>83.018246</ele>
        <time>2023-03-24T14:09:47.569Z</time>
      </trkpt>
      <trkpt lat="48.57176" lon="-2.80642">
        <ele>82.716832</ele>
        <time>2023-03-24T14:09:50.723Z</time>
      </trkpt>
      <trkpt lat="48.57184" lon="-2.80637">
        <ele>82.531516</ele>
        <time>2023-03-24T14:09:52.595Z</time>
      </trkpt>
      <trkpt lat="48.57209" lon="-2.80591">
        <ele>81.617784</ele>
        <time>2023-03-24T14:10:20.156Z</time>
      </trkpt>
      <trkpt lat="48.57222" lon="-2.80582">
        <ele>81.283593</ele>
        <time>2023-03-24T14:10:30.245Z</time>
      </trkpt>
      <trkpt lat="48.57237" lon="-2.80585">
        <ele>80.92666</ele>
        <time>2023-03-24T14:10:41.023Z</time>
      </trkpt>
      <trkpt lat="48.57244" lon="-2.80581">
        <ele>80.755558</ele>
        <time>2023-03-24T14:10:46.183Z</time>
      </trkpt>
      <trkpt lat="48.57258" lon="-2.80567">
        <ele>80.376826</ele>
        <time>2023-03-24T14:10:57.631Z</time>
      </trkpt>
      <trkpt lat="48.57262" lon="-2.80559">
        <ele>80.221388</ele>
        <time>2023-03-24T14:11:02.326Z</time>
      </trkpt>
      <trkpt lat="48.57273" lon="-2.80527">
        <ele>79.782675</ele>
        <time>2023-03-24T14:11:18.835Z</time>
      </trkpt>
      <trkpt lat="48.57279" lon="-2.80519">
        <ele>79.739959</ele>
        <time>2023-03-24T14:11:24.616Z</time>
      </trkpt>
      <trkpt lat="48.57288" lon="-2.80517">
        <ele>79.693821</ele>
        <time>2023-03-24T14:11:30.825Z</time>
      </trkpt>
      <trkpt lat="48.573" lon="-2.80524">
        <ele>79.62899</ele>
        <time>2023-03-24T14:11:39.610Z</time>
      </trkpt>
      <trkpt lat="48.57309" lon="-2.80534">
        <ele>79.569891</ele>
        <time>2023-03-24T14:11:47.622Z</time>
      </trkpt>
      <trkpt lat="48.57332" lon="-2.80519">
        <ele>79.444402</ele>
        <time>2023-03-24T14:11:54.415Z</time>
      </trkpt>
      <trkpt lat="48.57395" lon="-2.80517">
        <ele>79.117235</ele>
        <time>2023-03-24T14:12:11.975Z</time>
      </trkpt>
      <trkpt lat="48.57428" lon="-2.80487">
        <ele>78.920043</ele>
        <time>2023-03-24T14:12:22.909Z</time>
      </trkpt>
      <trkpt lat="48.57397" lon="-2.8056">
        <ele>79.143738</ele>
        <time>2023-03-24T14:12:36.885Z</time>
      </trkpt>
      <trkpt lat="48.5739" lon="-2.80582">
        <ele>79.222865</ele>
        <time>2023-03-24T14:12:41.367Z</time>
      </trkpt>
      <trkpt lat="48.57376" lon="-2.80655">
        <ele>79.470599</ele>
        <time>2023-03-24T14:12:54.192Z</time>
      </trkpt>
      <trkpt lat="48.57445" lon="-2.80677">
        <ele>79.785425</ele>
        <time>2023-03-24T14:13:12.629Z</time>
      </trkpt>
      <trkpt lat="48.5747" lon="-2.80677">
        <ele>79.807695</ele>
        <time>2023-03-24T14:13:19.539Z</time>
      </trkpt>
      <trkpt lat="48.57581" lon="-2.80651">
        <ele>79.909629</ele>
        <time>2023-03-24T14:13:46.741Z</time>
      </trkpt>
      <trkpt lat="48.57644" lon="-2.80617">
        <ele>79.515078</ele>
        <time>2023-03-24T14:14:01.386Z</time>
      </trkpt>
      <trkpt lat="48.57642" lon="-2.80614">
        <ele>79.475458</ele>
        <time>2023-03-24T14:14:02.179Z</time>
      </trkpt>
      <trkpt lat="48.57642" lon="-2.80607">
        <ele>79.415832</ele>
        <time>2023-03-24T14:14:03.863Z</time>
      </trkpt>
      <trkpt lat="48.57676" lon="-2.80475">
        <ele>78.215544</ele>
        <time>2023-03-24T14:14:35.165Z</time>
      </trkpt>
      <trkpt lat="48.57669" lon="-2.80461">
        <ele>78.063403</ele>
        <time>2023-03-24T14:14:38.788Z</time>
      </trkpt>
      <trkpt lat="48.57649" lon="-2.80447">
        <ele>77.782774</ele>
        <time>2023-03-24T14:14:46.429Z</time>
      </trkpt>
      <trkpt lat="48.57623" lon="-2.80418">
        <ele>77.394754</ele>
        <time>2023-03-24T14:14:57.042Z</time>
      </trkpt>
      <trkpt lat="48.5761" lon="-2.804">
        <ele>77.190637</ele>
        <time>2023-03-24T14:15:03.129Z</time>
      </trkpt>
      <trkpt lat="48.57638" lon="-2.80411">
        <ele>76.856825</ele>
        <time>2023-03-24T14:15:13.099Z</time>
      </trkpt>
      <trkpt lat="48.57671" lon="-2.80412">
        <ele>76.474419</ele>
        <time>2023-03-24T14:15:24.357Z</time>
      </trkpt>
      <trkpt lat="48.57745" lon="-2.80399">
        <ele>75.608467</ele>
        <time>2023-03-24T14:15:49.856Z</time>
      </trkpt>
      <trkpt lat="48.57793" lon="-2.80401">
        <ele>75.011315</ele>
        <time>2023-03-24T14:16:06.319Z</time>
      </trkpt>
      <trkpt lat="48.5782" lon="-2.80396">
        <ele>74.666548</ele>
        <time>2023-03-24T14:16:15.616Z</time>
      </trkpt>
      <trkpt lat="48.57846" lon="-2.80399">
        <ele>74.334188</ele>
        <time>2023-03-24T14:16:24.694Z</time>
      </trkpt>
      <trkpt lat="48.57862" lon="-2.80392">
        <ele>74.122737</ele>
        <time>2023-03-24T14:16:30.592Z</time>
      </trkpt>
      <trkpt lat="48.57878" lon="-2.80389">
        <ele>73.914151</ele>
        <time>2023-03-24T14:16:36.191Z</time>
      </trkpt>
      <trkpt lat="48.57918" lon="-2.80388">
        <ele>73.41699</ele>
        <time>2023-03-24T14:16:49.218Z</time>
      </trkpt>
      <trkpt lat="48.5795" lon="-2.80395">
        <ele>72.824865</ele>
        <time>2023-03-24T14:16:59.997Z</time>
      </trkpt>
      <trkpt lat="48.57947" lon="-2.80349">
        <ele>72.17878</ele>
        <time>2023-03-24T14:17:10.065Z</time>
      </trkpt>
      <trkpt lat="48.57979" lon="-2.80323">
        <ele>71.404175</ele>
        <time>2023-03-24T14:17:21.976Z</time>
      </trkpt>
      <trkpt lat="48.58028" lon="-2.80303">
        <ele>70.331304</ele>
        <time>2023-03-24T14:17:38.415Z</time>
      </trkpt>
      <trkpt lat="48.58128" lon="-2.80233">
        <ele>67.367144</ele>
        <time>2023-03-24T14:18:13.463Z</time>
      </trkpt>
      <trkpt lat="48.58162" lon="-2.80219">
        <ele>66.312781</ele>
        <time>2023-03-24T14:18:24.064Z</time>
      </trkpt>
      <trkpt lat="48.58194" lon="-2.80213">
        <ele>65.336876</ele>
        <time>2023-03-24T14:18:33.980Z</time>
      </trkpt>
      <trkpt lat="48.58237" lon="-2.80215">
        <ele>64.02926</ele>
        <time>2023-03-24T14:18:47.163Z</time>
      </trkpt>
      <trkpt lat="48.58299" lon="-2.80247">
        <ele>61.390918</ele>
        <time>2023-03-24T14:19:07.017Z</time>
      </trkpt>
      <trkpt lat="48.58332" lon="-2.80247">
        <ele>60.044095</ele>
        <time>2023-03-24T14:19:16.746Z</time>
      </trkpt>
      <trkpt lat="48.5835" lon="-2.80254">
        <ele>59.310048</ele>
        <time>2023-03-24T14:19:21.993Z</time>
      </trkpt>
      <trkpt lat="48.58412" lon="-2.80258">
        <ele>56.779656</ele>
        <time>2023-03-24T14:19:40.399Z</time>
      </trkpt>
      <trkpt lat="48.58436" lon="-2.80252">
        <ele>55.847358</ele>
        <time>2023-03-24T14:19:47.700Z</time>
      </trkpt>
      <trkpt lat="48.58442" lon="-2.80245">
        <ele>55.579066</ele>
        <time>2023-03-24T14:19:49.778Z</time>
      </trkpt>
      <trkpt lat="48.58482" lon="-2.80271">
        <ele>53.913945</ele>
        <time>2023-03-24T14:20:02.881Z</time>
      </trkpt>
      <trkpt lat="48.58517" lon="-2.80299">
        <ele>52.41187</ele>
        <time>2023-03-24T14:20:14.863Z</time>
      </trkpt>
      <trkpt lat="48.58542" lon="-2.80354">
        <ele>50.721938</ele>
        <time>2023-03-24T14:20:28.028Z</time>
      </trkpt>
      <trkpt lat="48.58588" lon="-2.80492">
        <ele>47.885253</ele>
        <time>2023-03-24T14:20:59.380Z</time>
      </trkpt>
      <trkpt lat="48.58605" lon="-2.80524">
        <ele>47.194369</ele>
        <time>2023-03-24T14:21:08.186Z</time>
      </trkpt>
      <trkpt lat="48.58622" lon="-2.80546">
        <ele>46.633285</ele>
        <time>2023-03-24T14:21:15.516Z</time>
      </trkpt>
      <trkpt lat="48.5865" lon="-2.80563">
        <ele>45.864875</ele>
        <time>2023-03-24T14:21:25.773Z</time>
      </trkpt>
      <trkpt lat="48.58712" lon="-2.80552">
        <ele>44.338561</ele>
        <time>2023-03-24T14:21:46.319Z</time>
      </trkpt>
      <trkpt lat="48.58748" lon="-2.80553">
        <ele>43.45358</ele>
        <time>2023-03-24T14:21:58.124Z</time>
      </trkpt>
      <trkpt lat="48.588" lon="-2.80568">
        <ele>42.156638</ele>
        <time>2023-03-24T14:22:15.749Z</time>
      </trkpt>
      <trkpt lat="48.58905" lon="-2.80583">
        <ele>37.845613</ele>
        <time>2023-03-24T14:22:46.972Z</time>
      </trkpt>
      <trkpt lat="48.58944" lon="-2.80604">
        <ele>35.551885</ele>
        <time>2023-03-24T14:22:58.832Z</time>
      </trkpt>
      <trkpt lat="48.58966" lon="-2.80623">
        <ele>34.173101</ele>
        <time>2023-03-24T14:23:05.796Z</time>
      </trkpt>
      <trkpt lat="48.59034" lon="-2.80672">
        <ele>30.62786</ele>
        <time>2023-03-24T14:23:26.351Z</time>
      </trkpt>
      <trkpt lat="48.59085" lon="-2.80721">
        <ele>28.999749</ele>
        <time>2023-03-24T14:23:43.156Z</time>
      </trkpt>
      <trkpt lat="48.59112" lon="-2.8074">
        <ele>28.18657</ele>
        <time>2023-03-24T14:23:52.375Z</time>
      </trkpt>
      <trkpt lat="48.59155" lon="-2.80782">
        <ele>26.835057</ele>
        <time>2023-03-24T14:24:13.703Z</time>
      </trkpt>
      <trkpt lat="48.59186" lon="-2.80816">
        <ele>28.028555</ele>
        <time>2023-03-24T14:24:40.262Z</time>
      </trkpt>
      <trkpt lat="48.59181" lon="-2.80841">
        <ele>29.556947</ele>
        <time>2023-03-24T14:24:52.443Z</time>
      </trkpt>
      <trkpt lat="48.59182" lon="-2.80849">
        <ele>30.014467</ele>
        <time>2023-03-24T14:24:56.083Z</time>
      </trkpt>
      <trkpt lat="48.59185" lon="-2.80854">
        <ele>30.395064</ele>
        <time>2023-03-24T14:24:59.093Z</time>
      </trkpt>
      <trkpt lat="48.59185" lon="-2.80864">
        <ele>30.991837</ele>
        <time>2023-03-24T14:25:03.857Z</time>
      </trkpt>
      <trkpt lat="48.59182" lon="-2.80872">
        <ele>31.513921</ele>
        <time>2023-03-24T14:25:08.018Z</time>
      </trkpt>
      <trkpt lat="48.59176" lon="-2.80875">
        <ele>32.043131</ele>
        <time>2023-03-24T14:25:12.243Z</time>
      </trkpt>
      <trkpt lat="48.59159" lon="-2.80874">
        <ele>33.58985</ele>
        <time>2023-03-24T14:25:24.596Z</time>
      </trkpt>
      <trkpt lat="48.59137" lon="-2.80867">
        <ele>35.531995</ele>
        <time>2023-03-24T14:25:53.039Z</time>
      </trkpt>
      <trkpt lat="48.59152" lon="-2.80926">
        <ele>39.230419</ele>
        <time>2023-03-24T14:26:55.164Z</time>
      </trkpt>
      <trkpt lat="48.59163" lon="-2.80944">
        <ele>40.605867</ele>
        <time>2023-03-24T14:27:16.701Z</time>
      </trkpt>
      <trkpt lat="48.59144" lon="-2.80948">
        <ele>42.411555</ele>
        <time>2023-03-24T14:27:48.238Z</time>
      </trkpt>
      <trkpt lat="48.59127" lon="-2.80938">
        <ele>44.421795</ele>
        <time>2023-03-24T14:28:12.701Z</time>
      </trkpt>
      <trkpt lat="48.59118" lon="-2.80936">
        <ele>45.531081</ele>
        <time>2023-03-24T14:28:25.856Z</time>
      </trkpt>
      <trkpt lat="48.59111" lon="-2.80948">
        <ele>46.694902</ele>
        <time>2023-03-24T14:28:45.199Z</time>
      </trkpt>
      <trkpt lat="48.59049" lon="-2.81024">
        <ele>55.877012</ele>
        <time>2023-03-24T14:29:51.230Z</time>
      </trkpt>
      <trkpt lat="48.58969" lon="-2.81098">
        <ele>64.29941</ele>
        <time>2023-03-24T14:30:57.594Z</time>
      </trkpt>
      <trkpt lat="48.58951" lon="-2.81107">
        <ele>65.172573</ele>
        <time>2023-03-24T14:31:08.354Z</time>
      </trkpt>
      <trkpt lat="48.58967" lon="-2.81144">
        <ele>66.506436</ele>
        <time>2023-03-24T14:31:25.532Z</time>
      </trkpt>
      <trkpt lat="48.5901" lon="-2.81223">
        <ele>69.574982</ele>
        <time>2023-03-24T14:31:58.893Z</time>
      </trkpt>
      <trkpt lat="48.59034" lon="-2.81308">
        <ele>71.25162</ele>
        <time>2023-03-24T14:32:26.835Z</time>
      </trkpt>
      <trkpt lat="48.59036" lon="-2.8134">
        <ele>71.506783</ele>
        <time>2023-03-24T14:32:35.480Z</time>
      </trkpt>
      <trkpt lat="48.5902" lon="-2.81451">
        <ele>72.415527</ele>
        <time>2023-03-24T14:33:06.955Z</time>
      </trkpt>
      <trkpt lat="48.59007" lon="-2.81501">
        <ele>72.845385</ele>
        <time>2023-03-24T14:33:22.069Z</time>
      </trkpt>
      <trkpt lat="48.58993" lon="-2.81519">
        <ele>73.059861</ele>
        <time>2023-03-24T14:33:29.947Z</time>
      </trkpt>
      <trkpt lat="48.58951" lon="-2.81509">
        <ele>73.425326</ele>
        <time>2023-03-24T14:33:41.989Z</time>
      </trkpt>
      <trkpt lat="48.58929" lon="-2.81544">
        <ele>73.697507</ele>
        <time>2023-03-24T14:33:50.995Z</time>
      </trkpt>
      <trkpt lat="48.58913" lon="-2.8159">
        <ele>73.991686</ele>
        <time>2023-03-24T14:34:00.989Z</time>
      </trkpt>
      <trkpt lat="48.58909" lon="-2.81616">
        <ele>74.143453</ele>
        <time>2023-03-24T14:34:06.152Z</time>
      </trkpt>
      <trkpt lat="48.58912" lon="-2.81712">
        <ele>74.424503</ele>
        <time>2023-03-24T14:34:23.435Z</time>
      </trkpt>
      <trkpt lat="48.58922" lon="-2.8177">
        <ele>73.971043</ele>
        <time>2023-03-24T14:34:31.827Z</time>
      </trkpt>
      <trkpt lat="48.58923" lon="-2.81778">
        <ele>73.903687</ele>
        <time>2023-03-24T14:34:32.964Z</time>
      </trkpt>
      <trkpt lat="48.58922" lon="-2.81786">
        <ele>73.845032</ele>
        <time>2023-03-24T14:34:33.993Z</time>
      </trkpt>
      <trkpt lat="48.5892" lon="-2.81793">
        <ele>73.786275</ele>
        <time>2023-03-24T14:34:35.022Z</time>
      </trkpt>
      <trkpt lat="48.58911" lon="-2.81812">
        <ele>73.603332</ele>
        <time>2023-03-24T14:34:38.181Z</time>
      </trkpt>
      <trkpt lat="48.58923" lon="-2.8183">
        <ele>73.410591</ele>
        <time>2023-03-24T14:34:42.276Z</time>
      </trkpt>
      <trkpt lat="48.58945" lon="-2.81861">
        <ele>73.066395</ele>
        <time>2023-03-24T14:34:49.753Z</time>
      </trkpt>
      <trkpt lat="48.58965" lon="-2.8188">
        <ele>72.790534</ele>
        <time>2023-03-24T14:34:56.156Z</time>
      </trkpt>
      <trkpt lat="48.58972" lon="-2.81883">
        <ele>72.701836</ele>
        <time>2023-03-24T14:34:58.049Z</time>
      </trkpt>
      <trkpt lat="48.59014" lon="-2.81885">
        <ele>72.220188</ele>
        <time>2023-03-24T14:35:08.836Z</time>
      </trkpt>
      <trkpt lat="48.59062" lon="-2.81876">
        <ele>71.659764</ele>
        <time>2023-03-24T14:35:21.329Z</time>
      </trkpt>
      <trkpt lat="48.59067" lon="-2.81879">
        <ele>71.593159</ele>
        <time>2023-03-24T14:35:22.861Z</time>
      </trkpt>
      <trkpt lat="48.59069" lon="-2.81884">
        <ele>71.545079</ele>
        <time>2023-03-24T14:35:23.991Z</time>
      </trkpt>
      <trkpt lat="48.59072" lon="-2.8191">
        <ele>71.343181</ele>
        <time>2023-03-24T14:35:28.347Z</time>
      </trkpt>
      <trkpt lat="48.59077" lon="-2.81939">
        <ele>71.112755</ele>
        <time>2023-03-24T14:35:33.007Z</time>
      </trkpt>
      <trkpt lat="48.59086" lon="-2.81963">
        <ele>70.898612</ele>
        <time>2023-03-24T14:35:36.984Z</time>
      </trkpt>
      <trkpt lat="48.59128" lon="-2.8201">
        <ele>70.259509</ele>
        <time>2023-03-24T14:35:48.888Z</time>
      </trkpt>
      <trkpt lat="48.59142" lon="-2.8203">
        <ele>69.97485</ele>
        <time>2023-03-24T14:35:53.483Z</time>
      </trkpt>
      <trkpt lat="48.59156" lon="-2.82056">
        <ele>69.65498</ele>
        <time>2023-03-24T14:35:58.778Z</time>
      </trkpt>
      <trkpt lat="48.59193" lon="-2.82101">
        <ele>68.943019</ele>
        <time>2023-03-24T14:36:09.311Z</time>
      </trkpt>
      <trkpt lat="48.59225" lon="-2.82136">
        <ele>68.361771</ele>
        <time>2023-03-24T14:36:17.509Z</time>
      </trkpt>
      <trkpt lat="48.59242" lon="-2.82173">
        <ele>67.927134</ele>
        <time>2023-03-24T14:36:23.783Z</time>
      </trkpt>
      <trkpt lat="48.5926" lon="-2.82201">
        <ele>67.135067</ele>
        <time>2023-03-24T14:36:29.307Z</time>
      </trkpt>
      <trkpt lat="48.59276" lon="-2.82199">
        <ele>66.471033</ele>
        <time>2023-03-24T14:36:33.994Z</time>
      </trkpt>
      <trkpt lat="48.59314" lon="-2.8222">
        <ele>64.734568</ele>
        <time>2023-03-24T14:36:45.879Z</time>
      </trkpt>
      <trkpt lat="48.59319" lon="-2.82238">
        <ele>64.201478</ele>
        <time>2023-03-24T14:36:49.551Z</time>
      </trkpt>
      <trkpt lat="48.59319" lon="-2.82247">
        <ele>63.940748</ele>
        <time>2023-03-24T14:36:51.291Z</time>
      </trkpt>
      <trkpt lat="48.59324" lon="-2.8225">
        <ele>63.725581</ele>
        <time>2023-03-24T14:36:52.857Z</time>
      </trkpt>
      <trkpt lat="48.59329" lon="-2.82241">
        <ele>63.382309</ele>
        <time>2023-03-24T14:36:55.136Z</time>
      </trkpt>
      <trkpt lat="48.59334" lon="-2.8224">
        <ele>63.159368</ele>
        <time>2023-03-24T14:36:56.661Z</time>
      </trkpt>
      <trkpt lat="48.5934" lon="-2.82248">
        <ele>62.828512</ele>
        <time>2023-03-24T14:36:58.986Z</time>
      </trkpt>
      <trkpt lat="48.59354" lon="-2.82284">
        <ele>61.655949</ele>
        <time>2023-03-24T14:37:07.091Z</time>
      </trkpt>
      <trkpt lat="48.59361" lon="-2.82288">
        <ele>61.365783</ele>
        <time>2023-03-24T14:37:09.149Z</time>
      </trkpt>
      <trkpt lat="48.59371" lon="-2.82291">
        <ele>60.930585</ele>
        <time>2023-03-24T14:37:12.117Z</time>
      </trkpt>
      <trkpt lat="48.59377" lon="-2.82282">
        <ele>60.575375</ele>
        <time>2023-03-24T14:37:14.646Z</time>
      </trkpt>
      <trkpt lat="48.59385" lon="-2.82285">
        <ele>60.212345</ele>
        <time>2023-03-24T14:37:17.005Z</time>
      </trkpt>
      <trkpt lat="48.59384" lon="-2.82256">
        <ele>59.441662</ele>
        <time>2023-03-24T14:37:20.303Z</time>
      </trkpt>
      <trkpt lat="48.59347" lon="-2.8211">
        <ele>55.367128</ele>
        <time>2023-03-24T14:37:39.066Z</time>
      </trkpt>
      <trkpt lat="48.59347" lon="-2.8211">
        <ele>55.367128</ele>
        <time>2023-03-24T14:37:39.069Z</time>
      </trkpt>
      <trkpt lat="48.59344" lon="-2.82078">
        <ele>54.538771</ele>
        <time>2023-03-24T14:37:43.317Z</time>
      </trkpt>
      <trkpt lat="48.59345" lon="-2.8207">
        <ele>54.328699</ele>
        <time>2023-03-24T14:37:44.313Z</time>
      </trkpt>
      <trkpt lat="48.59348" lon="-2.82068">
        <ele>54.181901</ele>
        <time>2023-03-24T14:37:44.856Z</time>
      </trkpt>
      <trkpt lat="48.59353" lon="-2.82077">
        <ele>53.870093</ele>
        <time>2023-03-24T14:37:47.151Z</time>
      </trkpt>
      <trkpt lat="48.59355" lon="-2.82113">
        <ele>52.94842</ele>
        <time>2023-03-24T14:37:54.251Z</time>
      </trkpt>
      <trkpt lat="48.59368" lon="-2.82137">
        <ele>52.278377</ele>
        <time>2023-03-24T14:37:58.683Z</time>
      </trkpt>
      <trkpt lat="48.59406" lon="-2.82244">
        <ele>49.655579</ele>
        <time>2023-03-24T14:38:14.510Z</time>
      </trkpt>
      <trkpt lat="48.59414" lon="-2.82279">
        <ele>48.868551</ele>
        <time>2023-03-24T14:38:18.746Z</time>
      </trkpt>
      <trkpt lat="48.59415" lon="-2.82306">
        <ele>48.287339</ele>
        <time>2023-03-24T14:38:22.005Z</time>
      </trkpt>
      <trkpt lat="48.59426" lon="-2.82328">
        <ele>47.674341</ele>
        <time>2023-03-24T14:38:26.176Z</time>
      </trkpt>
      <trkpt lat="48.59431" lon="-2.82345">
        <ele>47.287597</ele>
        <time>2023-03-24T14:38:28.842Z</time>
      </trkpt>
      <trkpt lat="48.59431" lon="-2.82345">
        <ele>47.287597</ele>
        <time>2023-03-24T14:38:29.039Z</time>
      </trkpt>
      <trkpt lat="48.59431" lon="-2.82345">
        <ele>47.287597</ele>
        <time>2023-03-24T14:38:29.039Z</time>
      </trkpt>
      <trkpt lat="48.59431" lon="-2.82359">
        <ele>46.745274</ele>
        <time>2023-03-24T14:38:31.540Z</time>
      </trkpt>
      <trkpt lat="48.59427" lon="-2.82371">
        <ele>46.15719</ele>
        <time>2023-03-24T14:38:33.782Z</time>
      </trkpt>
      <trkpt lat="48.59425" lon="-2.82371">
        <ele>46.0179</ele>
        <time>2023-03-24T14:38:34.313Z</time>
      </trkpt>
      <trkpt lat="48.59425" lon="-2.82371">
        <ele>45.994458</ele>
        <time>2023-03-24T14:38:34.402Z</time>
      </trkpt>
      <trkpt lat="48.59423" lon="-2.82377">
        <ele>45.69294</ele>
        <time>2023-03-24T14:38:35.551Z</time>
      </trkpt>
      <trkpt lat="48.59421" lon="-2.82384">
        <ele>45.370905</ele>
        <time>2023-03-24T14:38:36.779Z</time>
      </trkpt>
      <trkpt lat="48.5942" lon="-2.82392">
        <ele>44.99775</ele>
        <time>2023-03-24T14:38:38.201Z</time>
      </trkpt>
      <trkpt lat="48.59416" lon="-2.82408">
        <ele>44.226566</ele>
        <time>2023-03-24T14:38:41.156Z</time>
      </trkpt>
      <trkpt lat="48.59415" lon="-2.82416">
        <ele>43.862037</ele>
        <time>2023-03-24T14:38:42.548Z</time>
      </trkpt>
      <trkpt lat="48.59413" lon="-2.82423">
        <ele>43.50581</ele>
        <time>2023-03-24T14:38:43.906Z</time>
      </trkpt>
      <trkpt lat="48.59411" lon="-2.8243">
        <ele>43.148569</ele>
        <time>2023-03-24T14:38:45.268Z</time>
      </trkpt>
      <trkpt lat="48.59406" lon="-2.82451">
        <ele>42.176466</ele>
        <time>2023-03-24T14:38:48.984Z</time>
      </trkpt>
      <trkpt lat="48.59403" lon="-2.82456">
        <ele>41.89185</ele>
        <time>2023-03-24T14:38:50.070Z</time>
      </trkpt>
      <trkpt lat="48.59402" lon="-2.82462">
        <ele>41.624871</ele>
        <time>2023-03-24T14:38:51.092Z</time>
      </trkpt>
      <trkpt lat="48.594" lon="-2.82465">
        <ele>41.404912</ele>
        <time>2023-03-24T14:38:51.932Z</time>
      </trkpt>
      <trkpt lat="48.59397" lon="-2.82468">
        <ele>41.190896</ele>
        <time>2023-03-24T14:38:52.748Z</time>
      </trkpt>
      <trkpt lat="48.59395" lon="-2.8247">
        <ele>41.023259</ele>
        <time>2023-03-24T14:38:53.387Z</time>
      </trkpt>
      <trkpt lat="48.59393" lon="-2.82472">
        <ele>40.874309</ele>
        <time>2023-03-24T14:38:53.955Z</time>
      </trkpt>
      <trkpt lat="48.59393" lon="-2.82476">
        <ele>40.69916</ele>
        <time>2023-03-24T14:38:54.622Z</time>
      </trkpt>
      <trkpt lat="48.59395" lon="-2.82481">
        <ele>40.428027</ele>
        <time>2023-03-24T14:38:55.656Z</time>
      </trkpt>
      <trkpt lat="48.59398" lon="-2.82487">
        <ele>40.1081</ele>
        <time>2023-03-24T14:38:56.876Z</time>
      </trkpt>
      <trkpt lat="48.59401" lon="-2.82492">
        <ele>39.77642</ele>
        <time>2023-03-24T14:38:58.165Z</time>
      </trkpt>
      <trkpt lat="48.59405" lon="-2.82496">
        <ele>39.45423</ele>
        <time>2023-03-24T14:38:59.395Z</time>
      </trkpt>
      <trkpt lat="48.59409" lon="-2.82501">
        <ele>39.069937</ele>
        <time>2023-03-24T14:39:00.868Z</time>
      </trkpt>
      <trkpt lat="48.59414" lon="-2.82507">
        <ele>38.655614</ele>
        <time>2023-03-24T14:39:02.449Z</time>
      </trkpt>
      <trkpt lat="48.5942" lon="-2.82512">
        <ele>38.190767</ele>
        <time>2023-03-24T14:39:04.223Z</time>
      </trkpt>
      <trkpt lat="48.59428" lon="-2.82516">
        <ele>37.62431</ele>
        <time>2023-03-24T14:39:06.406Z</time>
      </trkpt>
      <trkpt lat="48.59436" lon="-2.8252">
        <ele>37.098219</ele>
        <time>2023-03-24T14:39:08.415Z</time>
      </trkpt>
      <trkpt lat="48.59435" lon="-2.82525">
        <ele>36.849884</ele>
        <time>2023-03-24T14:39:09.360Z</time>
      </trkpt>
      <trkpt lat="48.59462" lon="-2.82534">
        <ele>34.941215</ele>
        <time>2023-03-24T14:39:15.135Z</time>
      </trkpt>
      <trkpt lat="48.59467" lon="-2.82538">
        <ele>34.4765</ele>
        <time>2023-03-24T14:39:16.192Z</time>
      </trkpt>
      <trkpt lat="48.59466" lon="-2.82547">
        <ele>33.94439</ele>
        <time>2023-03-24T14:39:17.315Z</time>
      </trkpt>
      <trkpt lat="48.59477" lon="-2.82547">
        <ele>33.016619</ele>
        <time>2023-03-24T14:39:24.559Z</time>
      </trkpt>
      <trkpt lat="48.5951" lon="-2.82545">
        <ele>30.079813</ele>
        <time>2023-03-24T14:39:33.139Z</time>
      </trkpt>
      <trkpt lat="48.59536" lon="-2.82533">
        <ele>27.632917</ele>
        <time>2023-03-24T14:39:40.247Z</time>
      </trkpt>
      <trkpt lat="48.59546" lon="-2.82536">
        <ele>26.672123</ele>
        <time>2023-03-24T14:39:43.055Z</time>
      </trkpt>
      <trkpt lat="48.59566" lon="-2.82516">
        <ele>24.609933</ele>
        <time>2023-03-24T14:39:46.569Z</time>
      </trkpt>
      <trkpt lat="48.59597" lon="-2.82475">
        <ele>20.923989</ele>
        <time>2023-03-24T14:39:52.807Z</time>
      </trkpt>
      <trkpt lat="48.59609" lon="-2.8246">
        <ele>19.527741</ele>
        <time>2023-03-24T14:39:55.175Z</time>
      </trkpt>
      <trkpt lat="48.59638" lon="-2.82425">
        <ele>16.861951</ele>
        <time>2023-03-24T14:40:00.852Z</time>
      </trkpt>
      <trkpt lat="48.59646" lon="-2.82416">
        <ele>16.181295</ele>
        <time>2023-03-24T14:40:02.352Z</time>
      </trkpt>
      <trkpt lat="48.59672" lon="-2.82398">
        <ele>14.210589</ele>
        <time>2023-03-24T14:40:06.774Z</time>
      </trkpt>
      <trkpt lat="48.59684" lon="-2.82395">
        <ele>13.409676</ele>
        <time>2023-03-24T14:40:08.561Z</time>
      </trkpt>
      <trkpt lat="48.59707" lon="-2.82399">
        <ele>11.822501</ele>
        <time>2023-03-24T14:40:12.232Z</time>
      </trkpt>
      <trkpt lat="48.59718" lon="-2.82403">
        <ele>11.037978</ele>
        <time>2023-03-24T14:40:14.014Z</time>
      </trkpt>
      <trkpt lat="48.59722" lon="-2.82386">
        <ele>10.236664</ele>
        <time>2023-03-24T14:40:15.947Z</time>
      </trkpt>
      <trkpt lat="48.59725" lon="-2.82371">
        <ele>9.539458</ele>
        <time>2023-03-24T14:40:17.612Z</time>
      </trkpt>
      <trkpt lat="48.59727" lon="-2.82373">
        <ele>9.390901</ele>
        <time>2023-03-24T14:40:17.965Z</time>
      </trkpt>
      <trkpt lat="48.59761" lon="-2.82394">
        <ele>6.934332</ele>
        <time>2023-03-24T14:40:23.971Z</time>
      </trkpt>
      <trkpt lat="48.59768" lon="-2.82395">
        <ele>6.591761</ele>
        <time>2023-03-24T14:40:25.123Z</time>
      </trkpt>
      <trkpt lat="48.59772" lon="-2.82395">
        <ele>6.504199</ele>
        <time>2023-03-24T14:40:25.808Z</time>
      </trkpt>
      <trkpt lat="48.59781" lon="-2.82396">
        <ele>6.284328</ele>
        <time>2023-03-24T14:40:27.597Z</time>
      </trkpt>
      <trkpt lat="48.59783" lon="-2.82395">
        <ele>6.250175</ele>
        <time>2023-03-24T14:40:27.879Z</time>
      </trkpt>
      <trkpt lat="48.59806" lon="-2.82396">
        <ele>5.736551</ele>
        <time>2023-03-24T14:40:32.045Z</time>
      </trkpt>
      <trkpt lat="48.59815" lon="-2.82396">
        <ele>5.534695</ele>
        <time>2023-03-24T14:40:33.717Z</time>
      </trkpt>
      <trkpt lat="48.59842" lon="-2.82405">
        <ele>4.917874</ele>
        <time>2023-03-24T14:40:38.785Z</time>
      </trkpt>
      <trkpt lat="48.59868" lon="-2.82418">
        <ele>4.290701</ele>
        <time>2023-03-24T14:40:44.390Z</time>
      </trkpt>
      <trkpt lat="48.59879" lon="-2.82423">
        <ele>4.034415</ele>
        <time>2023-03-24T14:40:46.529Z</time>
      </trkpt>
      <trkpt lat="48.59893" lon="-2.82429">
        <ele>3.712453</ele>
        <time>2023-03-24T14:40:49.452Z</time>
      </trkpt>
      <trkpt lat="48.5992" lon="-2.82442">
        <ele>3.077975</ele>
        <time>2023-03-24T14:40:55.105Z</time>
      </trkpt>
      <trkpt lat="48.6" lon="-2.82482">
        <ele>2.16236</ele>
        <time>2023-03-24T14:41:13.646Z</time>
      </trkpt>
      <trkpt lat="48.60002" lon="-2.82484">
        <ele>2.139099</ele>
        <time>2023-03-24T14:41:14.371Z</time>
      </trkpt>
      <trkpt lat="48.60005" lon="-2.82472">
        <ele>2.074981</ele>
        <time>2023-03-24T14:41:16.105Z</time>
      </trkpt>
      <trkpt lat="48.60007" lon="-2.82459">
        <ele>2.010863</ele>
        <time>2023-03-24T14:41:17.821Z</time>
      </trkpt>
      <trkpt lat="48.60022" lon="-2.8233">
        <ele>1.379026</ele>
        <time>2023-03-24T14:41:35.379Z</time>
      </trkpt>
      <trkpt lat="48.60033" lon="-2.82239">
        <ele>1.341872</ele>
        <time>2023-03-24T14:41:47.807Z</time>
      </trkpt>
      <trkpt lat="48.60039" lon="-2.82186">
        <ele>1.35936</ele>
        <time>2023-03-24T14:41:55.145Z</time>
      </trkpt>
      <trkpt lat="48.60046" lon="-2.8213">
        <ele>1.378077</ele>
        <time>2023-03-24T14:42:03.555Z</time>
      </trkpt>
      <trkpt lat="48.60054" lon="-2.82064">
        <ele>1.399909</ele>
        <time>2023-03-24T14:42:15.473Z</time>
      </trkpt>
      <trkpt lat="48.60061" lon="-2.82009">
        <ele>1.814624</ele>
        <time>2023-03-24T14:42:26.350Z</time>
      </trkpt>
      <trkpt lat="48.60064" lon="-2.81987">
        <ele>2.047089</ele>
        <time>2023-03-24T14:42:31.069Z</time>
      </trkpt>
      <trkpt lat="48.60072" lon="-2.81973">
        <ele>2.228639</ele>
        <time>2023-03-24T14:42:34.511Z</time>
      </trkpt>
      <trkpt lat="48.60078" lon="-2.81968">
        <ele>2.338036</ele>
        <time>2023-03-24T14:42:36.956Z</time>
      </trkpt>
      <trkpt lat="48.60089" lon="-2.8197">
        <ele>2.513828</ele>
        <time>2023-03-24T14:42:40.682Z</time>
      </trkpt>
      <trkpt lat="48.6011" lon="-2.81992">
        <ele>2.903906</ele>
        <time>2023-03-24T14:42:48.583Z</time>
      </trkpt>
      <trkpt lat="48.60118" lon="-2.81997">
        <ele>3.034508</ele>
        <time>2023-03-24T14:42:51.461Z</time>
      </trkpt>
      <trkpt lat="48.60143" lon="-2.82009">
        <ele>3.437716</ele>
        <time>2023-03-24T14:43:01.493Z</time>
      </trkpt>
      <trkpt lat="48.60151" lon="-2.82015">
        <ele>3.565273</ele>
        <time>2023-03-24T14:43:04.301Z</time>
      </trkpt>
      <trkpt lat="48.60145" lon="-2.82044">
        <ele>3.879944</ele>
        <time>2023-03-24T14:43:10.212Z</time>
      </trkpt>
      <trkpt lat="48.6015" lon="-2.82232">
        <ele>5.516008</ele>
        <time>2023-03-24T14:43:45.401Z</time>
      </trkpt>
      <trkpt lat="48.60143" lon="-2.82327">
        <ele>6.33116</ele>
        <time>2023-03-24T14:44:03.503Z</time>
      </trkpt>
      <trkpt lat="48.60141" lon="-2.82342">
        <ele>6.456474</ele>
        <time>2023-03-24T14:44:06.297Z</time>
      </trkpt>
      <trkpt lat="48.60137" lon="-2.82391">
        <ele>7.576936</ele>
        <time>2023-03-24T14:44:14.843Z</time>
      </trkpt>
      <trkpt lat="48.60137" lon="-2.82435">
        <ele>8.585523</ele>
        <time>2023-03-24T14:44:24.749Z</time>
      </trkpt>
      <trkpt lat="48.6014" lon="-2.82439">
        <ele>8.71468</ele>
        <time>2023-03-24T14:44:25.885Z</time>
      </trkpt>
      <trkpt lat="48.60141" lon="-2.82449">
        <ele>8.961708</ele>
        <time>2023-03-24T14:44:27.772Z</time>
      </trkpt>
      <trkpt lat="48.60158" lon="-2.82456">
        <ele>9.560969</ele>
        <time>2023-03-24T14:44:34.690Z</time>
      </trkpt>
      <trkpt lat="48.60169" lon="-2.8246">
        <ele>9.968219</ele>
        <time>2023-03-24T14:44:37.950Z</time>
      </trkpt>
      <trkpt lat="48.60177" lon="-2.82464">
        <ele>10.233796</ele>
        <time>2023-03-24T14:44:40.365Z</time>
      </trkpt>
      <trkpt lat="48.60175" lon="-2.8244">
        <ele>10.766076</ele>
        <time>2023-03-24T14:44:46.812Z</time>
      </trkpt>
      <trkpt lat="48.60159" lon="-2.8236">
        <ele>12.727931</ele>
        <time>2023-03-24T14:45:15.415Z</time>
      </trkpt>
      <trkpt lat="48.60158" lon="-2.8235">
        <ele>13.270166</ele>
        <time>2023-03-24T14:45:20.949Z</time>
      </trkpt>
      <trkpt lat="48.60179" lon="-2.82292">
        <ele>16.708231</ele>
        <time>2023-03-24T14:45:47.288Z</time>
      </trkpt>
      <trkpt lat="48.60204" lon="-2.82243">
        <ele>19.944156</ele>
        <time>2023-03-24T14:46:12.620Z</time>
      </trkpt>
      <trkpt lat="48.60208" lon="-2.82242">
        <ele>20.224394</ele>
        <time>2023-03-24T14:46:16.500Z</time>
      </trkpt>
      <trkpt lat="48.60224" lon="-2.82238">
        <ele>21.550327</ele>
        <time>2023-03-24T14:46:26.917Z</time>
      </trkpt>
      <trkpt lat="48.60232" lon="-2.82236">
        <ele>22.141755</ele>
        <time>2023-03-24T14:46:31.843Z</time>
      </trkpt>
      <trkpt lat="48.60287" lon="-2.82246">
        <ele>26.503285</ele>
        <time>2023-03-24T14:47:09.933Z</time>
      </trkpt>
      <trkpt lat="48.60371" lon="-2.82261">
        <ele>31.180616</ele>
        <time>2023-03-24T14:48:01.461Z</time>
      </trkpt>
      <trkpt lat="48.60387" lon="-2.82263">
        <ele>32.067168</ele>
        <time>2023-03-24T14:48:10.041Z</time>
      </trkpt>
      <trkpt lat="48.60433" lon="-2.82281">
        <ele>34.633198</ele>
        <time>2023-03-24T14:48:30.031Z</time>
      </trkpt>
      <trkpt lat="48.60469" lon="-2.82292">
        <ele>36.550146</ele>
        <time>2023-03-24T14:48:41.151Z</time>
      </trkpt>
      <trkpt lat="48.60476" lon="-2.82281">
        <ele>36.71802</ele>
        <time>2023-03-24T14:48:43.875Z</time>
      </trkpt>
      <trkpt lat="48.60489" lon="-2.82153">
        <ele>38.144561</ele>
        <time>2023-03-24T14:49:12.672Z</time>
      </trkpt>
      <trkpt lat="48.60505" lon="-2.82096">
        <ele>38.829059</ele>
        <time>2023-03-24T14:49:26.455Z</time>
      </trkpt>
      <trkpt lat="48.60537" lon="-2.82123">
        <ele>39.443569</ele>
        <time>2023-03-24T14:49:36.421Z</time>
      </trkpt>
      <trkpt lat="48.60574" lon="-2.82142">
        <ele>40.054081</ele>
        <time>2023-03-24T14:49:45.214Z</time>
      </trkpt>
      <trkpt lat="48.60637" lon="-2.82152">
        <ele>41.034231</ele>
        <time>2023-03-24T14:50:03.470Z</time>
      </trkpt>
      <trkpt lat="48.60642" lon="-2.82142">
        <ele>41.164299</ele>
        <time>2023-03-24T14:50:05.840Z</time>
      </trkpt>
      <trkpt lat="48.6065" lon="-2.82126">
        <ele>41.368528</ele>
        <time>2023-03-24T14:50:11.838Z</time>
      </trkpt>
      <trkpt lat="48.60658" lon="-2.82108">
        <ele>41.584697</ele>
        <time>2023-03-24T14:50:18.038Z</time>
      </trkpt>
      <trkpt lat="48.60683" lon="-2.82051">
        <ele>42.296194</ele>
        <time>2023-03-24T14:50:35.527Z</time>
      </trkpt>
      <trkpt lat="48.6076" lon="-2.82094">
        <ele>42.712134</ele>
        <time>2023-03-24T14:50:54.841Z</time>
      </trkpt>
      <trkpt lat="48.6078" lon="-2.82109">
        <ele>42.823758</ele>
        <time>2023-03-24T14:50:59.242Z</time>
      </trkpt>
      <trkpt lat="48.60821" lon="-2.82139">
        <ele>43.046345</ele>
        <time>2023-03-24T14:51:09.165Z</time>
      </trkpt>
      <trkpt lat="48.60841" lon="-2.82069">
        <ele>43.406116</ele>
        <time>2023-03-24T14:51:25.383Z</time>
      </trkpt>
      <trkpt lat="48.60844" lon="-2.81977">
        <ele>44.059345</ele>
        <time>2023-03-24T14:51:43.793Z</time>
      </trkpt>
      <trkpt lat="48.60848" lon="-2.81969">
        <ele>44.129577</ele>
        <time>2023-03-24T14:51:44.960Z</time>
      </trkpt>
      <trkpt lat="48.60891" lon="-2.81946">
        <ele>44.620886</ele>
        <time>2023-03-24T14:51:53.759Z</time>
      </trkpt>
      <trkpt lat="48.60901" lon="-2.8196">
        <ele>44.771975</ele>
        <time>2023-03-24T14:52:00.211Z</time>
      </trkpt>
      <trkpt lat="48.60912" lon="-2.81996">
        <ele>45.047503</ele>
        <time>2023-03-24T14:52:08.753Z</time>
      </trkpt>
      <trkpt lat="48.60912" lon="-2.81996">
        <ele>45.047503</ele>
        <time>2023-03-24T14:52:08.832Z</time>
      </trkpt>
      <trkpt lat="48.60912" lon="-2.81996">
        <ele>45.047503</ele>
        <time>2023-03-24T14:52:08.832Z</time>
      </trkpt>
      <trkpt lat="48.6091" lon="-2.82012">
        <ele>45.108149</ele>
        <time>2023-03-24T14:52:11.536Z</time>
      </trkpt>
      <trkpt lat="48.60905" lon="-2.82031">
        <ele>44.998993</ele>
        <time>2023-03-24T14:52:15.109Z</time>
      </trkpt>
      <trkpt lat="48.60909" lon="-2.82034">
        <ele>44.961283</ele>
        <time>2023-03-24T14:52:16.344Z</time>
      </trkpt>
      <trkpt lat="48.60908" lon="-2.82038">
        <ele>44.936224</ele>
        <time>2023-03-24T14:52:17.165Z</time>
      </trkpt>
      <trkpt lat="48.60899" lon="-2.82062">
        <ele>44.791585</ele>
        <time>2023-03-24T14:52:21.914Z</time>
      </trkpt>
      <trkpt lat="48.60898" lon="-2.82066">
        <ele>44.769918</ele>
        <time>2023-03-24T14:52:22.623Z</time>
      </trkpt>
      <trkpt lat="48.60897" lon="-2.8207">
        <ele>44.747849</ele>
        <time>2023-03-24T14:52:23.346Z</time>
      </trkpt>
      <trkpt lat="48.60897" lon="-2.82074">
        <ele>44.728459</ele>
        <time>2023-03-24T14:52:23.980Z</time>
      </trkpt>
      <trkpt lat="48.60898" lon="-2.82077">
        <ele>44.708544</ele>
        <time>2023-03-24T14:52:24.633Z</time>
      </trkpt>
      <trkpt lat="48.609" lon="-2.82079">
        <ele>44.6909</ele>
        <time>2023-03-24T14:52:25.211Z</time>
      </trkpt>
      <trkpt lat="48.60903" lon="-2.8208">
        <ele>44.671912</ele>
        <time>2023-03-24T14:52:25.833Z</time>
      </trkpt>
      <trkpt lat="48.60905" lon="-2.82079">
        <ele>44.651991</ele>
        <time>2023-03-24T14:52:26.485Z</time>
      </trkpt>
      <trkpt lat="48.60908" lon="-2.82078">
        <ele>44.631563</ele>
        <time>2023-03-24T14:52:27.171Z</time>
      </trkpt>
      <trkpt lat="48.60913" lon="-2.82077">
        <ele>44.587802</ele>
        <time>2023-03-24T14:52:28.608Z</time>
      </trkpt>
      <trkpt lat="48.60916" lon="-2.82076">
        <ele>44.565383</ele>
        <time>2023-03-24T14:52:29.344Z</time>
      </trkpt>
      <trkpt lat="48.60922" lon="-2.82076">
        <ele>44.51942</ele>
        <time>2023-03-24T14:52:30.849Z</time>
      </trkpt>
      <trkpt lat="48.60928" lon="-2.82075">
        <ele>44.470164</ele>
        <time>2023-03-24T14:52:32.462Z</time>
      </trkpt>
      <trkpt lat="48.60931" lon="-2.82075">
        <ele>44.444885</ele>
        <time>2023-03-24T14:52:33.290Z</time>
      </trkpt>
      <trkpt lat="48.60937" lon="-2.82075">
        <ele>44.395049</ele>
        <time>2023-03-24T14:52:34.922Z</time>
      </trkpt>
      <trkpt lat="48.60944" lon="-2.82077">
        <ele>44.345273</ele>
        <time>2023-03-24T14:52:36.558Z</time>
      </trkpt>
      <trkpt lat="48.60946" lon="-2.82078">
        <ele>44.322283</ele>
        <time>2023-03-24T14:52:37.312Z</time>
      </trkpt>
      <trkpt lat="48.60949" lon="-2.82079">
        <ele>44.299773</ele>
        <time>2023-03-24T14:52:38.050Z</time>
      </trkpt>
      <trkpt lat="48.60952" lon="-2.82079">
        <ele>44.27684</ele>
        <time>2023-03-24T14:52:38.801Z</time>
      </trkpt>
      <trkpt lat="48.60954" lon="-2.82076">
        <ele>44.254466</ele>
        <time>2023-03-24T14:52:39.534Z</time>
      </trkpt>
      <trkpt lat="48.60955" lon="-2.82072">
        <ele>44.23164</ele>
        <time>2023-03-24T14:52:40.282Z</time>
      </trkpt>
      <trkpt lat="48.60956" lon="-2.82067">
        <ele>44.205228</ele>
        <time>2023-03-24T14:52:41.147Z</time>
      </trkpt>
      <trkpt lat="48.60956" lon="-2.82056">
        <ele>44.145115</ele>
        <time>2023-03-24T14:52:43.118Z</time>
      </trkpt>
      <trkpt lat="48.60957" lon="-2.82042">
        <ele>44.074162</ele>
        <time>2023-03-24T14:52:45.442Z</time>
      </trkpt>
      <trkpt lat="48.60954" lon="-2.82044">
        <ele>44.050637</ele>
        <time>2023-03-24T14:52:46.210Z</time>
      </trkpt>
      <trkpt lat="48.60972" lon="-2.8189">
        <ele>40.158075</ele>
        <time>2023-03-24T14:53:02.143Z</time>
      </trkpt>
      <trkpt lat="48.6097" lon="-2.81805">
        <ele>36.817217</ele>
        <time>2023-03-24T14:53:11.402Z</time>
      </trkpt>
      <trkpt lat="48.60977" lon="-2.81786">
        <ele>35.936659</ele>
        <time>2023-03-24T14:53:21.724Z</time>
      </trkpt>
      <trkpt lat="48.60983" lon="-2.81673">
        <ele>33.992122</ele>
        <time>2023-03-24T14:54:13.845Z</time>
      </trkpt>
      <trkpt lat="48.60996" lon="-2.81665">
        <ele>34.508135</ele>
        <time>2023-03-24T14:54:23.696Z</time>
      </trkpt>
      <trkpt lat="48.61022" lon="-2.81656">
        <ele>35.466269</ele>
        <time>2023-03-24T14:54:41.975Z</time>
      </trkpt>
      <trkpt lat="48.61067" lon="-2.81632">
        <ele>37.187027</ele>
        <time>2023-03-24T14:55:09.102Z</time>
      </trkpt>
      <trkpt lat="48.61098" lon="-2.81601">
        <ele>38.557186</ele>
        <time>2023-03-24T14:55:39.230Z</time>
      </trkpt>
      <trkpt lat="48.61102" lon="-2.81605">
        <ele>38.727254</ele>
        <time>2023-03-24T14:55:42.490Z</time>
      </trkpt>
      <trkpt lat="48.61107" lon="-2.8162">
        <ele>39.142546</ele>
        <time>2023-03-24T14:55:52.127Z</time>
      </trkpt>
      <trkpt lat="48.61128" lon="-2.81727">
        <ele>45.172787</ele>
        <time>2023-03-24T14:56:50.049Z</time>
      </trkpt>
      <trkpt lat="48.61137" lon="-2.81787">
        <ele>48.877096</ele>
        <time>2023-03-24T14:57:19.060Z</time>
      </trkpt>
      <trkpt lat="48.6114" lon="-2.81869">
        <ele>53.882913</ele>
        <time>2023-03-24T14:57:55.540Z</time>
      </trkpt>
      <trkpt lat="48.61141" lon="-2.81893">
        <ele>55.333244</ele>
        <time>2023-03-24T14:58:04.742Z</time>
      </trkpt>
      <trkpt lat="48.61143" lon="-2.81958">
        <ele>57.610849</ele>
        <time>2023-03-24T14:58:27.115Z</time>
      </trkpt>
      <trkpt lat="48.61151" lon="-2.82063">
        <ele>60.744143</ele>
        <time>2023-03-24T14:58:57.433Z</time>
      </trkpt>
      <trkpt lat="48.61151" lon="-2.82114">
        <ele>62.243117</ele>
        <time>2023-03-24T14:59:10.980Z</time>
      </trkpt>
      <trkpt lat="48.61152" lon="-2.82166">
        <ele>63.798658</ele>
        <time>2023-03-24T14:59:24.459Z</time>
      </trkpt>
      <trkpt lat="48.61147" lon="-2.82207">
        <ele>64.60593</ele>
        <time>2023-03-24T14:59:34.918Z</time>
      </trkpt>
      <trkpt lat="48.61133" lon="-2.82297">
        <ele>66.08709</ele>
        <time>2023-03-24T14:59:55.778Z</time>
      </trkpt>
      <trkpt lat="48.61133" lon="-2.82297">
        <ele>66.08709</ele>
        <time>2023-03-24T14:59:55.804Z</time>
      </trkpt>
      <trkpt lat="48.61133" lon="-2.82297">
        <ele>66.08709</ele>
        <time>2023-03-24T14:59:55.804Z</time>
      </trkpt>
      <trkpt lat="48.61132" lon="-2.82303">
        <ele>66.186971</ele>
        <time>2023-03-24T14:59:56.869Z</time>
      </trkpt>
      <trkpt lat="48.61148" lon="-2.82312">
        <ele>66.610224</ele>
        <time>2023-03-24T15:00:01.381Z</time>
      </trkpt>
      <trkpt lat="48.61166" lon="-2.82335">
        <ele>67.177719</ele>
        <time>2023-03-24T15:00:07.431Z</time>
      </trkpt>
      <trkpt lat="48.61179" lon="-2.82318">
        <ele>67.603928</ele>
        <time>2023-03-24T15:00:11.974Z</time>
      </trkpt>
      <trkpt lat="48.61256" lon="-2.82314">
        <ele>69.211984</ele>
        <time>2023-03-24T15:00:32.004Z</time>
      </trkpt>
      <trkpt lat="48.61287" lon="-2.82313">
        <ele>69.764769</ele>
        <time>2023-03-24T15:00:40.028Z</time>
      </trkpt>
      <trkpt lat="48.61283" lon="-2.82253">
        <ele>70.467466</ele>
        <time>2023-03-24T15:00:50.226Z</time>
      </trkpt>
      <trkpt lat="48.61282" lon="-2.82247">
        <ele>70.538715</ele>
        <time>2023-03-24T15:00:51.254Z</time>
      </trkpt>
      <trkpt lat="48.61288" lon="-2.82255">
        <ele>70.683053</ele>
        <time>2023-03-24T15:00:53.989Z</time>
      </trkpt>
      <trkpt lat="48.61302" lon="-2.82287">
        <ele>71.139072</ele>
        <time>2023-03-24T15:01:01.593Z</time>
      </trkpt>
      <trkpt lat="48.61309" lon="-2.82308">
        <ele>71.408768</ele>
        <time>2023-03-24T15:01:06.195Z</time>
      </trkpt>
      <trkpt lat="48.61313" lon="-2.82312">
        <ele>71.493575</ele>
        <time>2023-03-24T15:01:07.678Z</time>
      </trkpt>
      <trkpt lat="48.61312" lon="-2.82365">
        <ele>71.949064</ele>
        <time>2023-03-24T15:01:18.083Z</time>
      </trkpt>
      <trkpt lat="48.61315" lon="-2.82383">
        <ele>72.084958</ele>
        <time>2023-03-24T15:01:21.664Z</time>
      </trkpt>
      <trkpt lat="48.61314" lon="-2.82395">
        <ele>72.1689</ele>
        <time>2023-03-24T15:01:23.543Z</time>
      </trkpt>
      <trkpt lat="48.61284" lon="-2.82529">
        <ele>73.196658</ele>
        <time>2023-03-24T15:01:50.216Z</time>
      </trkpt>
      <trkpt lat="48.61385" lon="-2.82549">
        <ele>73.89379</ele>
        <time>2023-03-24T15:02:15.586Z</time>
      </trkpt>
      <trkpt lat="48.61433" lon="-2.8256">
        <ele>74.090913</ele>
        <time>2023-03-24T15:02:27.711Z</time>
      </trkpt>
      <trkpt lat="48.61467" lon="-2.82566">
        <ele>74.228934</ele>
        <time>2023-03-24T15:02:36.290Z</time>
      </trkpt>
      <trkpt lat="48.61544" lon="-2.82567">
        <ele>74.011289</ele>
        <time>2023-03-24T15:02:53.936Z</time>
      </trkpt>
      <trkpt lat="48.61548" lon="-2.82568">
        <ele>73.983549</ele>
        <time>2023-03-24T15:02:54.637Z</time>
      </trkpt>
      <trkpt lat="48.61567" lon="-2.82573">
        <ele>73.81894</ele>
        <time>2023-03-24T15:02:58.640Z</time>
      </trkpt>
      <trkpt lat="48.6158" lon="-2.82583">
        <ele>73.690342</ele>
        <time>2023-03-24T15:03:01.740Z</time>
      </trkpt>
      <trkpt lat="48.61587" lon="-2.82579">
        <ele>73.630448</ele>
        <time>2023-03-24T15:03:03.195Z</time>
      </trkpt>
      <trkpt lat="48.61619" lon="-2.82564">
        <ele>73.336562</ele>
        <time>2023-03-24T15:03:10.017Z</time>
      </trkpt>
      <trkpt lat="48.6165" lon="-2.82555">
        <ele>73.07236</ele>
        <time>2023-03-24T15:03:15.955Z</time>
      </trkpt>
      <trkpt lat="48.61693" lon="-2.82556">
        <ele>72.488767</ele>
        <time>2023-03-24T15:03:24.093Z</time>
      </trkpt>
      <trkpt lat="48.61732" lon="-2.82468">
        <ele>70.953567</ele>
        <time>2023-03-24T15:03:46.204Z</time>
      </trkpt>
      <trkpt lat="48.61843" lon="-2.82322">
        <ele>68.135961</ele>
        <time>2023-03-24T15:04:33.443Z</time>
      </trkpt>
      <trkpt lat="48.61843" lon="-2.82322">
        <ele>68.135961</ele>
        <time>2023-03-24T15:04:33.459Z</time>
      </trkpt>
      <trkpt lat="48.61863" lon="-2.82311">
        <ele>67.847182</ele>
        <time>2023-03-24T15:04:40.485Z</time>
      </trkpt>
      <trkpt lat="48.61868" lon="-2.82313">
        <ele>67.770407</ele>
        <time>2023-03-24T15:04:42.444Z</time>
      </trkpt>
      <trkpt lat="48.61883" lon="-2.82344">
        <ele>67.421836</ele>
        <time>2023-03-24T15:04:51.017Z</time>
      </trkpt>
      <trkpt lat="48.6191" lon="-2.8243">
        <ele>66.54013</ele>
        <time>2023-03-24T15:05:04.128Z</time>
      </trkpt>
      <trkpt lat="48.61925" lon="-2.82473">
        <ele>65.89179</ele>
        <time>2023-03-24T15:05:10.955Z</time>
      </trkpt>
      <trkpt lat="48.61938" lon="-2.82507">
        <ele>65.286857</ele>
        <time>2023-03-24T15:05:16.472Z</time>
      </trkpt>
      <trkpt lat="48.6196" lon="-2.825">
        <ele>64.735442</ele>
        <time>2023-03-24T15:05:20.994Z</time>
      </trkpt>
      <trkpt lat="48.61991" lon="-2.82475">
        <ele>63.895642</ele>
        <time>2023-03-24T15:05:27.585Z</time>
      </trkpt>
      <trkpt lat="48.61996" lon="-2.82506">
        <ele>63.396647</ele>
        <time>2023-03-24T15:05:42.107Z</time>
      </trkpt>
      <trkpt lat="48.62006" lon="-2.8251">
        <ele>63.138333</ele>
        <time>2023-03-24T15:05:49.637Z</time>
      </trkpt>
      <trkpt lat="48.62042" lon="-2.82489">
        <ele>62.213007</ele>
        <time>2023-03-24T15:06:16.619Z</time>
      </trkpt>
      <trkpt lat="48.62051" lon="-2.82488">
        <ele>61.939088</ele>
        <time>2023-03-24T15:06:22.882Z</time>
      </trkpt>
      <trkpt lat="48.62059" lon="-2.82494">
        <ele>61.537943</ele>
        <time>2023-03-24T15:06:29.022Z</time>
      </trkpt>
      <trkpt lat="48.62061" lon="-2.82505">
        <ele>61.198032</ele>
        <time>2023-03-24T15:06:34.293Z</time>
      </trkpt>
      <trkpt lat="48.62093" lon="-2.82463">
        <ele>59.315623</ele>
        <time>2023-03-24T15:07:03.354Z</time>
      </trkpt>
      <trkpt lat="48.62126" lon="-2.82424">
        <ele>57.43183</ele>
        <time>2023-03-24T15:07:32.420Z</time>
      </trkpt>
      <trkpt lat="48.62126" lon="-2.82424">
        <ele>57.42885</ele>
        <time>2023-03-24T15:07:32.459Z</time>
      </trkpt>
      <trkpt lat="48.62164" lon="-2.82413">
        <ele>55.687756</ele>
        <time>2023-03-24T15:07:59.317Z</time>
      </trkpt>
      <trkpt lat="48.62202" lon="-2.8239">
        <ele>53.888909</ele>
        <time>2023-03-24T15:08:27.816Z</time>
      </trkpt>
      <trkpt lat="48.62229" lon="-2.82384">
        <ele>53.176268</ele>
        <time>2023-03-24T15:08:46.702Z</time>
      </trkpt>
      <trkpt lat="48.62265" lon="-2.82378">
        <ele>52.22353</ele>
        <time>2023-03-24T15:09:11.865Z</time>
      </trkpt>
      <trkpt lat="48.62275" lon="-2.82451">
        <ele>50.933448</ele>
        <time>2023-03-24T15:09:20.727Z</time>
      </trkpt>
      <trkpt lat="48.62285" lon="-2.82442">
        <ele>50.629246</ele>
        <time>2023-03-24T15:09:22.767Z</time>
      </trkpt>
      <trkpt lat="48.62309" lon="-2.82429">
        <ele>49.951857</ele>
        <time>2023-03-24T15:09:28.283Z</time>
      </trkpt>
      <trkpt lat="48.62316" lon="-2.82431">
        <ele>49.764185</ele>
        <time>2023-03-24T15:09:29.582Z</time>
      </trkpt>
      <trkpt lat="48.62318" lon="-2.82427">
        <ele>49.680236</ele>
        <time>2023-03-24T15:09:30.220Z</time>
      </trkpt>
      <trkpt lat="48.62326" lon="-2.82415">
        <ele>49.377819</ele>
        <time>2023-03-24T15:09:32.239Z</time>
      </trkpt>
      <trkpt lat="48.62348" lon="-2.824">
        <ele>49.736295</ele>
        <time>2023-03-24T15:09:40.748Z</time>
      </trkpt>
      <trkpt lat="48.62369" lon="-2.82392">
        <ele>50.376837</ele>
        <time>2023-03-24T15:09:48.722Z</time>
      </trkpt>
      <trkpt lat="48.62387" lon="-2.82397">
        <ele>50.89146</ele>
        <time>2023-03-24T15:09:54.697Z</time>
      </trkpt>
      <trkpt lat="48.62388" lon="-2.82403">
        <ele>50.998441</ele>
        <time>2023-03-24T15:09:55.269Z</time>
      </trkpt>
      <trkpt lat="48.62386" lon="-2.82411">
        <ele>51.176744</ele>
        <time>2023-03-24T15:09:59.280Z</time>
      </trkpt>
      <trkpt lat="48.62373" lon="-2.82432">
        <ele>51.721202</ele>
        <time>2023-03-24T15:10:06.995Z</time>
      </trkpt>
      <trkpt lat="48.62362" lon="-2.82468">
        <ele>52.48063</ele>
        <time>2023-03-24T15:10:17.054Z</time>
      </trkpt>
      <trkpt lat="48.62351" lon="-2.82506">
        <ele>53.272229</ele>
        <time>2023-03-24T15:10:25.697Z</time>
      </trkpt>
      <trkpt lat="48.62347" lon="-2.8252">
        <ele>53.568631</ele>
        <time>2023-03-24T15:10:31.462Z</time>
      </trkpt>
      <trkpt lat="48.62344" lon="-2.82528">
        <ele>53.728827</ele>
        <time>2023-03-24T15:10:33.268Z</time>
      </trkpt>
      <trkpt lat="48.62338" lon="-2.82561">
        <ele>54.388974</ele>
        <time>2023-03-24T15:10:45.113Z</time>
      </trkpt>
      <trkpt lat="48.62339" lon="-2.82585">
        <ele>55.168182</ele>
        <time>2023-03-24T15:10:52.231Z</time>
      </trkpt>
      <trkpt lat="48.62346" lon="-2.82609">
        <ele>56.03929</ele>
        <time>2023-03-24T15:11:02.022Z</time>
      </trkpt>
      <trkpt lat="48.62342" lon="-2.82619">
        <ele>56.450995</ele>
        <time>2023-03-24T15:11:07.758Z</time>
      </trkpt>
      <trkpt lat="48.62335" lon="-2.82659">
        <ele>57.845535</ele>
        <time>2023-03-24T15:11:22.782Z</time>
      </trkpt>
      <trkpt lat="48.62315" lon="-2.82803">
        <ele>62.80242</ele>
        <time>2023-03-24T15:12:09.986Z</time>
      </trkpt>
      <trkpt lat="48.6231" lon="-2.8288">
        <ele>64.589281</ele>
        <time>2023-03-24T15:12:31.783Z</time>
      </trkpt>
      <trkpt lat="48.62284" lon="-2.82936">
        <ele>65.828513</ele>
        <time>2023-03-24T15:12:48.893Z</time>
      </trkpt>
      <trkpt lat="48.62302" lon="-2.82967">
        <ele>66.565093</ele>
        <time>2023-03-24T15:12:58.908Z</time>
      </trkpt>
      <trkpt lat="48.62318" lon="-2.83001">
        <ele>67.331453</ele>
        <time>2023-03-24T15:13:08.788Z</time>
      </trkpt>
      <trkpt lat="48.62354" lon="-2.83074">
        <ele>68.642629</ele>
        <time>2023-03-24T15:13:27.946Z</time>
      </trkpt>
      <trkpt lat="48.62422" lon="-2.83229">
        <ele>69.292158</ele>
        <time>2023-03-24T15:13:59.261Z</time>
      </trkpt>
      <trkpt lat="48.62462" lon="-2.83328">
        <ele>69.49498</ele>
        <time>2023-03-24T15:14:16.817Z</time>
      </trkpt>
      <trkpt lat="48.62465" lon="-2.83346">
        <ele>69.489114</ele>
        <time>2023-03-24T15:14:19.486Z</time>
      </trkpt>
      <trkpt lat="48.62464" lon="-2.83361">
        <ele>69.484143</ele>
        <time>2023-03-24T15:14:21.763Z</time>
      </trkpt>
      <trkpt lat="48.62492" lon="-2.83386">
        <ele>69.468104</ele>
        <time>2023-03-24T15:14:28.708Z</time>
      </trkpt>
      <trkpt lat="48.62488" lon="-2.8341">
        <ele>69.460183</ele>
        <time>2023-03-24T15:14:32.149Z</time>
      </trkpt>
      <trkpt lat="48.62481" lon="-2.83544">
        <ele>69.389167</ele>
        <time>2023-03-24T15:14:52.048Z</time>
      </trkpt>
      <trkpt lat="48.62479" lon="-2.836">
        <ele>69.300997</ele>
        <time>2023-03-24T15:15:00.421Z</time>
      </trkpt>
      <trkpt lat="48.62479" lon="-2.8361">
        <ele>69.285824</ele>
        <time>2023-03-24T15:15:01.823Z</time>
      </trkpt>
      <trkpt lat="48.62476" lon="-2.83658">
        <ele>69.208953</ele>
        <time>2023-03-24T15:15:08.864Z</time>
      </trkpt>
      <trkpt lat="48.62474" lon="-2.83742">
        <ele>69.075916</ele>
        <time>2023-03-24T15:15:20.869Z</time>
      </trkpt>
      <trkpt lat="48.62487" lon="-2.83799">
        <ele>68.9392</ele>
        <time>2023-03-24T15:15:29.162Z</time>
      </trkpt>
      <trkpt lat="48.62497" lon="-2.83819">
        <ele>68.750728</ele>
        <time>2023-03-24T15:15:32.737Z</time>
      </trkpt>
      <trkpt lat="48.62617" lon="-2.83982">
        <ele>66.884882</ele>
        <time>2023-03-24T15:16:05.627Z</time>
      </trkpt>
      <trkpt lat="48.62626" lon="-2.84017">
        <ele>66.492848</ele>
        <time>2023-03-24T15:16:10.370Z</time>
      </trkpt>
      <trkpt lat="48.62629" lon="-2.8403">
        <ele>66.340257</ele>
        <time>2023-03-24T15:16:12.235Z</time>
      </trkpt>
      <trkpt lat="48.62688" lon="-2.84038">
        <ele>65.403405</ele>
        <time>2023-03-24T15:16:27.186Z</time>
      </trkpt>
      <trkpt lat="48.62731" lon="-2.84054">
        <ele>64.684627</ele>
        <time>2023-03-24T15:16:38.733Z</time>
      </trkpt>
      <trkpt lat="48.62857" lon="-2.84116">
        <ele>62.134682</ele>
        <time>2023-03-24T15:17:22.369Z</time>
      </trkpt>
      <trkpt lat="48.62966" lon="-2.84183">
        <ele>59.59451</ele>
        <time>2023-03-24T15:17:59.865Z</time>
      </trkpt>
      <trkpt lat="48.63059" lon="-2.84231">
        <ele>57.140289</ele>
        <time>2023-03-24T15:18:30.838Z</time>
      </trkpt>
      <trkpt lat="48.63094" lon="-2.8424">
        <ele>56.253974</ele>
        <time>2023-03-24T15:18:42.223Z</time>
      </trkpt>
      <trkpt lat="48.63128" lon="-2.84236">
        <ele>55.476674</ele>
        <time>2023-03-24T15:18:53.205Z</time>
      </trkpt>
      <trkpt lat="48.63228" lon="-2.84162">
        <ele>53.099886</ele>
        <time>2023-03-24T15:19:29.899Z</time>
      </trkpt>
      <trkpt lat="48.63245" lon="-2.84154">
        <ele>52.715477</ele>
        <time>2023-03-24T15:19:35.720Z</time>
      </trkpt>
      <trkpt lat="48.63313" lon="-2.84148">
        <ele>50.565545</ele>
        <time>2023-03-24T15:19:56.934Z</time>
      </trkpt>
      <trkpt lat="48.63342" lon="-2.84147">
        <ele>49.333492</ele>
        <time>2023-03-24T15:20:06.001Z</time>
      </trkpt>
      <trkpt lat="48.63464" lon="-2.84147">
        <ele>44.2561</ele>
        <time>2023-03-24T15:20:41.385Z</time>
      </trkpt>
      <trkpt lat="48.63477" lon="-2.84148">
        <ele>43.589379</ele>
        <time>2023-03-24T15:20:45.050Z</time>
      </trkpt>
      <trkpt lat="48.63566" lon="-2.84145">
        <ele>39.067873</ele>
        <time>2023-03-24T15:21:09.734Z</time>
      </trkpt>
      <trkpt lat="48.63587" lon="-2.84138">
        <ele>37.958801</ele>
        <time>2023-03-24T15:21:15.812Z</time>
      </trkpt>
      <trkpt lat="48.63621" lon="-2.84113">
        <ele>36.052232</ele>
        <time>2023-03-24T15:21:26.657Z</time>
      </trkpt>
      <trkpt lat="48.63715" lon="-2.83983">
        <ele>35.568937</ele>
        <time>2023-03-24T15:22:08.970Z</time>
      </trkpt>
      <trkpt lat="48.63737" lon="-2.84007">
        <ele>35.596206</ele>
        <time>2023-03-24T15:22:21.832Z</time>
      </trkpt>
      <trkpt lat="48.63743" lon="-2.84022">
        <ele>35.608086</ele>
        <time>2023-03-24T15:22:27.468Z</time>
      </trkpt>
      <trkpt lat="48.63717" lon="-2.84202">
        <ele>41.029546</ele>
        <time>2023-03-24T15:23:45.595Z</time>
      </trkpt>
      <trkpt lat="48.63716" lon="-2.84323">
        <ele>45.542867</ele>
        <time>2023-03-24T15:24:41.925Z</time>
      </trkpt>
      <trkpt lat="48.63712" lon="-2.84366">
        <ele>46.993978</ele>
        <time>2023-03-24T15:25:01.030Z</time>
      </trkpt>
      <trkpt lat="48.63697" lon="-2.84433">
        <ele>49.315483</ele>
        <time>2023-03-24T15:25:31.794Z</time>
      </trkpt>
      <trkpt lat="48.63685" lon="-2.84512">
        <ele>51.975652</ele>
        <time>2023-03-24T15:26:04.090Z</time>
      </trkpt>
      <trkpt lat="48.63591" lon="-2.84529">
        <ele>55.845955</ele>
        <time>2023-03-24T15:26:44.510Z</time>
      </trkpt>
      <trkpt lat="48.63561" lon="-2.84542">
        <ele>56.774005</ele>
        <time>2023-03-24T15:26:57.232Z</time>
      </trkpt>
      <trkpt lat="48.63543" lon="-2.8456">
        <ele>57.391256</ele>
        <time>2023-03-24T15:27:05.852Z</time>
      </trkpt>
      <trkpt lat="48.6354" lon="-2.84581">
        <ele>57.811818</ele>
        <time>2023-03-24T15:27:10.532Z</time>
      </trkpt>
      <trkpt lat="48.63542" lon="-2.84616">
        <ele>58.500249</ele>
        <time>2023-03-24T15:27:19.360Z</time>
      </trkpt>
      <trkpt lat="48.63582" lon="-2.84679">
        <ele>60.073767</ele>
        <time>2023-03-24T15:27:46.361Z</time>
      </trkpt>
      <trkpt lat="48.6363" lon="-2.84806">
        <ele>61.396408</ele>
        <time>2023-03-24T15:28:29.948Z</time>
      </trkpt>
      <trkpt lat="48.63679" lon="-2.84922">
        <ele>62.488541</ele>
        <time>2023-03-24T15:29:08.100Z</time>
      </trkpt>
      <trkpt lat="48.6369" lon="-2.84954">
        <ele>62.558667</ele>
        <time>2023-03-24T15:29:17.521Z</time>
      </trkpt>
      <trkpt lat="48.63653" lon="-2.84988">
        <ele>62.685991</ele>
        <time>2023-03-24T15:29:34.401Z</time>
      </trkpt>
      <trkpt lat="48.63622" lon="-2.85022">
        <ele>62.795943</ele>
        <time>2023-03-24T15:29:48.737Z</time>
      </trkpt>
      <trkpt lat="48.63664" lon="-2.85116">
        <ele>62.924892</ele>
        <time>2023-03-24T15:30:06.369Z</time>
      </trkpt>
      <trkpt lat="48.63699" lon="-2.85201">
        <ele>62.739136</ele>
        <time>2023-03-24T15:30:21.160Z</time>
      </trkpt>
      <trkpt lat="48.63708" lon="-2.85236">
        <ele>62.668507</ele>
        <time>2023-03-24T15:30:26.462Z</time>
      </trkpt>
      <trkpt lat="48.63732" lon="-2.85316">
        <ele>62.504029</ele>
        <time>2023-03-24T15:30:39.217Z</time>
      </trkpt>
      <trkpt lat="48.63752" lon="-2.85402">
        <ele>62.53546</ele>
        <time>2023-03-24T15:30:52.973Z</time>
      </trkpt>
      <trkpt lat="48.63752" lon="-2.85402">
        <ele>62.53546</ele>
        <time>2023-03-24T15:30:52.977Z</time>
      </trkpt>
      <trkpt lat="48.63755" lon="-2.85429">
        <ele>62.564925</ele>
        <time>2023-03-24T15:30:57.292Z</time>
      </trkpt>
      <trkpt lat="48.63753" lon="-2.85437">
        <ele>62.57489</ele>
        <time>2023-03-24T15:30:58.738Z</time>
      </trkpt>
      <trkpt lat="48.63745" lon="-2.85447">
        <ele>62.591029</ele>
        <time>2023-03-24T15:31:01.190Z</time>
      </trkpt>
      <trkpt lat="48.63668" lon="-2.85491">
        <ele>62.726656</ele>
        <time>2023-03-24T15:31:21.909Z</time>
      </trkpt>
      <trkpt lat="48.63648" lon="-2.85508">
        <ele>62.748028</ele>
        <time>2023-03-24T15:31:27.515Z</time>
      </trkpt>
      <trkpt lat="48.63608" lon="-2.85573">
        <ele>62.649719</ele>
        <time>2023-03-24T15:31:42.105Z</time>
      </trkpt>
      <trkpt lat="48.63595" lon="-2.85606">
        <ele>62.60819</ele>
        <time>2023-03-24T15:31:47.732Z</time>
      </trkpt>
      <trkpt lat="48.63581" lon="-2.85648">
        <ele>62.555467</ele>
        <time>2023-03-24T15:31:54.701Z</time>
      </trkpt>
      <trkpt lat="48.6356" lon="-2.85678">
        <ele>62.507806</ele>
        <time>2023-03-24T15:32:00.879Z</time>
      </trkpt>
      <trkpt lat="48.63553" lon="-2.85697">
        <ele>62.48379</ele>
        <time>2023-03-24T15:32:04.154Z</time>
      </trkpt>
      <trkpt lat="48.63594" lon="-2.85779">
        <ele>62.417254</ele>
        <time>2023-03-24T15:32:18.706Z</time>
      </trkpt>
      <trkpt lat="48.63655" lon="-2.85878">
        <ele>62.350517</ele>
        <time>2023-03-24T15:32:39.327Z</time>
      </trkpt>
      <trkpt lat="48.63676" lon="-2.85922">
        <ele>62.323921</ele>
        <time>2023-03-24T15:32:47.761Z</time>
      </trkpt>
      <trkpt lat="48.6369" lon="-2.85961">
        <ele>62.59117</ele>
        <time>2023-03-24T15:32:55.148Z</time>
      </trkpt>
      <trkpt lat="48.63695" lon="-2.85982">
        <ele>62.742302</ele>
        <time>2023-03-24T15:32:59.846Z</time>
      </trkpt>
      <trkpt lat="48.63772" lon="-2.85942">
        <ele>63.582076</ele>
        <time>2023-03-24T15:33:22.801Z</time>
      </trkpt>
      <trkpt lat="48.63835" lon="-2.85914">
        <ele>64.247963</ele>
        <time>2023-03-24T15:33:42.208Z</time>
      </trkpt>
      <trkpt lat="48.63863" lon="-2.85895">
        <ele>64.517805</ele>
        <time>2023-03-24T15:33:50.207Z</time>
      </trkpt>
      <trkpt lat="48.63864" lon="-2.85909">
        <ele>64.601762</ele>
        <time>2023-03-24T15:33:53.777Z</time>
      </trkpt>
      <trkpt lat="48.6384" lon="-2.8598">
        <ele>65.065021</ele>
        <time>2023-03-24T15:34:15.036Z</time>
      </trkpt>
      <trkpt lat="48.63771" lon="-2.86117">
        <ele>66.069612</ele>
        <time>2023-03-24T15:35:02.521Z</time>
      </trkpt>
      <trkpt lat="48.63771" lon="-2.86117">
        <ele>66.069612</ele>
        <time>2023-03-24T15:35:02.532Z</time>
      </trkpt>
      <trkpt lat="48.63738" lon="-2.862">
        <ele>66.628651</ele>
        <time>2023-03-24T15:35:29.313Z</time>
      </trkpt>
      <trkpt lat="48.63697" lon="-2.8633">
        <ele>67.36205</ele>
        <time>2023-03-24T15:36:08.611Z</time>
      </trkpt>
      <trkpt lat="48.6373" lon="-2.86363">
        <ele>67.388079</ele>
        <time>2023-03-24T15:36:24.334Z</time>
      </trkpt>
      <trkpt lat="48.63745" lon="-2.86368">
        <ele>67.398334</ele>
        <time>2023-03-24T15:36:30.350Z</time>
      </trkpt>
      <trkpt lat="48.6378" lon="-2.86366">
        <ele>67.421524</ele>
        <time>2023-03-24T15:36:43.631Z</time>
      </trkpt>
      <trkpt lat="48.63811" lon="-2.86355">
        <ele>67.442903</ele>
        <time>2023-03-24T15:36:55.463Z</time>
      </trkpt>
      <trkpt lat="48.63823" lon="-2.86347">
        <ele>67.451382</ele>
        <time>2023-03-24T15:37:00.079Z</time>
      </trkpt>
      <trkpt lat="48.63848" lon="-2.8631">
        <ele>67.447553</ele>
        <time>2023-03-24T15:37:12.223Z</time>
      </trkpt>
      <trkpt lat="48.63946" lon="-2.86343">
        <ele>66.550316</ele>
        <time>2023-03-24T15:37:47.318Z</time>
      </trkpt>
      <trkpt lat="48.64009" lon="-2.86353">
        <ele>65.986471</ele>
        <time>2023-03-24T15:38:09.057Z</time>
      </trkpt>
      <trkpt lat="48.6406" lon="-2.86376">
        <ele>65.29451</ele>
        <time>2023-03-24T15:38:27.481Z</time>
      </trkpt>
      <trkpt lat="48.64156" lon="-2.86394">
        <ele>63.924623</ele>
        <time>2023-03-24T15:38:59.863Z</time>
      </trkpt>
      <trkpt lat="48.64177" lon="-2.86436">
        <ele>63.429036</ele>
        <time>2023-03-24T15:39:11.311Z</time>
      </trkpt>
      <trkpt lat="48.64276" lon="-2.86467">
        <ele>61.503495</ele>
        <time>2023-03-24T15:39:44.644Z</time>
      </trkpt>
      <trkpt lat="48.64318" lon="-2.86477">
        <ele>60.664744</ele>
        <time>2023-03-24T15:39:55.318Z</time>
      </trkpt>
      <trkpt lat="48.64325" lon="-2.86483">
        <ele>60.518167</ele>
        <time>2023-03-24T15:39:57.144Z</time>
      </trkpt>
      <trkpt lat="48.64351" lon="-2.86524">
        <ele>59.780303</ele>
        <time>2023-03-24T15:40:06.229Z</time>
      </trkpt>
      <trkpt lat="48.64362" lon="-2.86523">
        <ele>59.702665</ele>
        <time>2023-03-24T15:40:08.833Z</time>
      </trkpt>
      <trkpt lat="48.64376" lon="-2.86511">
        <ele>59.591352</ele>
        <time>2023-03-24T15:40:12.711Z</time>
      </trkpt>
      <trkpt lat="48.64381" lon="-2.86513">
        <ele>59.552782</ele>
        <time>2023-03-24T15:40:14.064Z</time>
      </trkpt>
      <trkpt lat="48.64386" lon="-2.86524">
        <ele>59.492051</ele>
        <time>2023-03-24T15:40:16.201Z</time>
      </trkpt>
      <trkpt lat="48.64386" lon="-2.86575">
        <ele>59.252723</ele>
        <time>2023-03-24T15:40:25.156Z</time>
      </trkpt>
      <trkpt lat="48.64409" lon="-2.86567">
        <ele>59.089821</ele>
        <time>2023-03-24T15:40:29.965Z</time>
      </trkpt>
      <trkpt lat="48.64423" lon="-2.86559">
        <ele>58.978249</ele>
        <time>2023-03-24T15:40:33.223Z</time>
      </trkpt>
      <trkpt lat="48.64458" lon="-2.8653">
        <ele>58.697911</ele>
        <time>2023-03-24T15:40:42.496Z</time>
      </trkpt>
      <trkpt lat="48.64478" lon="-2.86516">
        <ele>58.537914</ele>
        <time>2023-03-24T15:40:49.062Z</time>
      </trkpt>
      <trkpt lat="48.64522" lon="-2.86496">
        <ele>59.361173</ele>
        <time>2023-03-24T15:41:01.229Z</time>
      </trkpt>
      <trkpt lat="48.64556" lon="-2.86465">
        <ele>60.192165</ele>
        <time>2023-03-24T15:41:12.492Z</time>
      </trkpt>
      <trkpt lat="48.64568" lon="-2.86466">
        <ele>60.437127</ele>
        <time>2023-03-24T15:41:16.904Z</time>
      </trkpt>
      <trkpt lat="48.6458" lon="-2.86471">
        <ele>60.700671</ele>
        <time>2023-03-24T15:41:21.713Z</time>
      </trkpt>
      <trkpt lat="48.6459" lon="-2.86467">
        <ele>60.90526</ele>
        <time>2023-03-24T15:41:24.764Z</time>
      </trkpt>
      <trkpt lat="48.64614" lon="-2.86491">
        <ele>61.506296</ele>
        <time>2023-03-24T15:41:36.564Z</time>
      </trkpt>
      <trkpt lat="48.64667" lon="-2.86557">
        <ele>62.911918</ele>
        <time>2023-03-24T15:42:02.506Z</time>
      </trkpt>
      <trkpt lat="48.64683" lon="-2.86583">
        <ele>63.389719</ele>
        <time>2023-03-24T15:42:10.607Z</time>
      </trkpt>
      <trkpt lat="48.6469" lon="-2.86599">
        <ele>63.651375</ele>
        <time>2023-03-24T15:42:15.739Z</time>
      </trkpt>
      <trkpt lat="48.6471" lon="-2.86657">
        <ele>64.529907</ele>
        <time>2023-03-24T15:42:29.807Z</time>
      </trkpt>
      <trkpt lat="48.6472" lon="-2.86657">
        <ele>64.730691</ele>
        <time>2023-03-24T15:42:32.488Z</time>
      </trkpt>
      <trkpt lat="48.64731" lon="-2.86652">
        <ele>64.96522</ele>
        <time>2023-03-24T15:42:36.090Z</time>
      </trkpt>
      <trkpt lat="48.64766" lon="-2.86609">
        <ele>65.880928</ele>
        <time>2023-03-24T15:42:56.171Z</time>
      </trkpt>
      <trkpt lat="48.64822" lon="-2.86529">
        <ele>66.418919</ele>
        <time>2023-03-24T15:43:28.588Z</time>
      </trkpt>
      <trkpt lat="48.64852" lon="-2.86482">
        <ele>66.718558</ele>
        <time>2023-03-24T15:43:46.052Z</time>
      </trkpt>
      <trkpt lat="48.64872" lon="-2.86434">
        <ele>66.978969</ele>
        <time>2023-03-24T15:44:00.537Z</time>
      </trkpt>
      <trkpt lat="48.64872" lon="-2.86434">
        <ele>66.978969</ele>
        <time>2023-03-24T15:44:00.539Z</time>
      </trkpt>
      <trkpt lat="48.64879" lon="-2.86407">
        <ele>67.11306</ele>
        <time>2023-03-24T15:44:07.690Z</time>
      </trkpt>
      <trkpt lat="48.64956" lon="-2.86563">
        <ele>67.183426</ele>
        <time>2023-03-24T15:44:55.218Z</time>
      </trkpt>
      <trkpt lat="48.65004" lon="-2.86625">
        <ele>67.293702</ele>
        <time>2023-03-24T15:45:18.654Z</time>
      </trkpt>
      <trkpt lat="48.65042" lon="-2.86588">
        <ele>67.782533</ele>
        <time>2023-03-24T15:45:36.190Z</time>
      </trkpt>
      <trkpt lat="48.6511" lon="-2.8651">
        <ele>68.709516</ele>
        <time>2023-03-24T15:46:11.927Z</time>
      </trkpt>
      <trkpt lat="48.65212" lon="-2.86465">
        <ele>70.402537</ele>
        <time>2023-03-24T15:47:03.650Z</time>
      </trkpt>
      <trkpt lat="48.65212" lon="-2.86465">
        <ele>70.402537</ele>
        <time>2023-03-24T15:47:03.653Z</time>
      </trkpt>
      <trkpt lat="48.65268" lon="-2.86453">
        <ele>71.490872</ele>
        <time>2023-03-24T15:47:30.838Z</time>
      </trkpt>
      <trkpt lat="48.65281" lon="-2.86515">
        <ele>72.314679</ele>
        <time>2023-03-24T15:47:44.672Z</time>
      </trkpt>
      <trkpt lat="48.65287" lon="-2.86528">
        <ele>72.516783</ele>
        <time>2023-03-24T15:47:47.597Z</time>
      </trkpt>
      <trkpt lat="48.65296" lon="-2.86533">
        <ele>72.575535</ele>
        <time>2023-03-24T15:47:50.804Z</time>
      </trkpt>
      <trkpt lat="48.65309" lon="-2.86522">
        <ele>72.526171</ele>
        <time>2023-03-24T15:47:55.272Z</time>
      </trkpt>
      <trkpt lat="48.65323" lon="-2.86484">
        <ele>72.433778</ele>
        <time>2023-03-24T15:48:07.517Z</time>
      </trkpt>
      <trkpt lat="48.65327" lon="-2.8646">
        <ele>72.382832</ele>
        <time>2023-03-24T15:48:13.898Z</time>
      </trkpt>
      <trkpt lat="48.6533" lon="-2.86421">
        <ele>72.2996</ele>
        <time>2023-03-24T15:48:23.948Z</time>
      </trkpt>
      <trkpt lat="48.65339" lon="-2.86382">
        <ele>72.210914</ele>
        <time>2023-03-24T15:48:33.734Z</time>
      </trkpt>
      <trkpt lat="48.65399" lon="-2.86247">
        <ele>70.620748</ele>
        <time>2023-03-24T15:49:08.481Z</time>
      </trkpt>
      <trkpt lat="48.65419" lon="-2.86217">
        <ele>69.766848</ele>
        <time>2023-03-24T15:49:17.380Z</time>
      </trkpt>
      <trkpt lat="48.65519" lon="-2.86109">
        <ele>66.005951</ele>
        <time>2023-03-24T15:49:54.832Z</time>
      </trkpt>
      <trkpt lat="48.65561" lon="-2.8607">
        <ele>64.330674</ele>
        <time>2023-03-24T15:50:09.036Z</time>
      </trkpt>
      <trkpt lat="48.65626" lon="-2.85996">
        <ele>61.516248</ele>
        <time>2023-03-24T15:50:34.086Z</time>
      </trkpt>
      <trkpt lat="48.65648" lon="-2.85977">
        <ele>60.670048</ele>
        <time>2023-03-24T15:50:41.482Z</time>
      </trkpt>
      <trkpt lat="48.65631" lon="-2.85956">
        <ele>60.181621</ele>
        <time>2023-03-24T15:50:48.555Z</time>
      </trkpt>
      <trkpt lat="48.65549" lon="-2.85884">
        <ele>58.531704</ele>
        <time>2023-03-24T15:51:20.058Z</time>
      </trkpt>
      <trkpt lat="48.65533" lon="-2.85864">
        <ele>58.179914</ele>
        <time>2023-03-24T15:51:26.597Z</time>
      </trkpt>
      <trkpt lat="48.65508" lon="-2.85815">
        <ele>57.471737</ele>
        <time>2023-03-24T15:51:40.841Z</time>
      </trkpt>
      <trkpt lat="48.65478" lon="-2.85735">
        <ele>56.207019</ele>
        <time>2023-03-24T15:52:02.482Z</time>
      </trkpt>
      <trkpt lat="48.65488" lon="-2.85701">
        <ele>55.687557</ele>
        <time>2023-03-24T15:52:10.348Z</time>
      </trkpt>
      <trkpt lat="48.65522" lon="-2.85638">
        <ele>54.539832</ele>
        <time>2023-03-24T15:52:27.345Z</time>
      </trkpt>
      <trkpt lat="48.65543" lon="-2.85609">
        <ele>53.929176</ele>
        <time>2023-03-24T15:52:36.243Z</time>
      </trkpt>
      <trkpt lat="48.65557" lon="-2.85598">
        <ele>53.596625</ele>
        <time>2023-03-24T15:52:40.987Z</time>
      </trkpt>
      <trkpt lat="48.65581" lon="-2.85559">
        <ele>52.590383</ele>
        <time>2023-03-24T15:52:51.708Z</time>
      </trkpt>
      <trkpt lat="48.65614" lon="-2.8552">
        <ele>51.338342</ele>
        <time>2023-03-24T15:53:04.662Z</time>
      </trkpt>
      <trkpt lat="48.65573" lon="-2.85475">
        <ele>49.83988</ele>
        <time>2023-03-24T15:53:13.901Z</time>
      </trkpt>
      <trkpt lat="48.65542" lon="-2.85466">
        <ele>48.877331</ele>
        <time>2023-03-24T15:53:19.645Z</time>
      </trkpt>
      <trkpt lat="48.6547" lon="-2.85426">
        <ele>47.378886</ele>
        <time>2023-03-24T15:53:33.551Z</time>
      </trkpt>
      <trkpt lat="48.65493" lon="-2.8527">
        <ele>45.820809</ele>
        <time>2023-03-24T15:53:54.242Z</time>
      </trkpt>
      <trkpt lat="48.65495" lon="-2.85276">
        <ele>45.754701</ele>
        <time>2023-03-24T15:53:55.537Z</time>
      </trkpt>
      <trkpt lat="48.65523" lon="-2.85298">
        <ele>45.639671</ele>
        <time>2023-03-24T15:54:02.241Z</time>
      </trkpt>
      <trkpt lat="48.65625" lon="-2.8535">
        <ele>46.945614</ele>
        <time>2023-03-24T15:54:31.295Z</time>
      </trkpt>
      <trkpt lat="48.65636" lon="-2.85344">
        <ele>47.08128</ele>
        <time>2023-03-24T15:54:35.785Z</time>
      </trkpt>
      <trkpt lat="48.6564" lon="-2.85356">
        <ele>47.186872</ele>
        <time>2023-03-24T15:54:38.511Z</time>
      </trkpt>
      <trkpt lat="48.65654" lon="-2.85348">
        <ele>47.359834</ele>
        <time>2023-03-24T15:54:43.479Z</time>
      </trkpt>
      <trkpt lat="48.65715" lon="-2.85329">
        <ele>48.951793</ele>
        <time>2023-03-24T15:55:06.961Z</time>
      </trkpt>
      <trkpt lat="48.65809" lon="-2.85267">
        <ele>52.419571</ele>
        <time>2023-03-24T15:55:49.736Z</time>
      </trkpt>
      <trkpt lat="48.65802" lon="-2.85243">
        <ele>53.007614</ele>
        <time>2023-03-24T15:55:56.739Z</time>
      </trkpt>
      <trkpt lat="48.65823" lon="-2.85226">
        <ele>53.788895</ele>
        <time>2023-03-24T15:56:07.131Z</time>
      </trkpt>
      <trkpt lat="48.65854" lon="-2.852">
        <ele>54.477496</ele>
        <time>2023-03-24T15:56:21.325Z</time>
      </trkpt>
      <trkpt lat="48.65922" lon="-2.8516">
        <ele>55.91339</ele>
        <time>2023-03-24T15:56:47.232Z</time>
      </trkpt>
      <trkpt lat="48.65944" lon="-2.85142">
        <ele>56.390954</ele>
        <time>2023-03-24T15:56:54.773Z</time>
      </trkpt>
      <trkpt lat="48.65954" lon="-2.85132">
        <ele>56.633708</ele>
        <time>2023-03-24T15:56:58.269Z</time>
      </trkpt>
      <trkpt lat="48.65993" lon="-2.85073">
        <ele>56.993941</ele>
        <time>2023-03-24T15:57:10.971Z</time>
      </trkpt>
      <trkpt lat="48.66037" lon="-2.84991">
        <ele>56.181535</ele>
        <time>2023-03-24T15:57:25.682Z</time>
      </trkpt>
      <trkpt lat="48.66045" lon="-2.84983">
        <ele>56.074771</ele>
        <time>2023-03-24T15:57:27.562Z</time>
      </trkpt>
      <trkpt lat="48.66071" lon="-2.85028">
        <ele>55.613014</ele>
        <time>2023-03-24T15:57:40.609Z</time>
      </trkpt>
      <trkpt lat="48.66122" lon="-2.85088">
        <ele>54.484212</ele>
        <time>2023-03-24T15:58:01.428Z</time>
      </trkpt>
      <trkpt lat="48.66151" lon="-2.85104">
        <ele>53.660443</ele>
        <time>2023-03-24T15:58:11.121Z</time>
      </trkpt>
      <trkpt lat="48.66176" lon="-2.85104">
        <ele>52.9991</ele>
        <time>2023-03-24T15:58:18.781Z</time>
      </trkpt>
      <trkpt lat="48.66199" lon="-2.85039">
        <ele>51.721312</ele>
        <time>2023-03-24T15:58:33.920Z</time>
      </trkpt>
      <trkpt lat="48.66224" lon="-2.84986">
        <ele>50.577698</ele>
        <time>2023-03-24T15:58:47.563Z</time>
      </trkpt>
      <trkpt lat="48.66237" lon="-2.84976">
        <ele>50.257697</ele>
        <time>2023-03-24T15:58:49.960Z</time>
      </trkpt>
      <trkpt lat="48.6628" lon="-2.84955">
        <ele>49.388571</ele>
        <time>2023-03-24T15:58:58.306Z</time>
      </trkpt>
      <trkpt lat="48.6628" lon="-2.84955">
        <ele>49.388571</ele>
        <time>2023-03-24T15:58:58.313Z</time>
      </trkpt>
      <trkpt lat="48.66332" lon="-2.84913">
        <ele>48.272879</ele>
        <time>2023-03-24T15:59:08.937Z</time>
      </trkpt>
      <trkpt lat="48.66336" lon="-2.84927">
        <ele>48.071992</ele>
        <time>2023-03-24T15:59:10.977Z</time>
      </trkpt>
      <trkpt lat="48.66343" lon="-2.84951">
        <ele>47.748598</ele>
        <time>2023-03-24T15:59:14.360Z</time>
      </trkpt>
      <trkpt lat="48.66366" lon="-2.85083">
        <ele>45.260895</ele>
        <time>2023-03-24T15:59:32.092Z</time>
      </trkpt>
      <trkpt lat="48.66396" lon="-2.85201">
        <ele>42.391286</ele>
        <time>2023-03-24T15:59:46.424Z</time>
      </trkpt>
      <trkpt lat="48.66401" lon="-2.85218">
        <ele>41.979231</ele>
        <time>2023-03-24T15:59:48.438Z</time>
      </trkpt>
      <trkpt lat="48.66427" lon="-2.85263">
        <ele>40.32507</ele>
        <time>2023-03-24T15:59:54.633Z</time>
      </trkpt>
      <trkpt lat="48.66453" lon="-2.85289">
        <ele>37.645531</ele>
        <time>2023-03-24T15:59:59.203Z</time>
      </trkpt>
      <trkpt lat="48.66475" lon="-2.85302">
        <ele>35.54893</ele>
        <time>2023-03-24T16:00:02.656Z</time>
      </trkpt>
      <trkpt lat="48.66505" lon="-2.85313">
        <ele>32.92483</ele>
        <time>2023-03-24T16:00:06.968Z</time>
      </trkpt>
      <trkpt lat="48.66527" lon="-2.85328">
        <ele>30.816083</ele>
        <time>2023-03-24T16:00:10.431Z</time>
      </trkpt>
      <trkpt lat="48.66604" lon="-2.8542">
        <ele>23.338271</ele>
        <time>2023-03-24T16:00:24.321Z</time>
      </trkpt>
      <trkpt lat="48.66674" lon="-2.85505">
        <ele>18.395157</ele>
        <time>2023-03-24T16:00:38.082Z</time>
      </trkpt>
      <trkpt lat="48.66681" lon="-2.85482">
        <ele>17.47215</ele>
        <time>2023-03-24T16:00:40.852Z</time>
      </trkpt>
      <trkpt lat="48.66697" lon="-2.85431">
        <ele>15.45764</ele>
        <time>2023-03-24T16:00:47.746Z</time>
      </trkpt>
      <trkpt lat="48.667" lon="-2.85421">
        <ele>15.350837</ele>
        <time>2023-03-24T16:00:49.647Z</time>
      </trkpt>
      <trkpt lat="48.66709" lon="-2.85432">
        <ele>15.554699</ele>
        <time>2023-03-24T16:00:57.497Z</time>
      </trkpt>
      <trkpt lat="48.66719" lon="-2.85437">
        <ele>15.755532</ele>
        <time>2023-03-24T16:01:05.185Z</time>
      </trkpt>
      <trkpt lat="48.66682" lon="-2.8551">
        <ele>16.861848</ele>
        <time>2023-03-24T16:01:47.639Z</time>
      </trkpt>
      <trkpt lat="48.6668" lon="-2.85536">
        <ele>17.176513</ele>
        <time>2023-03-24T16:01:59.719Z</time>
      </trkpt>
      <trkpt lat="48.66673" lon="-2.85548">
        <ele>17.363034</ele>
        <time>2023-03-24T16:02:06.847Z</time>
      </trkpt>
      <trkpt lat="48.66668" lon="-2.85576">
        <ele>17.714423</ele>
        <time>2023-03-24T16:02:20.363Z</time>
      </trkpt>
      <trkpt lat="48.66662" lon="-2.85587">
        <ele>17.877086</ele>
        <time>2023-03-24T16:02:26.558Z</time>
      </trkpt>
      <trkpt lat="48.66657" lon="-2.85607">
        <ele>18.136873</ele>
        <time>2023-03-24T16:02:36.550Z</time>
      </trkpt>
      <trkpt lat="48.66657" lon="-2.85607">
        <ele>18.136873</ele>
        <time>2023-03-24T16:02:36.556Z</time>
      </trkpt>
      <trkpt lat="48.66647" lon="-2.85625">
        <ele>18.419977</ele>
        <time>2023-03-24T16:02:47.410Z</time>
      </trkpt>
      <trkpt lat="48.66633" lon="-2.85682">
        <ele>19.518321</ele>
        <time>2023-03-24T16:03:15.411Z</time>
      </trkpt>
      <trkpt lat="48.66631" lon="-2.85719">
        <ele>20.222085</ele>
        <time>2023-03-24T16:03:32.248Z</time>
      </trkpt>
      <trkpt lat="48.66635" lon="-2.85755">
        <ele>20.932826</ele>
        <time>2023-03-24T16:03:49.321Z</time>
      </trkpt>
      <trkpt lat="48.66635" lon="-2.8577">
        <ele>21.224335</ele>
        <time>2023-03-24T16:03:56.278Z</time>
      </trkpt>
      <trkpt lat="48.66611" lon="-2.85895">
        <ele>23.70439</ele>
        <time>2023-03-24T16:04:55.694Z</time>
      </trkpt>
      <trkpt lat="48.66598" lon="-2.85948">
        <ele>24.662474</ele>
        <time>2023-03-24T16:05:21.659Z</time>
      </trkpt>
      <trkpt lat="48.66591" lon="-2.85997">
        <ele>25.517104</ele>
        <time>2023-03-24T16:05:44.960Z</time>
      </trkpt>
      <trkpt lat="48.66591" lon="-2.85997">
        <ele>25.517104</ele>
        <time>2023-03-24T16:05:44.978Z</time>
      </trkpt>
      <trkpt lat="48.66592" lon="-2.86023">
        <ele>25.95201</ele>
        <time>2023-03-24T16:05:56.809Z</time>
      </trkpt>
      <trkpt lat="48.66608" lon="-2.86066">
        <ele>26.77322</ele>
        <time>2023-03-24T16:06:19.186Z</time>
      </trkpt>
      <trkpt lat="48.66606" lon="-2.8607">
        <ele>26.872987</ele>
        <time>2023-03-24T16:06:21.940Z</time>
      </trkpt>
      <trkpt lat="48.66616" lon="-2.86095">
        <ele>27.353592</ele>
        <time>2023-03-24T16:06:28.664Z</time>
      </trkpt>
      <trkpt lat="48.66657" lon="-2.86126">
        <ele>28.513972</ele>
        <time>2023-03-24T16:06:45.818Z</time>
      </trkpt>
      <trkpt lat="48.66707" lon="-2.86112">
        <ele>29.656025</ele>
        <time>2023-03-24T16:07:04.289Z</time>
      </trkpt>
      <trkpt lat="48.66711" lon="-2.86111">
        <ele>29.759354</ele>
        <time>2023-03-24T16:07:05.860Z</time>
      </trkpt>
      <trkpt lat="48.6678" lon="-2.86093">
        <ele>31.33485</ele>
        <time>2023-03-24T16:07:29.303Z</time>
      </trkpt>
      <trkpt lat="48.66805" lon="-2.86082">
        <ele>31.935897</ele>
        <time>2023-03-24T16:07:38.092Z</time>
      </trkpt>
      <trkpt lat="48.66861" lon="-2.86145">
        <ele>32.507559</ele>
        <time>2023-03-24T16:07:58.370Z</time>
      </trkpt>
      <trkpt lat="48.66957" lon="-2.86236">
        <ele>32.719008</ele>
        <time>2023-03-24T16:08:23.005Z</time>
      </trkpt>
      <trkpt lat="48.66977" lon="-2.86254">
        <ele>32.7228</ele>
        <time>2023-03-24T16:08:27.595Z</time>
      </trkpt>
      <trkpt lat="48.67044" lon="-2.86307">
        <ele>32.281897</ele>
        <time>2023-03-24T16:08:42.447Z</time>
      </trkpt>
      <trkpt lat="48.67052" lon="-2.86314">
        <ele>32.226095</ele>
        <time>2023-03-24T16:08:44.310Z</time>
      </trkpt>
      <trkpt lat="48.671" lon="-2.8635">
        <ele>31.913538</ele>
        <time>2023-03-24T16:08:55.720Z</time>
      </trkpt>
      <trkpt lat="48.6711" lon="-2.86357">
        <ele>31.850435</ele>
        <time>2023-03-24T16:08:57.857Z</time>
      </trkpt>
      <trkpt lat="48.6714" lon="-2.86381">
        <ele>31.889274</ele>
        <time>2023-03-24T16:09:05.471Z</time>
      </trkpt>
      <trkpt lat="48.67148" lon="-2.86387">
        <ele>32.088658</ele>
        <time>2023-03-24T16:09:07.256Z</time>
      </trkpt>
      <trkpt lat="48.67148" lon="-2.86393">
        <ele>32.181319</ele>
        <time>2023-03-24T16:09:10.050Z</time>
      </trkpt>
      <trkpt lat="48.67149" lon="-2.86399">
        <ele>32.275099</ele>
        <time>2023-03-24T16:09:12.972Z</time>
      </trkpt>
      <trkpt lat="48.67136" lon="-2.86437">
        <ele>32.910852</ele>
        <time>2023-03-24T16:09:24.165Z</time>
      </trkpt>
      <trkpt lat="48.67136" lon="-2.86464">
        <ele>33.316488</ele>
        <time>2023-03-24T16:09:32.149Z</time>
      </trkpt>
      <trkpt lat="48.67142" lon="-2.86491">
        <ele>33.75644</ele>
        <time>2023-03-24T16:09:40.227Z</time>
      </trkpt>
      <trkpt lat="48.67146" lon="-2.86493">
        <ele>33.835233</ele>
        <time>2023-03-24T16:09:41.501Z</time>
      </trkpt>
      <trkpt lat="48.67147" lon="-2.86512">
        <ele>34.121658</ele>
        <time>2023-03-24T16:09:50.273Z</time>
      </trkpt>
      <trkpt lat="48.67144" lon="-2.86526">
        <ele>34.341371</ele>
        <time>2023-03-24T16:09:57.032Z</time>
      </trkpt>
      <trkpt lat="48.67133" lon="-2.8656">
        <ele>34.910069</ele>
        <time>2023-03-24T16:10:14.482Z</time>
      </trkpt>
      <trkpt lat="48.67123" lon="-2.86582">
        <ele>35.306089</ele>
        <time>2023-03-24T16:10:26.644Z</time>
      </trkpt>
      <trkpt lat="48.6712" lon="-2.86601">
        <ele>35.609117</ele>
        <time>2023-03-24T16:10:35.930Z</time>
      </trkpt>
      <trkpt lat="48.67117" lon="-2.86637">
        <ele>36.711775</ele>
        <time>2023-03-24T16:10:52.535Z</time>
      </trkpt>
      <trkpt lat="48.67125" lon="-2.8666">
        <ele>37.70067</ele>
        <time>2023-03-24T16:11:04.661Z</time>
      </trkpt>
      <trkpt lat="48.67129" lon="-2.86678">
        <ele>38.397885</ele>
        <time>2023-03-24T16:11:13.176Z</time>
      </trkpt>
      <trkpt lat="48.67122" lon="-2.86706">
        <ele>39.529255</ele>
        <time>2023-03-24T16:11:27.027Z</time>
      </trkpt>
      <trkpt lat="48.67098" lon="-2.86749">
        <ele>41.651441</ele>
        <time>2023-03-24T16:11:53.013Z</time>
      </trkpt>
      <trkpt lat="48.67066" lon="-2.86796">
        <ele>44.183301</ele>
        <time>2023-03-24T16:12:23.960Z</time>
      </trkpt>
      <trkpt lat="48.67042" lon="-2.86814">
        <ele>45.719852</ele>
        <time>2023-03-24T16:12:42.816Z</time>
      </trkpt>
      <trkpt lat="48.67014" lon="-2.8683">
        <ele>47.101717</ele>
        <time>2023-03-24T16:13:03.580Z</time>
      </trkpt>
      <trkpt lat="48.67013" lon="-2.86884">
        <ele>48.683369</ele>
        <time>2023-03-24T16:13:21.746Z</time>
      </trkpt>
      <trkpt lat="48.6699" lon="-2.87081">
        <ele>54.183288</ele>
        <time>2023-03-24T16:14:15.298Z</time>
      </trkpt>
      <trkpt lat="48.66985" lon="-2.87178">
        <ele>55.400604</ele>
        <time>2023-03-24T16:14:36.196Z</time>
      </trkpt>
      <trkpt lat="48.66965" lon="-2.87311">
        <ele>57.096658</ele>
        <time>2023-03-24T16:15:03.098Z</time>
      </trkpt>
      <trkpt lat="48.66951" lon="-2.87381">
        <ele>57.3307</ele>
        <time>2023-03-24T16:15:15.481Z</time>
      </trkpt>
      <trkpt lat="48.66933" lon="-2.87431">
        <ele>57.328655</ele>
        <time>2023-03-24T16:15:25.345Z</time>
      </trkpt>
      <trkpt lat="48.66923" lon="-2.8745">
        <ele>57.327774</ele>
        <time>2023-03-24T16:15:29.063Z</time>
      </trkpt>
      <trkpt lat="48.66929" lon="-2.87457">
        <ele>57.327325</ele>
        <time>2023-03-24T16:15:30.707Z</time>
      </trkpt>
      <trkpt lat="48.66926" lon="-2.87491">
        <ele>57.326122</ele>
        <time>2023-03-24T16:15:38.887Z</time>
      </trkpt>
      <trkpt lat="48.66929" lon="-2.87555">
        <ele>57.323838</ele>
        <time>2023-03-24T16:15:53.780Z</time>
      </trkpt>
      <trkpt lat="48.66912" lon="-2.87591">
        <ele>57.076838</ele>
        <time>2023-03-24T16:16:04.017Z</time>
      </trkpt>
      <trkpt lat="48.66905" lon="-2.87602">
        <ele>56.870685</ele>
        <time>2023-03-24T16:16:07.468Z</time>
      </trkpt>
      <trkpt lat="48.66898" lon="-2.87606">
        <ele>56.72216</ele>
        <time>2023-03-24T16:16:09.955Z</time>
      </trkpt>
      <trkpt lat="48.6689" lon="-2.87618">
        <ele>56.496861</ele>
        <time>2023-03-24T16:16:13.946Z</time>
      </trkpt>
      <trkpt lat="48.66908" lon="-2.87633">
        <ele>56.076497</ele>
        <time>2023-03-24T16:16:17.890Z</time>
      </trkpt>
      <trkpt lat="48.66947" lon="-2.87675">
        <ele>55.118359</ele>
        <time>2023-03-24T16:16:26.717Z</time>
      </trkpt>
      <trkpt lat="48.6699" lon="-2.87712">
        <ele>54.127969</ele>
        <time>2023-03-24T16:16:35.680Z</time>
      </trkpt>
      <trkpt lat="48.67003" lon="-2.87718">
        <ele>53.855548</ele>
        <time>2023-03-24T16:16:37.890Z</time>
      </trkpt>
      <trkpt lat="48.6706" lon="-2.87728">
        <ele>51.683739</ele>
        <time>2023-03-24T16:16:47.542Z</time>
      </trkpt>
      <trkpt lat="48.67086" lon="-2.87741">
        <ele>50.546055</ele>
        <time>2023-03-24T16:16:52.162Z</time>
      </trkpt>
      <trkpt lat="48.67116" lon="-2.87785">
        <ele>48.876796</ele>
        <time>2023-03-24T16:17:04.542Z</time>
      </trkpt>
      <trkpt lat="48.67131" lon="-2.87806">
        <ele>48.040815</ele>
        <time>2023-03-24T16:17:10.517Z</time>
      </trkpt>
      <trkpt lat="48.67174" lon="-2.8785">
        <ele>45.58852</ele>
        <time>2023-03-24T16:17:26.109Z</time>
      </trkpt>
      <trkpt lat="48.67235" lon="-2.87904">
        <ele>40.778814</ele>
        <time>2023-03-24T16:17:45.268Z</time>
      </trkpt>
      <trkpt lat="48.67279" lon="-2.87949">
        <ele>37.139943</ele>
        <time>2023-03-24T16:17:59.359Z</time>
      </trkpt>
      <trkpt lat="48.67312" lon="-2.87992">
        <ele>34.177566</ele>
        <time>2023-03-24T16:18:11.299Z</time>
      </trkpt>
      <trkpt lat="48.67316" lon="-2.88001">
        <ele>33.694005</ele>
        <time>2023-03-24T16:18:13.230Z</time>
      </trkpt>
      <trkpt lat="48.67349" lon="-2.88038">
        <ele>31.161611</ele>
        <time>2023-03-24T16:18:24.463Z</time>
      </trkpt>
      <trkpt lat="48.67373" lon="-2.88058">
        <ele>29.483005</ele>
        <time>2023-03-24T16:18:32.217Z</time>
      </trkpt>
      <trkpt lat="48.67395" lon="-2.88067">
        <ele>28.079751</ele>
        <time>2023-03-24T16:18:38.611Z</time>
      </trkpt>
      <trkpt lat="48.67405" lon="-2.88068">
        <ele>27.493665</ele>
        <time>2023-03-24T16:18:41.288Z</time>
      </trkpt>
      <trkpt lat="48.67417" lon="-2.88059">
        <ele>26.629949</ele>
        <time>2023-03-24T16:18:44.912Z</time>
      </trkpt>
      <trkpt lat="48.67426" lon="-2.88069">
        <ele>25.969264</ele>
        <time>2023-03-24T16:18:47.897Z</time>
      </trkpt>
      <trkpt lat="48.67426" lon="-2.88069">
        <ele>25.969264</ele>
        <time>2023-03-24T16:18:47.990Z</time>
      </trkpt>
      <trkpt lat="48.67426" lon="-2.88069">
        <ele>25.969264</ele>
        <time>2023-03-24T16:18:47.990Z</time>
      </trkpt>
      <trkpt lat="48.67434" lon="-2.88053">
        <ele>25.14101</ele>
        <time>2023-03-24T16:18:51.474Z</time>
      </trkpt>
      <trkpt lat="48.6747" lon="-2.88062">
        <ele>22.959471</ele>
        <time>2023-03-24T16:19:00.861Z</time>
      </trkpt>
      <trkpt lat="48.67474" lon="-2.88065">
        <ele>22.813223</ele>
        <time>2023-03-24T16:19:02.033Z</time>
      </trkpt>
      <trkpt lat="48.67476" lon="-2.88067">
        <ele>22.725278</ele>
        <time>2023-03-24T16:19:02.737Z</time>
      </trkpt>
      <trkpt lat="48.67481" lon="-2.88073">
        <ele>22.509994</ele>
        <time>2023-03-24T16:19:04.461Z</time>
      </trkpt>
      <trkpt lat="48.67487" lon="-2.88081">
        <ele>22.263457</ele>
        <time>2023-03-24T16:19:06.434Z</time>
      </trkpt>
      <trkpt lat="48.67493" lon="-2.8809">
        <ele>21.993087</ele>
        <time>2023-03-24T16:19:08.597Z</time>
      </trkpt>
      <trkpt lat="48.67518" lon="-2.88121">
        <ele>20.95685</ele>
        <time>2023-03-24T16:19:16.886Z</time>
      </trkpt>
      <trkpt lat="48.67521" lon="-2.88126">
        <ele>20.802758</ele>
        <time>2023-03-24T16:19:18.121Z</time>
      </trkpt>
      <trkpt lat="48.67525" lon="-2.88131">
        <ele>20.650484</ele>
        <time>2023-03-24T16:19:19.339Z</time>
      </trkpt>
      <trkpt lat="48.67532" lon="-2.88141">
        <ele>20.336091</ele>
        <time>2023-03-24T16:19:21.855Z</time>
      </trkpt>
      <trkpt lat="48.67543" lon="-2.88155">
        <ele>19.855552</ele>
        <time>2023-03-24T16:19:25.698Z</time>
      </trkpt>
      <trkpt lat="48.67551" lon="-2.88166">
        <ele>19.52967</ele>
        <time>2023-03-24T16:19:28.306Z</time>
      </trkpt>
      <trkpt lat="48.67558" lon="-2.88176">
        <ele>19.198022</ele>
        <time>2023-03-24T16:19:30.961Z</time>
      </trkpt>
      <trkpt lat="48.67565" lon="-2.88187">
        <ele>18.865104</ele>
        <time>2023-03-24T16:19:33.625Z</time>
      </trkpt>
      <trkpt lat="48.67581" lon="-2.88209">
        <ele>18.183042</ele>
        <time>2023-03-24T16:19:39.084Z</time>
      </trkpt>
      <trkpt lat="48.67588" lon="-2.88221">
        <ele>17.834949</ele>
        <time>2023-03-24T16:19:41.869Z</time>
      </trkpt>
      <trkpt lat="48.67592" lon="-2.88227">
        <ele>17.65973</ele>
        <time>2023-03-24T16:19:43.271Z</time>
      </trkpt>
      <trkpt lat="48.67604" lon="-2.88243">
        <ele>17.151353</ele>
        <time>2023-03-24T16:19:47.475Z</time>
      </trkpt>
      <trkpt lat="48.67616" lon="-2.88259">
        <ele>16.763359</ele>
        <time>2023-03-24T16:19:51.652Z</time>
      </trkpt>
      <trkpt lat="48.67646" lon="-2.88296">
        <ele>15.850213</ele>
        <time>2023-03-24T16:20:01.484Z</time>
      </trkpt>
      <trkpt lat="48.67659" lon="-2.8831">
        <ele>15.462343</ele>
        <time>2023-03-24T16:20:05.663Z</time>
      </trkpt>
      <trkpt lat="48.67671" lon="-2.88325">
        <ele>15.082141</ele>
        <time>2023-03-24T16:20:09.756Z</time>
      </trkpt>
      <trkpt lat="48.67693" lon="-2.88347">
        <ele>14.454311</ele>
        <time>2023-03-24T16:20:16.517Z</time>
      </trkpt>
      <trkpt lat="48.67697" lon="-2.88352">
        <ele>14.328854</ele>
        <time>2023-03-24T16:20:17.867Z</time>
      </trkpt>
      <trkpt lat="48.67701" lon="-2.88357">
        <ele>14.20625</ele>
        <time>2023-03-24T16:20:19.187Z</time>
      </trkpt>
      <trkpt lat="48.67705" lon="-2.88362">
        <ele>14.087121</ele>
        <time>2023-03-24T16:20:20.470Z</time>
      </trkpt>
      <trkpt lat="48.67708" lon="-2.88368">
        <ele>13.971493</ele>
        <time>2023-03-24T16:20:21.719Z</time>
      </trkpt>
      <trkpt lat="48.6771" lon="-2.88374">
        <ele>13.856321</ele>
        <time>2023-03-24T16:20:22.959Z</time>
      </trkpt>
      <trkpt lat="48.67712" lon="-2.8838">
        <ele>13.74467</ele>
        <time>2023-03-24T16:20:24.161Z</time>
      </trkpt>
      <trkpt lat="48.67721" lon="-2.88402">
        <ele>13.337593</ele>
        <time>2023-03-24T16:20:28.543Z</time>
      </trkpt>
      <trkpt lat="48.67722" lon="-2.88408">
        <ele>13.24173</ele>
        <time>2023-03-24T16:20:29.575Z</time>
      </trkpt>
      <trkpt lat="48.67724" lon="-2.88413">
        <ele>13.14607</ele>
        <time>2023-03-24T16:20:30.605Z</time>
      </trkpt>
      <trkpt lat="48.67726" lon="-2.88418">
        <ele>13.054682</ele>
        <time>2023-03-24T16:20:31.594Z</time>
      </trkpt>
      <trkpt lat="48.67727" lon="-2.88418">
        <ele>13.034442</ele>
        <time>2023-03-24T16:20:31.812Z</time>
      </trkpt>
      <trkpt lat="48.67723" lon="-2.88434">
        <ele>12.978126</ele>
        <time>2023-03-24T16:20:34.520Z</time>
      </trkpt>
      <trkpt lat="48.67723" lon="-2.88467">
        <ele>13.520505</ele>
        <time>2023-03-24T16:20:40.258Z</time>
      </trkpt>
      <trkpt lat="48.67723" lon="-2.88467">
        <ele>13.520505</ele>
        <time>2023-03-24T16:20:40.331Z</time>
      </trkpt>
      <trkpt lat="48.67725" lon="-2.88552">
        <ele>14.885105</ele>
        <time>2023-03-24T16:20:58.179Z</time>
      </trkpt>
      <trkpt lat="48.67665" lon="-2.88551">
        <ele>16.359143</ele>
        <time>2023-03-24T16:21:21.301Z</time>
      </trkpt>
      <trkpt lat="48.67595" lon="-2.88556">
        <ele>19.360303</ele>
        <time>2023-03-24T16:21:55.821Z</time>
      </trkpt>
      <trkpt lat="48.6759" lon="-2.88563">
        <ele>19.808475</ele>
        <time>2023-03-24T16:22:00.193Z</time>
      </trkpt>
      <trkpt lat="48.6759" lon="-2.88652">
        <ele>23.636522</ele>
        <time>2023-03-24T16:22:42.248Z</time>
      </trkpt>
      <trkpt lat="48.67593" lon="-2.88695">
        <ele>25.511286</ele>
        <time>2023-03-24T16:23:04.792Z</time>
      </trkpt>
      <trkpt lat="48.67587" lon="-2.88754">
        <ele>28.05491</ele>
        <time>2023-03-24T16:23:34.182Z</time>
      </trkpt>
      <trkpt lat="48.67537" lon="-2.88908">
        <ele>33.263787</ele>
        <time>2023-03-24T16:24:46.218Z</time>
      </trkpt>
      <trkpt lat="48.67519" lon="-2.89031">
        <ele>36.635407</ele>
        <time>2023-03-24T16:25:33.617Z</time>
      </trkpt>
      <trkpt lat="48.6752" lon="-2.89082">
        <ele>35.742792</ele>
        <time>2023-03-24T16:25:45.488Z</time>
      </trkpt>
      <trkpt lat="48.67527" lon="-2.89163">
        <ele>34.300561</ele>
        <time>2023-03-24T16:26:03.096Z</time>
      </trkpt>
      <trkpt lat="48.67527" lon="-2.89206">
        <ele>33.528372</ele>
        <time>2023-03-24T16:26:12.172Z</time>
      </trkpt>
      <trkpt lat="48.67574" lon="-2.89278">
        <ele>31.768296</ele>
        <time>2023-03-24T16:26:30.718Z</time>
      </trkpt>
      <trkpt lat="48.6761" lon="-2.8932">
        <ele>30.797366</ele>
        <time>2023-03-24T16:26:43.278Z</time>
      </trkpt>
      <trkpt lat="48.6762" lon="-2.89329">
        <ele>30.541533</ele>
        <time>2023-03-24T16:26:46.364Z</time>
      </trkpt>
      <trkpt lat="48.67634" lon="-2.89329">
        <ele>30.254759</ele>
        <time>2023-03-24T16:26:50.592Z</time>
      </trkpt>
      <trkpt lat="48.67661" lon="-2.89324">
        <ele>29.663322</ele>
        <time>2023-03-24T16:26:58.851Z</time>
      </trkpt>
      <trkpt lat="48.6768" lon="-2.8933">
        <ele>29.246749</ele>
        <time>2023-03-24T16:27:04.969Z</time>
      </trkpt>
      <trkpt lat="48.67694" lon="-2.89321">
        <ele>28.932248</ele>
        <time>2023-03-24T16:27:11.638Z</time>
      </trkpt>
      <trkpt lat="48.67724" lon="-2.89301">
        <ele>28.239921</ele>
        <time>2023-03-24T16:27:27.561Z</time>
      </trkpt>
      <trkpt lat="48.67729" lon="-2.89301">
        <ele>28.118021</ele>
        <time>2023-03-24T16:27:33.187Z</time>
      </trkpt>
      <trkpt lat="48.67735" lon="-2.89302">
        <ele>28.332359</ele>
        <time>2023-03-24T16:27:37.127Z</time>
      </trkpt>
      <trkpt lat="48.67741" lon="-2.893">
        <ele>28.980287</ele>
        <time>2023-03-24T16:27:41.187Z</time>
      </trkpt>
      <trkpt lat="48.67741" lon="-2.89329">
        <ele>30.841361</ele>
        <time>2023-03-24T16:27:49.080Z</time>
      </trkpt>
      <trkpt lat="48.6776" lon="-2.89338">
        <ele>32.837195</ele>
        <time>2023-03-24T16:28:01.288Z</time>
      </trkpt>
      <trkpt lat="48.67771" lon="-2.89337">
        <ele>33.919106</ele>
        <time>2023-03-24T16:28:04.968Z</time>
      </trkpt>
      <trkpt lat="48.67778" lon="-2.89338">
        <ele>34.611375</ele>
        <time>2023-03-24T16:28:12.997Z</time>
      </trkpt>
      <trkpt lat="48.67836" lon="-2.8938">
        <ele>40.825839</ele>
        <time>2023-03-24T16:29:10.642Z</time>
      </trkpt>
      <trkpt lat="48.67941" lon="-2.89445">
        <ele>52.846119</ele>
        <time>2023-03-24T16:31:17.122Z</time>
      </trkpt>
      <trkpt lat="48.67956" lon="-2.89449">
        <ele>54.582777</ele>
        <time>2023-03-24T16:31:32.964Z</time>
      </trkpt>
      <trkpt lat="48.67985" lon="-2.89509">
        <ele>60.041588</ele>
        <time>2023-03-24T16:32:14.883Z</time>
      </trkpt>
      <trkpt lat="48.68103" lon="-2.89727">
        <ele>75.40384</ele>
        <time>2023-03-24T16:34:38.196Z</time>
      </trkpt>
      <trkpt lat="48.68145" lon="-2.89754">
        <ele>78.643133</ele>
        <time>2023-03-24T16:35:06.674Z</time>
      </trkpt>
      <trkpt lat="48.68129" lon="-2.898">
        <ele>80.10008</ele>
        <time>2023-03-24T16:35:27.440Z</time>
      </trkpt>
      <trkpt lat="48.68101" lon="-2.89841">
        <ele>81.763388</ele>
        <time>2023-03-24T16:35:51.061Z</time>
      </trkpt>
      <trkpt lat="48.68047" lon="-2.89964">
        <ele>85.930094</ele>
        <time>2023-03-24T16:36:46.088Z</time>
      </trkpt>
      <trkpt lat="48.6807" lon="-2.89989">
        <ele>86.925984</ele>
        <time>2023-03-24T16:36:57.436Z</time>
      </trkpt>
      <trkpt lat="48.68095" lon="-2.90028">
        <ele>88.11596</ele>
        <time>2023-03-24T16:37:11.350Z</time>
      </trkpt>
      <trkpt lat="48.6818" lon="-2.9011">
        <ele>91.479553</ele>
        <time>2023-03-24T16:37:51.715Z</time>
      </trkpt>
      <trkpt lat="48.68224" lon="-2.90136">
        <ele>92.966963</ele>
        <time>2023-03-24T16:38:09.584Z</time>
      </trkpt>
      <trkpt lat="48.68303" lon="-2.90152">
        <ele>95.347299</ele>
        <time>2023-03-24T16:38:40.121Z</time>
      </trkpt>
      <trkpt lat="48.68326" lon="-2.90081">
        <ele>96.929263</ele>
        <time>2023-03-24T16:39:00.224Z</time>
      </trkpt>
      <trkpt lat="48.68348" lon="-2.90042">
        <ele>97.849744</ele>
        <time>2023-03-24T16:39:12.874Z</time>
      </trkpt>
      <trkpt lat="48.68397" lon="-2.89971">
        <ele>99.334564</ele>
        <time>2023-03-24T16:39:37.730Z</time>
      </trkpt>
      <trkpt lat="48.6842" lon="-2.89918">
        <ele>100.26238</ele>
        <time>2023-03-24T16:39:51.468Z</time>
      </trkpt>
      <trkpt lat="48.68432" lon="-2.89897">
        <ele>100.65721</ele>
        <time>2023-03-24T16:39:57.183Z</time>
      </trkpt>
      <trkpt lat="48.68439" lon="-2.89893">
        <ele>100.830017</ele>
        <time>2023-03-24T16:39:59.878Z</time>
      </trkpt>
      <trkpt lat="48.68439" lon="-2.89893">
        <ele>100.830017</ele>
        <time>2023-03-24T16:39:59.891Z</time>
      </trkpt>
      <trkpt lat="48.68482" lon="-2.89894">
        <ele>101.680628</ele>
        <time>2023-03-24T16:40:13.221Z</time>
      </trkpt>
      <trkpt lat="48.68516" lon="-2.89891">
        <ele>102.116588</ele>
        <time>2023-03-24T16:40:23.721Z</time>
      </trkpt>
      <trkpt lat="48.68506" lon="-2.89876">
        <ele>102.291944</ele>
        <time>2023-03-24T16:40:27.449Z</time>
      </trkpt>
      <trkpt lat="48.68475" lon="-2.89838">
        <ele>102.803505</ele>
        <time>2023-03-24T16:40:39.195Z</time>
      </trkpt>
      <trkpt lat="48.68481" lon="-2.89814">
        <ele>103.020058</ele>
        <time>2023-03-24T16:40:44.526Z</time>
      </trkpt>
      <trkpt lat="48.68513" lon="-2.89752">
        <ele>103.688776</ele>
        <time>2023-03-24T16:40:59.498Z</time>
      </trkpt>
      <trkpt lat="48.68534" lon="-2.89677">
        <ele>104.151374</ele>
        <time>2023-03-24T16:41:22.165Z</time>
      </trkpt>
      <trkpt lat="48.68543" lon="-2.89657">
        <ele>104.261122</ele>
        <time>2023-03-24T16:41:28.605Z</time>
      </trkpt>
      <trkpt lat="48.68587" lon="-2.89611">
        <ele>104.625562</ele>
        <time>2023-03-24T16:41:50.518Z</time>
      </trkpt>
      <trkpt lat="48.68622" lon="-2.89567">
        <ele>104.941776</ele>
        <time>2023-03-24T16:42:08.767Z</time>
      </trkpt>
      <trkpt lat="48.68625" lon="-2.89556">
        <ele>104.994347</ele>
        <time>2023-03-24T16:42:11.758Z</time>
      </trkpt>
      <trkpt lat="48.68627" lon="-2.89518">
        <ele>105.116581</ele>
        <time>2023-03-24T16:42:21.255Z</time>
      </trkpt>
      <trkpt lat="48.68633" lon="-2.89499">
        <ele>105.11342</ele>
        <time>2023-03-24T16:42:26.591Z</time>
      </trkpt>
      <trkpt lat="48.68675" lon="-2.89419">
        <ele>105.098312</ele>
        <time>2023-03-24T16:42:51.914Z</time>
      </trkpt>
      <trkpt lat="48.68774" lon="-2.89284">
        <ele>104.824373</ele>
        <time>2023-03-24T16:43:40.365Z</time>
      </trkpt>
      <trkpt lat="48.68824" lon="-2.89228">
        <ele>104.444529</ele>
        <time>2023-03-24T16:44:02.733Z</time>
      </trkpt>
      <trkpt lat="48.68855" lon="-2.89199">
        <ele>104.223129</ele>
        <time>2023-03-24T16:44:15.634Z</time>
      </trkpt>
      <trkpt lat="48.68857" lon="-2.89156">
        <ele>104.050024</ele>
        <time>2023-03-24T16:44:21.348Z</time>
      </trkpt>
      <trkpt lat="48.68864" lon="-2.89101">
        <ele>103.638337</ele>
        <time>2023-03-24T16:44:28.686Z</time>
      </trkpt>
      <trkpt lat="48.68891" lon="-2.89095">
        <ele>103.29052</ele>
        <time>2023-03-24T16:44:33.744Z</time>
      </trkpt>
      <trkpt lat="48.68913" lon="-2.89095">
        <ele>102.994139</ele>
        <time>2023-03-24T16:44:38.097Z</time>
      </trkpt>
      <trkpt lat="48.68952" lon="-2.89108">
        <ele>102.472941</ele>
        <time>2023-03-24T16:44:45.704Z</time>
      </trkpt>
      <trkpt lat="48.68957" lon="-2.89112">
        <ele>102.407505</ele>
        <time>2023-03-24T16:44:46.598Z</time>
      </trkpt>
      <trkpt lat="48.68971" lon="-2.89145">
        <ele>102.065107</ele>
        <time>2023-03-24T16:44:51.884Z</time>
      </trkpt>
      <trkpt lat="48.69008" lon="-2.89184">
        <ele>101.464089</ele>
        <time>2023-03-24T16:45:00.559Z</time>
      </trkpt>
      <trkpt lat="48.69012" lon="-2.8919">
        <ele>101.377081</ele>
        <time>2023-03-24T16:45:01.711Z</time>
      </trkpt>
      <trkpt lat="48.69023" lon="-2.89202">
        <ele>101.174922</ele>
        <time>2023-03-24T16:45:04.352Z</time>
      </trkpt>
      <trkpt lat="48.69032" lon="-2.89217">
        <ele>100.978211</ele>
        <time>2023-03-24T16:45:06.799Z</time>
      </trkpt>
      <trkpt lat="48.69033" lon="-2.89242">
        <ele>100.736027</ele>
        <time>2023-03-24T16:45:09.921Z</time>
      </trkpt>
      <trkpt lat="48.69044" lon="-2.8928">
        <ele>100.333679</ele>
        <time>2023-03-24T16:45:14.921Z</time>
      </trkpt>
      <trkpt lat="48.69053" lon="-2.89307">
        <ele>100.03802</ele>
        <time>2023-03-24T16:45:18.769Z</time>
      </trkpt>
      <trkpt lat="48.6908" lon="-2.89368">
        <ele>99.321086</ele>
        <time>2023-03-24T16:45:28.015Z</time>
      </trkpt>
      <trkpt lat="48.69089" lon="-2.89379">
        <ele>99.144979</ele>
        <time>2023-03-24T16:45:30.464Z</time>
      </trkpt>
      <trkpt lat="48.69103" lon="-2.89409">
        <ele>98.824993</ele>
        <time>2023-03-24T16:45:35.089Z</time>
      </trkpt>
      <trkpt lat="48.69114" lon="-2.89439">
        <ele>98.545326</ele>
        <time>2023-03-24T16:45:39.726Z</time>
      </trkpt>
      <trkpt lat="48.69119" lon="-2.89483">
        <ele>98.189775</ele>
        <time>2023-03-24T16:45:45.286Z</time>
      </trkpt>
      <trkpt lat="48.69118" lon="-2.8954">
        <ele>97.72885</ele>
        <time>2023-03-24T16:45:52.485Z</time>
      </trkpt>
      <trkpt lat="48.6912" lon="-2.89557">
        <ele>97.590265</ele>
        <time>2023-03-24T16:45:54.647Z</time>
      </trkpt>
      <trkpt lat="48.69126" lon="-2.89584">
        <ele>97.356867</ele>
        <time>2023-03-24T16:45:58.326Z</time>
      </trkpt>
      <trkpt lat="48.69135" lon="-2.89602">
        <ele>97.177832</ele>
        <time>2023-03-24T16:46:01.104Z</time>
      </trkpt>
      <trkpt lat="48.69157" lon="-2.89616">
        <ele>96.892203</ele>
        <time>2023-03-24T16:46:05.726Z</time>
      </trkpt>
      <trkpt lat="48.69163" lon="-2.89625">
        <ele>96.785361</ele>
        <time>2023-03-24T16:46:07.627Z</time>
      </trkpt>
      <trkpt lat="48.69168" lon="-2.8965">
        <ele>96.637946</ele>
        <time>2023-03-24T16:46:11.198Z</time>
      </trkpt>
      <trkpt lat="48.69166" lon="-2.89667">
        <ele>96.536878</ele>
        <time>2023-03-24T16:46:13.535Z</time>
      </trkpt>
      <trkpt lat="48.69178" lon="-2.89679">
        <ele>96.414421</ele>
        <time>2023-03-24T16:46:16.540Z</time>
      </trkpt>
      <trkpt lat="48.69182" lon="-2.89688">
        <ele>96.352841</ele>
        <time>2023-03-24T16:46:18.081Z</time>
      </trkpt>
      <trkpt lat="48.69195" lon="-2.89755">
        <ele>95.953985</ele>
        <time>2023-03-24T16:46:27.269Z</time>
      </trkpt>
      <trkpt lat="48.69206" lon="-2.89791">
        <ele>95.725111</ele>
        <time>2023-03-24T16:46:32.565Z</time>
      </trkpt>
      <trkpt lat="48.69241" lon="-2.89791">
        <ele>95.427171</ele>
        <time>2023-03-24T16:46:39.331Z</time>
      </trkpt>
      <trkpt lat="48.6928" lon="-2.89795">
        <ele>95.181779</ele>
        <time>2023-03-24T16:46:47.361Z</time>
      </trkpt>
      <trkpt lat="48.6931" lon="-2.89794">
        <ele>95.093454</ele>
        <time>2023-03-24T16:46:53.381Z</time>
      </trkpt>
      <trkpt lat="48.69413" lon="-2.89772">
        <ele>94.780652</ele>
        <time>2023-03-24T16:47:15.573Z</time>
      </trkpt>
      <trkpt lat="48.69414" lon="-2.89786">
        <ele>94.752898</ele>
        <time>2023-03-24T16:47:18.043Z</time>
      </trkpt>
      <trkpt lat="48.69409" lon="-2.89801">
        <ele>94.719313</ele>
        <time>2023-03-24T16:47:20.469Z</time>
      </trkpt>
      <trkpt lat="48.69389" lon="-2.89832">
        <ele>94.898492</ele>
        <time>2023-03-24T16:47:27.331Z</time>
      </trkpt>
      <trkpt lat="48.69375" lon="-2.89849">
        <ele>95.080849</ele>
        <time>2023-03-24T16:47:31.682Z</time>
      </trkpt>
      <trkpt lat="48.69317" lon="-2.89903">
        <ele>95.777072</ele>
        <time>2023-03-24T16:47:50.327Z</time>
      </trkpt>
      <trkpt lat="48.69262" lon="-2.89959">
        <ele>96.4553</ele>
        <time>2023-03-24T16:48:10.041Z</time>
      </trkpt>
      <trkpt lat="48.69245" lon="-2.89985">
        <ele>96.742822</ele>
        <time>2023-03-24T16:48:17.419Z</time>
      </trkpt>
      <trkpt lat="48.69233" lon="-2.90019">
        <ele>97.064699</ele>
        <time>2023-03-24T16:48:25.283Z</time>
      </trkpt>
      <trkpt lat="48.69214" lon="-2.90134">
        <ele>98.044577</ele>
        <time>2023-03-24T16:48:48.090Z</time>
      </trkpt>
      <trkpt lat="48.69206" lon="-2.90178">
        <ele>98.425251</ele>
        <time>2023-03-24T16:48:56.901Z</time>
      </trkpt>
      <trkpt lat="48.69179" lon="-2.90282">
        <ele>97.975682</ele>
        <time>2023-03-24T16:49:16.113Z</time>
      </trkpt>
      <trkpt lat="48.6917" lon="-2.90392">
        <ele>96.60624</ele>
        <time>2023-03-24T16:49:30.426Z</time>
      </trkpt>
      <trkpt lat="48.6918" lon="-2.90385">
        <ele>96.411547</ele>
        <time>2023-03-24T16:49:32.197Z</time>
      </trkpt>
      <trkpt lat="48.6919" lon="-2.90383">
        <ele>96.215274</ele>
        <time>2023-03-24T16:49:33.987Z</time>
      </trkpt>
      <trkpt lat="48.69217" lon="-2.90387">
        <ele>95.707759</ele>
        <time>2023-03-24T16:49:38.450Z</time>
      </trkpt>
      <trkpt lat="48.69245" lon="-2.90389">
        <ele>94.570208</ele>
        <time>2023-03-24T16:49:42.980Z</time>
      </trkpt>
      <trkpt lat="48.69306" lon="-2.90575">
        <ele>85.998466</ele>
        <time>2023-03-24T16:50:20.768Z</time>
      </trkpt>
      <trkpt lat="48.69349" lon="-2.9067">
        <ele>82.026439</ele>
        <time>2023-03-24T16:50:41.270Z</time>
      </trkpt>
      <trkpt lat="48.69383" lon="-2.9076">
        <ele>78.816997</ele>
        <time>2023-03-24T16:51:01.154Z</time>
      </trkpt>
      <trkpt lat="48.6939" lon="-2.90755">
        <ele>78.449114</ele>
        <time>2023-03-24T16:51:02.519Z</time>
      </trkpt>
      <trkpt lat="48.69393" lon="-2.9078">
        <ele>77.650704</ele>
        <time>2023-03-24T16:51:07.784Z</time>
      </trkpt>
      <trkpt lat="48.69383" lon="-2.9082">
        <ele>76.337035</ele>
        <time>2023-03-24T16:51:16.596Z</time>
      </trkpt>
      <trkpt lat="48.69382" lon="-2.90831">
        <ele>75.994096</ele>
        <time>2023-03-24T16:51:18.909Z</time>
      </trkpt>
      <trkpt lat="48.69385" lon="-2.90843">
        <ele>75.833665</ele>
        <time>2023-03-24T16:51:21.562Z</time>
      </trkpt>
      <trkpt lat="48.69396" lon="-2.90864">
        <ele>75.871651</ele>
        <time>2023-03-24T16:51:27.349Z</time>
      </trkpt>
      <trkpt lat="48.69405" lon="-2.90875">
        <ele>75.895522</ele>
        <time>2023-03-24T16:51:31.001Z</time>
      </trkpt>
      <trkpt lat="48.69414" lon="-2.90881">
        <ele>75.916933</ele>
        <time>2023-03-24T16:51:34.298Z</time>
      </trkpt>
      <trkpt lat="48.69426" lon="-2.90878">
        <ele>75.943143</ele>
        <time>2023-03-24T16:51:38.545Z</time>
      </trkpt>
      <trkpt lat="48.69445" lon="-2.90889">
        <ele>75.986</ele>
        <time>2023-03-24T16:51:45.586Z</time>
      </trkpt>
      <trkpt lat="48.69457" lon="-2.9092">
        <ele>76.03777</ele>
        <time>2023-03-24T16:51:54.829Z</time>
      </trkpt>
      <trkpt lat="48.69472" lon="-2.90979">
        <ele>76.126541</ele>
        <time>2023-03-24T16:52:14.499Z</time>
      </trkpt>
      <trkpt lat="48.69484" lon="-2.91079">
        <ele>77.119272</ele>
        <time>2023-03-24T16:52:47.249Z</time>
      </trkpt>
      <trkpt lat="48.69486" lon="-2.91135">
        <ele>78.272764</ele>
        <time>2023-03-24T16:53:06.247Z</time>
      </trkpt>
      <trkpt lat="48.69482" lon="-2.91184">
        <ele>79.295843</ele>
        <time>2023-03-24T16:53:24.026Z</time>
      </trkpt>
      <trkpt lat="48.69425" lon="-2.91212">
        <ele>81.148443</ele>
        <time>2023-03-24T16:53:47.519Z</time>
      </trkpt>
      <trkpt lat="48.69451" lon="-2.91361">
        <ele>83.824798</ele>
        <time>2023-03-24T16:54:42.784Z</time>
      </trkpt>
      <trkpt lat="48.69451" lon="-2.91361">
        <ele>83.824798</ele>
        <time>2023-03-24T16:54:42.784Z</time>
      </trkpt>
      <trkpt lat="48.69463" lon="-2.91398">
        <ele>84.491166</ele>
        <time>2023-03-24T16:54:55.334Z</time>
      </trkpt>
      <trkpt lat="48.69474" lon="-2.91452">
        <ele>85.41708</ele>
        <time>2023-03-24T16:55:12.983Z</time>
      </trkpt>
      <trkpt lat="48.69474" lon="-2.91481">
        <ele>85.898364</ele>
        <time>2023-03-24T16:55:21.875Z</time>
      </trkpt>
      <trkpt lat="48.69472" lon="-2.91494">
        <ele>86.114381</ele>
        <time>2023-03-24T16:55:25.570Z</time>
      </trkpt>
      <trkpt lat="48.69458" lon="-2.9151">
        <ele>86.394392</ele>
        <time>2023-03-24T16:55:33.829Z</time>
      </trkpt>
      <trkpt lat="48.69452" lon="-2.91596">
        <ele>86.965527</ele>
        <time>2023-03-24T16:55:57.894Z</time>
      </trkpt>
      <trkpt lat="48.69442" lon="-2.91611">
        <ele>87.105002</ele>
        <time>2023-03-24T16:56:04.030Z</time>
      </trkpt>
      <trkpt lat="48.69424" lon="-2.91624">
        <ele>87.307598</ele>
        <time>2023-03-24T16:56:12.287Z</time>
      </trkpt>
      <trkpt lat="48.69423" lon="-2.91633">
        <ele>87.362751</ele>
        <time>2023-03-24T16:56:14.891Z</time>
      </trkpt>
      <trkpt lat="48.69414" lon="-2.91658">
        <ele>87.553163</ele>
        <time>2023-03-24T16:56:22.941Z</time>
      </trkpt>
      <trkpt lat="48.69389" lon="-2.91726">
        <ele>88.063133</ele>
        <time>2023-03-24T16:56:43.999Z</time>
      </trkpt>
      <trkpt lat="48.69373" lon="-2.9176">
        <ele>88.043396</ele>
        <time>2023-03-24T16:56:54.728Z</time>
      </trkpt>
      <trkpt lat="48.6936" lon="-2.91806">
        <ele>87.99502</ele>
        <time>2023-03-24T16:57:07.213Z</time>
      </trkpt>
      <trkpt lat="48.69353" lon="-2.91851">
        <ele>87.950548</ele>
        <time>2023-03-24T16:57:13.833Z</time>
      </trkpt>
      <trkpt lat="48.69358" lon="-2.91877">
        <ele>87.924518</ele>
        <time>2023-03-24T16:57:17.577Z</time>
      </trkpt>
      <trkpt lat="48.69386" lon="-2.91919">
        <ele>87.866365</ele>
        <time>2023-03-24T16:57:25.863Z</time>
      </trkpt>
      <trkpt lat="48.69404" lon="-2.91961">
        <ele>87.818379</ele>
        <time>2023-03-24T16:57:32.689Z</time>
      </trkpt>
      <trkpt lat="48.69439" lon="-2.92042">
        <ele>87.493804</ele>
        <time>2023-03-24T16:57:45.891Z</time>
      </trkpt>
      <trkpt lat="48.69464" lon="-2.92098">
        <ele>87.268927</ele>
        <time>2023-03-24T16:57:54.956Z</time>
      </trkpt>
      <trkpt lat="48.69463" lon="-2.92108">
        <ele>87.234332</ele>
        <time>2023-03-24T16:57:57.336Z</time>
      </trkpt>
      <trkpt lat="48.69468" lon="-2.92122">
        <ele>87.17914</ele>
        <time>2023-03-24T16:58:01.163Z</time>
      </trkpt>
      <trkpt lat="48.69505" lon="-2.92196">
        <ele>86.922775</ele>
        <time>2023-03-24T16:58:22.926Z</time>
      </trkpt>
      <trkpt lat="48.69523" lon="-2.92243">
        <ele>87.01881</ele>
        <time>2023-03-24T16:58:36.351Z</time>
      </trkpt>
      <trkpt lat="48.69544" lon="-2.92321">
        <ele>87.166954</ele>
        <time>2023-03-24T16:58:58.272Z</time>
      </trkpt>
      <trkpt lat="48.69563" lon="-2.92355">
        <ele>87.246104</ele>
        <time>2023-03-24T16:59:10.093Z</time>
      </trkpt>
      <trkpt lat="48.69587" lon="-2.92391">
        <ele>87.335427</ele>
        <time>2023-03-24T16:59:23.379Z</time>
      </trkpt>
      <trkpt lat="48.69584" lon="-2.92409">
        <ele>87.368591</ele>
        <time>2023-03-24T16:59:26.442Z</time>
      </trkpt>
      <trkpt lat="48.69597" lon="-2.92442">
        <ele>87.39037</ele>
        <time>2023-03-24T16:59:32.672Z</time>
      </trkpt>
      <trkpt lat="48.69608" lon="-2.92515">
        <ele>87.403209</ele>
        <time>2023-03-24T16:59:51.386Z</time>
      </trkpt>
      <trkpt lat="48.69616" lon="-2.92543">
        <ele>87.408479</ele>
        <time>2023-03-24T16:59:58.873Z</time>
      </trkpt>
      <trkpt lat="48.69638" lon="-2.92598">
        <ele>87.419497</ele>
        <time>2023-03-24T17:00:14.468Z</time>
      </trkpt>
      <trkpt lat="48.69673" lon="-2.92651">
        <ele>87.431902</ele>
        <time>2023-03-24T17:00:32.494Z</time>
      </trkpt>
      <trkpt lat="48.69729" lon="-2.9275">
        <ele>87.167272</ele>
        <time>2023-03-24T17:01:03.331Z</time>
      </trkpt>
      <trkpt lat="48.69765" lon="-2.92791">
        <ele>87.02943</ele>
        <time>2023-03-24T17:01:19.394Z</time>
      </trkpt>
      <trkpt lat="48.69803" lon="-2.9285">
        <ele>86.881581</ele>
        <time>2023-03-24T17:01:39.119Z</time>
      </trkpt>
      <trkpt lat="48.69879" lon="-2.92932">
        <ele>86.900471</ele>
        <time>2023-03-24T17:02:14.596Z</time>
      </trkpt>
      <trkpt lat="48.69927" lon="-2.93015">
        <ele>86.915285</ele>
        <time>2023-03-24T17:02:41.835Z</time>
      </trkpt>
      <trkpt lat="48.70006" lon="-2.93089">
        <ele>86.572865</ele>
        <time>2023-03-24T17:03:01.916Z</time>
      </trkpt>
      <trkpt lat="48.70018" lon="-2.93083">
        <ele>86.522607</ele>
        <time>2023-03-24T17:03:04.582Z</time>
      </trkpt>
      <trkpt lat="48.70034" lon="-2.93103">
        <ele>86.438441</ele>
        <time>2023-03-24T17:03:12.006Z</time>
      </trkpt>
      <trkpt lat="48.70071" lon="-2.93133">
        <ele>86.267719</ele>
        <time>2023-03-24T17:03:27.087Z</time>
      </trkpt>
      <trkpt lat="48.70093" lon="-2.93158">
        <ele>86.15181</ele>
        <time>2023-03-24T17:03:36.646Z</time>
      </trkpt>
      <trkpt lat="48.70145" lon="-2.9324">
        <ele>85.783995</ele>
        <time>2023-03-24T17:04:02.359Z</time>
      </trkpt>
      <trkpt lat="48.70175" lon="-2.933">
        <ele>85.542282</ele>
        <time>2023-03-24T17:04:20.150Z</time>
      </trkpt>
      <trkpt lat="48.70199" lon="-2.93312">
        <ele>85.41653</ele>
        <time>2023-03-24T17:04:29.650Z</time>
      </trkpt>
      <trkpt lat="48.70237" lon="-2.93318">
        <ele>85.374916</ele>
        <time>2023-03-24T17:04:44.346Z</time>
      </trkpt>
      <trkpt lat="48.70243" lon="-2.93331">
        <ele>85.41388</ele>
        <time>2023-03-24T17:04:46.724Z</time>
      </trkpt>
      <trkpt lat="48.70251" lon="-2.9334">
        <ele>85.453569</ele>
        <time>2023-03-24T17:04:49.274Z</time>
      </trkpt>
      <trkpt lat="48.70228" lon="-2.93455">
        <ele>85.757885</ele>
        <time>2023-03-24T17:05:09.645Z</time>
      </trkpt>
      <trkpt lat="48.70227" lon="-2.93495">
        <ele>85.858668</ele>
        <time>2023-03-24T17:05:15.773Z</time>
      </trkpt>
      <trkpt lat="48.70222" lon="-2.93511">
        <ele>85.903462</ele>
        <time>2023-03-24T17:05:19.173Z</time>
      </trkpt>
      <trkpt lat="48.70218" lon="-2.93563">
        <ele>86.025193</ele>
        <time>2023-03-24T17:05:28.467Z</time>
      </trkpt>
      <trkpt lat="48.7022" lon="-2.93726">
        <ele>86.299722</ele>
        <time>2023-03-24T17:05:55.547Z</time>
      </trkpt>
      <trkpt lat="48.70222" lon="-2.93752">
        <ele>86.344002</ele>
        <time>2023-03-24T17:05:59.527Z</time>
      </trkpt>
      <trkpt lat="48.70288" lon="-2.93765">
        <ele>86.490065</ele>
        <time>2023-03-24T17:06:14.792Z</time>
      </trkpt>
      <trkpt lat="48.70292" lon="-2.93764">
        <ele>86.496046</ele>
        <time>2023-03-24T17:06:15.772Z</time>
      </trkpt>
      <trkpt lat="48.70286" lon="-2.93823">
        <ele>86.550342</ele>
        <time>2023-03-24T17:06:24.907Z</time>
      </trkpt>
      <trkpt lat="48.70273" lon="-2.939">
        <ele>86.623194</ele>
        <time>2023-03-24T17:06:37.205Z</time>
      </trkpt>
      <trkpt lat="48.70353" lon="-2.93926">
        <ele>86.781253</ele>
        <time>2023-03-24T17:07:08.898Z</time>
      </trkpt>
      <trkpt lat="48.70377" lon="-2.93951">
        <ele>86.886528</ele>
        <time>2023-03-24T17:07:20.452Z</time>
      </trkpt>
      <trkpt lat="48.70393" lon="-2.93964">
        <ele>86.956296</ele>
        <time>2023-03-24T17:07:27.867Z</time>
      </trkpt>
      <trkpt lat="48.70441" lon="-2.93972">
        <ele>87.129947</ele>
        <time>2023-03-24T17:07:46.571Z</time>
      </trkpt>
      <trkpt lat="48.70464" lon="-2.9398">
        <ele>87.217905</ele>
        <time>2023-03-24T17:07:55.726Z</time>
      </trkpt>
      <trkpt lat="48.70482" lon="-2.9399">
        <ele>87.28595</ele>
        <time>2023-03-24T17:08:03.048Z</time>
      </trkpt>
      <trkpt lat="48.70497" lon="-2.94006">
        <ele>87.354576</ele>
        <time>2023-03-24T17:08:10.138Z</time>
      </trkpt>
      <trkpt lat="48.70513" lon="-2.94016">
        <ele>87.432694</ele>
        <time>2023-03-24T17:08:16.974Z</time>
      </trkpt>
      <trkpt lat="48.70492" lon="-2.94176">
        <ele>87.936731</ele>
        <time>2023-03-24T17:08:58.708Z</time>
      </trkpt>
      <trkpt lat="48.70508" lon="-2.9421">
        <ele>88.067407</ele>
        <time>2023-03-24T17:09:09.626Z</time>
      </trkpt>
      <trkpt lat="48.70536" lon="-2.94254">
        <ele>88.346449</ele>
        <time>2023-03-24T17:09:25.874Z</time>
      </trkpt>
      <trkpt lat="48.70549" lon="-2.94292">
        <ele>88.740029</ele>
        <time>2023-03-24T17:09:37.413Z</time>
      </trkpt>
      <trkpt lat="48.70551" lon="-2.94327">
        <ele>89.064449</ele>
        <time>2023-03-24T17:09:47.258Z</time>
      </trkpt>
      <trkpt lat="48.70541" lon="-2.94424">
        <ele>89.989464</ele>
        <time>2023-03-24T17:10:16.402Z</time>
      </trkpt>
      <trkpt lat="48.70619" lon="-2.94489">
        <ele>91.412296</ele>
        <time>2023-03-24T17:10:58.287Z</time>
      </trkpt>
      <trkpt lat="48.70736" lon="-2.94589">
        <ele>93.923877</ele>
        <time>2023-03-24T17:12:01.027Z</time>
      </trkpt>
      <trkpt lat="48.70744" lon="-2.94592">
        <ele>94.090231</ele>
        <time>2023-03-24T17:12:05.221Z</time>
      </trkpt>
      <trkpt lat="48.7075" lon="-2.94587">
        <ele>94.180026</ele>
        <time>2023-03-24T17:12:08.057Z</time>
      </trkpt>
      <trkpt lat="48.70796" lon="-2.9446">
        <ele>95.282187</ele>
        <time>2023-03-24T17:12:50.084Z</time>
      </trkpt>
      <trkpt lat="48.70808" lon="-2.94443">
        <ele>95.471439</ele>
        <time>2023-03-24T17:12:56.747Z</time>
      </trkpt>
      <trkpt lat="48.70828" lon="-2.94429">
        <ele>95.725792</ele>
        <time>2023-03-24T17:13:06.011Z</time>
      </trkpt>
      <trkpt lat="48.70833" lon="-2.94458">
        <ele>95.954898</ele>
        <time>2023-03-24T17:13:13.927Z</time>
      </trkpt>
      <trkpt lat="48.70836" lon="-2.94492">
        <ele>96.203046</ele>
        <time>2023-03-24T17:13:22.813Z</time>
      </trkpt>
      <trkpt lat="48.70835" lon="-2.94538">
        <ele>96.309117</ele>
        <time>2023-03-24T17:13:35.264Z</time>
      </trkpt>
      <trkpt lat="48.70829" lon="-2.94608">
        <ele>96.470473</ele>
        <time>2023-03-24T17:13:53.868Z</time>
      </trkpt>
      <trkpt lat="48.70834" lon="-2.94658">
        <ele>96.584564</ele>
        <time>2023-03-24T17:14:07.166Z</time>
      </trkpt>
      <trkpt lat="48.7084" lon="-2.94688">
        <ele>96.655832</ele>
        <time>2023-03-24T17:14:14.936Z</time>
      </trkpt>
      <trkpt lat="48.70859" lon="-2.94744">
        <ele>96.801104</ele>
        <time>2023-03-24T17:14:24.561Z</time>
      </trkpt>
      <trkpt lat="48.70885" lon="-2.94809">
        <ele>96.521337</ele>
        <time>2023-03-24T17:14:35.794Z</time>
      </trkpt>
      <trkpt lat="48.70912" lon="-2.94852">
        <ele>96.248729</ele>
        <time>2023-03-24T17:14:44.460Z</time>
      </trkpt>
      <trkpt lat="48.70915" lon="-2.94867">
        <ele>96.177727</ele>
        <time>2023-03-24T17:14:46.664Z</time>
      </trkpt>
      <trkpt lat="48.70917" lon="-2.94877">
        <ele>96.13089</ele>
        <time>2023-03-24T17:14:48.128Z</time>
      </trkpt>
      <trkpt lat="48.7092" lon="-2.94941">
        <ele>95.836128</ele>
        <time>2023-03-24T17:14:57.185Z</time>
      </trkpt>
      <trkpt lat="48.70908" lon="-2.95182">
        <ele>93.817603</ele>
        <time>2023-03-24T17:15:28.930Z</time>
      </trkpt>
      <trkpt lat="48.7092" lon="-2.95202">
        <ele>93.557248</ele>
        <time>2023-03-24T17:15:32.673Z</time>
      </trkpt>
      <trkpt lat="48.70954" lon="-2.95213">
        <ele>93.052501</ele>
        <time>2023-03-24T17:15:39.627Z</time>
      </trkpt>
      <trkpt lat="48.70962" lon="-2.95229">
        <ele>92.894521</ele>
        <time>2023-03-24T17:15:42.057Z</time>
      </trkpt>
      <trkpt lat="48.70965" lon="-2.95239">
        <ele>92.816677</ele>
        <time>2023-03-24T17:15:43.525Z</time>
      </trkpt>
      <trkpt lat="48.70968" lon="-2.9529">
        <ele>92.452946</ele>
        <time>2023-03-24T17:15:50.314Z</time>
      </trkpt>
      <trkpt lat="48.70963" lon="-2.95436">
        <ele>91.407888</ele>
        <time>2023-03-24T17:16:10.437Z</time>
      </trkpt>
      <trkpt lat="48.70972" lon="-2.95442">
        <ele>91.308176</ele>
        <time>2023-03-24T17:16:12.194Z</time>
      </trkpt>
      <trkpt lat="48.70969" lon="-2.95495">
        <ele>90.938404</ele>
        <time>2023-03-24T17:16:24.821Z</time>
      </trkpt>
      <trkpt lat="48.7095" lon="-2.9565">
        <ele>89.892306</ele>
        <time>2023-03-24T17:17:00.922Z</time>
      </trkpt>
      <trkpt lat="48.70952" lon="-2.95657">
        <ele>89.837719</ele>
        <time>2023-03-24T17:17:02.791Z</time>
      </trkpt>
      <trkpt lat="48.70994" lon="-2.95679">
        <ele>89.395437</ele>
        <time>2023-03-24T17:17:17.764Z</time>
      </trkpt>
      <trkpt lat="48.71039" lon="-2.95674">
        <ele>88.842576</ele>
        <time>2023-03-24T17:17:32.820Z</time>
      </trkpt>
      <trkpt lat="48.71147" lon="-2.95647">
        <ele>87.350798</ele>
        <time>2023-03-24T17:18:09.536Z</time>
      </trkpt>
      <trkpt lat="48.71169" lon="-2.95638">
        <ele>87.043367</ele>
        <time>2023-03-24T17:18:17.209Z</time>
      </trkpt>
      <trkpt lat="48.71193" lon="-2.95614">
        <ele>86.729473</ele>
        <time>2023-03-24T17:18:27.072Z</time>
      </trkpt>
      <trkpt lat="48.71204" lon="-2.95607">
        <ele>86.663834</ele>
        <time>2023-03-24T17:18:31.105Z</time>
      </trkpt>
      <trkpt lat="48.71218" lon="-2.9561">
        <ele>86.579738</ele>
        <time>2023-03-24T17:18:36.163Z</time>
      </trkpt>
      <trkpt lat="48.71262" lon="-2.95648">
        <ele>86.296504</ele>
        <time>2023-03-24T17:18:53.815Z</time>
      </trkpt>
      <trkpt lat="48.71298" lon="-2.95689">
        <ele>86.039283</ele>
        <time>2023-03-24T17:19:10.197Z</time>
      </trkpt>
      <trkpt lat="48.71327" lon="-2.95715">
        <ele>85.848574</ele>
        <time>2023-03-24T17:19:22.484Z</time>
      </trkpt>
      <trkpt lat="48.71334" lon="-2.95738">
        <ele>85.763365</ele>
        <time>2023-03-24T17:19:26.228Z</time>
      </trkpt>
      <trkpt lat="48.71345" lon="-2.95739">
        <ele>85.74914</ele>
        <time>2023-03-24T17:19:28.960Z</time>
      </trkpt>
      <trkpt lat="48.71378" lon="-2.95742">
        <ele>85.707952</ele>
        <time>2023-03-24T17:19:36.615Z</time>
      </trkpt>
      <trkpt lat="48.71397" lon="-2.9574">
        <ele>85.685445</ele>
        <time>2023-03-24T17:19:40.767Z</time>
      </trkpt>
      <trkpt lat="48.71481" lon="-2.9571">
        <ele>85.578827</ele>
        <time>2023-03-24T17:20:00.515Z</time>
      </trkpt>
      <trkpt lat="48.71502" lon="-2.95691">
        <ele>85.548478</ele>
        <time>2023-03-24T17:20:06.129Z</time>
      </trkpt>
      <trkpt lat="48.71521" lon="-2.95663">
        <ele>85.461685</ele>
        <time>2023-03-24T17:20:12.163Z</time>
      </trkpt>
      <trkpt lat="48.71538" lon="-2.95643">
        <ele>85.383853</ele>
        <time>2023-03-24T17:20:17.080Z</time>
      </trkpt>
      <trkpt lat="48.71622" lon="-2.95572">
        <ele>85.040861</ele>
        <time>2023-03-24T17:20:38.167Z</time>
      </trkpt>
      <trkpt lat="48.7176" lon="-2.9562">
        <ele>84.117356</ele>
        <time>2023-03-24T17:21:28.745Z</time>
      </trkpt>
      <trkpt lat="48.7183" lon="-2.95642">
        <ele>83.570852</ele>
        <time>2023-03-24T17:21:53.564Z</time>
      </trkpt>
      <trkpt lat="48.7183" lon="-2.95642">
        <ele>83.570348</ele>
        <time>2023-03-24T17:21:53.582Z</time>
      </trkpt>
      <trkpt lat="48.7186" lon="-2.95647">
        <ele>82.863296</ele>
        <time>2023-03-24T17:22:03.942Z</time>
      </trkpt>
      <trkpt lat="48.71855" lon="-2.95583">
        <ele>81.709277</ele>
        <time>2023-03-24T17:22:11.696Z</time>
      </trkpt>
      <trkpt lat="48.71844" lon="-2.95518">
        <ele>80.511353</ele>
        <time>2023-03-24T17:22:19.457Z</time>
      </trkpt>
      <trkpt lat="48.71846" lon="-2.95459">
        <ele>79.445909</ele>
        <time>2023-03-24T17:22:26.130Z</time>
      </trkpt>
      <trkpt lat="48.7184" lon="-2.95371">
        <ele>77.592795</ele>
        <time>2023-03-24T17:22:35.508Z</time>
      </trkpt>
      <trkpt lat="48.71827" lon="-2.95257">
        <ele>74.805724</ele>
        <time>2023-03-24T17:22:48.608Z</time>
      </trkpt>
      <trkpt lat="48.71836" lon="-2.95238">
        <ele>74.244796</ele>
        <time>2023-03-24T17:22:51.266Z</time>
      </trkpt>
      <trkpt lat="48.71802" lon="-2.95178">
        <ele>72.324287</ele>
        <time>2023-03-24T17:23:07.487Z</time>
      </trkpt>
      <trkpt lat="48.71784" lon="-2.95141">
        <ele>71.57912</ele>
        <time>2023-03-24T17:23:17.075Z</time>
      </trkpt>
      <trkpt lat="48.71784" lon="-2.95128">
        <ele>71.401407</ele>
        <time>2023-03-24T17:23:19.879Z</time>
      </trkpt>
      <trkpt lat="48.71786" lon="-2.95118">
        <ele>71.262148</ele>
        <time>2023-03-24T17:23:21.794Z</time>
      </trkpt>
      <trkpt lat="48.71803" lon="-2.95094">
        <ele>70.777829</ele>
        <time>2023-03-24T17:23:29.926Z</time>
      </trkpt>
      <trkpt lat="48.71843" lon="-2.95072">
        <ele>69.9082</ele>
        <time>2023-03-24T17:23:44.059Z</time>
      </trkpt>
      <trkpt lat="48.71881" lon="-2.95064">
        <ele>69.124751</ele>
        <time>2023-03-24T17:23:56.936Z</time>
      </trkpt>
      <trkpt lat="48.71912" lon="-2.9507">
        <ele>68.471492</ele>
        <time>2023-03-24T17:24:07.741Z</time>
      </trkpt>
      <trkpt lat="48.71953" lon="-2.95101">
        <ele>66.465193</ele>
        <time>2023-03-24T17:24:21.989Z</time>
      </trkpt>
      <trkpt lat="48.72008" lon="-2.95154">
        <ele>63.369666</ele>
        <time>2023-03-24T17:24:41.057Z</time>
      </trkpt>
      <trkpt lat="48.72016" lon="-2.95157">
        <ele>62.952552</ele>
        <time>2023-03-24T17:24:43.404Z</time>
      </trkpt>
      <trkpt lat="48.72039" lon="-2.95128">
        <ele>61.546752</ele>
        <time>2023-03-24T17:24:48.126Z</time>
      </trkpt>
      <trkpt lat="48.72062" lon="-2.9509">
        <ele>59.932869</ele>
        <time>2023-03-24T17:24:53.577Z</time>
      </trkpt>
      <trkpt lat="48.72105" lon="-2.95027">
        <ele>55.969982</ele>
        <time>2023-03-24T17:25:03.107Z</time>
      </trkpt>
      <trkpt lat="48.72121" lon="-2.95049">
        <ele>54.537478</ele>
        <time>2023-03-24T17:25:06.423Z</time>
      </trkpt>
      <trkpt lat="48.72138" lon="-2.95058">
        <ele>53.296839</ele>
        <time>2023-03-24T17:25:09.417Z</time>
      </trkpt>
      <trkpt lat="48.72148" lon="-2.95063">
        <ele>52.621323</ele>
        <time>2023-03-24T17:25:10.944Z</time>
      </trkpt>
      <trkpt lat="48.72171" lon="-2.95066">
        <ele>51.071807</ele>
        <time>2023-03-24T17:25:14.695Z</time>
      </trkpt>
      <trkpt lat="48.7219" lon="-2.95066">
        <ele>49.804754</ele>
        <time>2023-03-24T17:25:17.654Z</time>
      </trkpt>
      <trkpt lat="48.72224" lon="-2.95059">
        <ele>47.613144</ele>
        <time>2023-03-24T17:25:23.059Z</time>
      </trkpt>
      <trkpt lat="48.72246" lon="-2.95059">
        <ele>46.560404</ele>
        <time>2023-03-24T17:25:29.426Z</time>
      </trkpt>
      <trkpt lat="48.72268" lon="-2.95041">
        <ele>45.362073</ele>
        <time>2023-03-24T17:25:36.508Z</time>
      </trkpt>
      <trkpt lat="48.72303" lon="-2.95005">
        <ele>43.359838</ele>
        <time>2023-03-24T17:25:48.646Z</time>
      </trkpt>
      <trkpt lat="48.72406" lon="-2.94893">
        <ele>38.894842</ele>
        <time>2023-03-24T17:26:26.599Z</time>
      </trkpt>
      <trkpt lat="48.72431" lon="-2.94877">
        <ele>38.647431</ele>
        <time>2023-03-24T17:26:35.187Z</time>
      </trkpt>
      <trkpt lat="48.72474" lon="-2.94867">
        <ele>38.249136</ele>
        <time>2023-03-24T17:26:49.888Z</time>
      </trkpt>
      <trkpt lat="48.725" lon="-2.94871">
        <ele>38.006288</ele>
        <time>2023-03-24T17:26:59.155Z</time>
      </trkpt>
      <trkpt lat="48.72514" lon="-2.94876">
        <ele>37.877173</ele>
        <time>2023-03-24T17:27:05.381Z</time>
      </trkpt>
      <trkpt lat="48.72534" lon="-2.94889">
        <ele>37.677197</ele>
        <time>2023-03-24T17:27:17.110Z</time>
      </trkpt>
      <trkpt lat="48.72553" lon="-2.94906">
        <ele>38.046472</ele>
        <time>2023-03-24T17:27:28.640Z</time>
      </trkpt>
      <trkpt lat="48.72553" lon="-2.94906">
        <ele>38.046472</ele>
        <time>2023-03-24T17:27:28.670Z</time>
      </trkpt>
      <trkpt lat="48.72594" lon="-2.94955">
        <ele>39.521147</ele>
        <time>2023-03-24T17:27:56.608Z</time>
      </trkpt>
      <trkpt lat="48.72591" lon="-2.94963">
        <ele>39.690517</ele>
        <time>2023-03-24T17:28:03.971Z</time>
      </trkpt>
      <trkpt lat="48.72608" lon="-2.94975">
        <ele>40.215729</ele>
        <time>2023-03-24T17:28:26.955Z</time>
      </trkpt>
      <trkpt lat="48.72622" lon="-2.94987">
        <ele>40.669817</ele>
        <time>2023-03-24T17:28:34.871Z</time>
      </trkpt>
      <trkpt lat="48.72619" lon="-2.94996">
        <ele>40.848799</ele>
        <time>2023-03-24T17:28:38.001Z</time>
      </trkpt>
      <trkpt lat="48.7263" lon="-2.95013">
        <ele>41.297971</ele>
        <time>2023-03-24T17:28:45.589Z</time>
      </trkpt>
      <trkpt lat="48.72633" lon="-2.95033">
        <ele>41.672306</ele>
        <time>2023-03-24T17:28:50.104Z</time>
      </trkpt>
      <trkpt lat="48.72625" lon="-2.95161">
        <ele>41.987892</ele>
        <time>2023-03-24T17:29:19.627Z</time>
      </trkpt>
      <trkpt lat="48.72621" lon="-2.95182">
        <ele>41.777554</ele>
        <time>2023-03-24T17:29:24.383Z</time>
      </trkpt>
      <trkpt lat="48.726" lon="-2.9524">
        <ele>41.128722</ele>
        <time>2023-03-24T17:29:36.477Z</time>
      </trkpt>
      <trkpt lat="48.72603" lon="-2.95256">
        <ele>40.970055</ele>
        <time>2023-03-24T17:29:38.373Z</time>
      </trkpt>
      <trkpt lat="48.72604" lon="-2.95264">
        <ele>40.893498</ele>
        <time>2023-03-24T17:29:39.256Z</time>
      </trkpt>
      <trkpt lat="48.72613" lon="-2.9527">
        <ele>40.752445</ele>
        <time>2023-03-24T17:29:40.904Z</time>
      </trkpt>
      <trkpt lat="48.72619" lon="-2.95269">
        <ele>40.660646</ele>
        <time>2023-03-24T17:29:41.996Z</time>
      </trkpt>
      <trkpt lat="48.72625" lon="-2.95264">
        <ele>40.563099</ele>
        <time>2023-03-24T17:29:43.171Z</time>
      </trkpt>
      <trkpt lat="48.72633" lon="-2.95247">
        <ele>40.357467</ele>
        <time>2023-03-24T17:29:45.408Z</time>
      </trkpt>
      <trkpt lat="48.72656" lon="-2.95142">
        <ele>35.403911</ele>
        <time>2023-03-24T17:29:56.567Z</time>
      </trkpt>
      <trkpt lat="48.72665" lon="-2.95111">
        <ele>33.389917</ele>
        <time>2023-03-24T17:29:59.935Z</time>
      </trkpt>
      <trkpt lat="48.72692" lon="-2.95044">
        <ele>28.804162</ele>
        <time>2023-03-24T17:30:07.538Z</time>
      </trkpt>
      <trkpt lat="48.7273" lon="-2.94937">
        <ele>22.708213</ele>
        <time>2023-03-24T17:30:19.651Z</time>
      </trkpt>
      <trkpt lat="48.72741" lon="-2.94902">
        <ele>21.468984</ele>
        <time>2023-03-24T17:30:23.378Z</time>
      </trkpt>
      <trkpt lat="48.7275" lon="-2.9488">
        <ele>20.61002</ele>
        <time>2023-03-24T17:30:25.975Z</time>
      </trkpt>
      <trkpt lat="48.72771" lon="-2.94935">
        <ele>18.547172</ele>
        <time>2023-03-24T17:30:32.607Z</time>
      </trkpt>
      <trkpt lat="48.72776" lon="-2.94961">
        <ele>17.698948</ele>
        <time>2023-03-24T17:30:35.495Z</time>
      </trkpt>
      <trkpt lat="48.72776" lon="-2.94983">
        <ele>16.99773</ele>
        <time>2023-03-24T17:30:38.117Z</time>
      </trkpt>
      <trkpt lat="48.72768" lon="-2.95033">
        <ele>15.344577</ele>
        <time>2023-03-24T17:30:45.137Z</time>
      </trkpt>
      <trkpt lat="48.72767" lon="-2.95039">
        <ele>15.312493</ele>
        <time>2023-03-24T17:30:46.325Z</time>
      </trkpt>
      <trkpt lat="48.72756" lon="-2.95087">
        <ele>16.34738</ele>
        <time>2023-03-24T17:30:56.784Z</time>
      </trkpt>
      <trkpt lat="48.72747" lon="-2.95124">
        <ele>17.13241</ele>
        <time>2023-03-24T17:31:05.820Z</time>
      </trkpt>
      <trkpt lat="48.72705" lon="-2.9528">
        <ele>20.530306</ele>
        <time>2023-03-24T17:31:53.498Z</time>
      </trkpt>
      <trkpt lat="48.72683" lon="-2.95356">
        <ele>22.637874</ele>
        <time>2023-03-24T17:32:18.328Z</time>
      </trkpt>
      <trkpt lat="48.7267" lon="-2.95403">
        <ele>23.985093</ele>
        <time>2023-03-24T17:32:34.828Z</time>
      </trkpt>
      <trkpt lat="48.7266" lon="-2.95467">
        <ele>25.738712</ele>
        <time>2023-03-24T17:32:53.469Z</time>
      </trkpt>
      <trkpt lat="48.72656" lon="-2.95502">
        <ele>26.656742</ele>
        <time>2023-03-24T17:33:02.667Z</time>
      </trkpt>
      <trkpt lat="48.72657" lon="-2.95569">
        <ele>28.231554</ele>
        <time>2023-03-24T17:33:19.871Z</time>
      </trkpt>
      <trkpt lat="48.72655" lon="-2.9562">
        <ele>29.013458</ele>
        <time>2023-03-24T17:33:30.813Z</time>
      </trkpt>
      <trkpt lat="48.72667" lon="-2.95641">
        <ele>29.441537</ele>
        <time>2023-03-24T17:33:37.513Z</time>
      </trkpt>
      <trkpt lat="48.72683" lon="-2.95689">
        <ele>30.274398</ele>
        <time>2023-03-24T17:33:52.662Z</time>
      </trkpt>
      <trkpt lat="48.72688" lon="-2.95809">
        <ele>32.131246</ele>
        <time>2023-03-24T17:34:32.876Z</time>
      </trkpt>
      <trkpt lat="48.72697" lon="-2.95853">
        <ele>33.855895</ele>
        <time>2023-03-24T17:34:49.145Z</time>
      </trkpt>
      <trkpt lat="48.72686" lon="-2.9586">
        <ele>34.551021</ele>
        <time>2023-03-24T17:34:55.445Z</time>
      </trkpt>
      <trkpt lat="48.72678" lon="-2.95865">
        <ele>35.080498</ele>
        <time>2023-03-24T17:35:01.248Z</time>
      </trkpt>
      <trkpt lat="48.72672" lon="-2.95869">
        <ele>35.436725</ele>
        <time>2023-03-24T17:35:05.361Z</time>
      </trkpt>
      <trkpt lat="48.72667" lon="-2.95898">
        <ele>36.584528</ele>
        <time>2023-03-24T17:35:16.636Z</time>
      </trkpt>
      <trkpt lat="48.72662" lon="-2.9591">
        <ele>37.100287</ele>
        <time>2023-03-24T17:35:23.294Z</time>
      </trkpt>
      <trkpt lat="48.72688" lon="-2.96017">
        <ele>41.425658</ele>
        <time>2023-03-24T17:36:18.130Z</time>
      </trkpt>
      <trkpt lat="48.72697" lon="-2.96097">
        <ele>44.477691</ele>
        <time>2023-03-24T17:36:59.562Z</time>
      </trkpt>
      <trkpt lat="48.72688" lon="-2.96127">
        <ele>45.685726</ele>
        <time>2023-03-24T17:37:16.632Z</time>
      </trkpt>
      <trkpt lat="48.72677" lon="-2.96165">
        <ele>47.22597</ele>
        <time>2023-03-24T17:37:36.212Z</time>
      </trkpt>
      <trkpt lat="48.72683" lon="-2.96257">
        <ele>50.650622</ele>
        <time>2023-03-24T17:38:13.141Z</time>
      </trkpt>
      <trkpt lat="48.72693" lon="-2.96335">
        <ele>53.038429</ele>
        <time>2023-03-24T17:38:40.989Z</time>
      </trkpt>
      <trkpt lat="48.72713" lon="-2.96359">
        <ele>53.678628</ele>
        <time>2023-03-24T17:38:53.069Z</time>
      </trkpt>
      <trkpt lat="48.72738" lon="-2.96376">
        <ele>54.372944</ele>
        <time>2023-03-24T17:39:05.570Z</time>
      </trkpt>
      <trkpt lat="48.72774" lon="-2.96419">
        <ele>55.539766</ele>
        <time>2023-03-24T17:39:27.791Z</time>
      </trkpt>
      <trkpt lat="48.72821" lon="-2.96483">
        <ele>57.144797</ele>
        <time>2023-03-24T17:39:58.102Z</time>
      </trkpt>
      <trkpt lat="48.72828" lon="-2.96522">
        <ele>58.060664</ele>
        <time>2023-03-24T17:40:12.099Z</time>
      </trkpt>
      <trkpt lat="48.72832" lon="-2.96555">
        <ele>58.787735</ele>
        <time>2023-03-24T17:40:24.461Z</time>
      </trkpt>
      <trkpt lat="48.72829" lon="-2.9676">
        <ele>63.206266</ele>
        <time>2023-03-24T17:41:40.347Z</time>
      </trkpt>
      <trkpt lat="48.72826" lon="-2.96818">
        <ele>63.581337</ele>
        <time>2023-03-24T17:41:59.494Z</time>
      </trkpt>
      <trkpt lat="48.72808" lon="-2.96857">
        <ele>63.890901</ele>
        <time>2023-03-24T17:42:13.784Z</time>
      </trkpt>
      <trkpt lat="48.72801" lon="-2.96904">
        <ele>64.204677</ele>
        <time>2023-03-24T17:42:26.662Z</time>
      </trkpt>
      <trkpt lat="48.72797" lon="-2.96985">
        <ele>64.734261</ele>
        <time>2023-03-24T17:42:46.335Z</time>
      </trkpt>
      <trkpt lat="48.72783" lon="-2.9708">
        <ele>64.157863</ele>
        <time>2023-03-24T17:43:08.525Z</time>
      </trkpt>
      <trkpt lat="48.7276" lon="-2.97193">
        <ele>62.777356</ele>
        <time>2023-03-24T17:43:33.654Z</time>
      </trkpt>
      <trkpt lat="48.72744" lon="-2.97263">
        <ele>61.916583</ele>
        <time>2023-03-24T17:43:48.952Z</time>
      </trkpt>
      <trkpt lat="48.72735" lon="-2.97276">
        <ele>61.754371</ele>
        <time>2023-03-24T17:43:53.070Z</time>
      </trkpt>
      <trkpt lat="48.72717" lon="-2.97294">
        <ele>61.738172</ele>
        <time>2023-03-24T17:44:00.236Z</time>
      </trkpt>
      <trkpt lat="48.72755" lon="-2.97279">
        <ele>61.70915</ele>
        <time>2023-03-24T17:44:08.545Z</time>
      </trkpt>
      <trkpt lat="48.7277" lon="-2.9728">
        <ele>61.698576</ele>
        <time>2023-03-24T17:44:11.538Z</time>
      </trkpt>
      <trkpt lat="48.72822" lon="-2.97301">
        <ele>61.658913</ele>
        <time>2023-03-24T17:44:25.564Z</time>
      </trkpt>
      <trkpt lat="48.72814" lon="-2.97312">
        <ele>61.650841</ele>
        <time>2023-03-24T17:44:30.578Z</time>
      </trkpt>
      <trkpt lat="48.72804" lon="-2.97313">
        <ele>61.643325</ele>
        <time>2023-03-24T17:44:34.341Z</time>
      </trkpt>
      <trkpt lat="48.72794" lon="-2.97324">
        <ele>61.634695</ele>
        <time>2023-03-24T17:44:39.362Z</time>
      </trkpt>
      <trkpt lat="48.72794" lon="-2.97355">
        <ele>61.802846</ele>
        <time>2023-03-24T17:44:47.754Z</time>
      </trkpt>
      <trkpt lat="48.72805" lon="-2.97488">
        <ele>64.028151</ele>
        <time>2023-03-24T17:45:31.812Z</time>
      </trkpt>
      <trkpt lat="48.72821" lon="-2.97561">
        <ele>65.298823</ele>
        <time>2023-03-24T17:45:59.176Z</time>
      </trkpt>
      <trkpt lat="48.7283" lon="-2.97583">
        <ele>65.728715</ele>
        <time>2023-03-24T17:46:08.043Z</time>
      </trkpt>
      <trkpt lat="48.72836" lon="-2.97615">
        <ele>66.286643</ele>
        <time>2023-03-24T17:46:19.011Z</time>
      </trkpt>
      <trkpt lat="48.72834" lon="-2.97624">
        <ele>66.447466</ele>
        <time>2023-03-24T17:46:22.231Z</time>
      </trkpt>
      <trkpt lat="48.72828" lon="-2.97635">
        <ele>66.689755</ele>
        <time>2023-03-24T17:46:26.704Z</time>
      </trkpt>
      <trkpt lat="48.72824" lon="-2.97631">
        <ele>66.805461</ele>
        <time>2023-03-24T17:46:29.285Z</time>
      </trkpt>
      <trkpt lat="48.72821" lon="-2.97624">
        <ele>66.942464</ele>
        <time>2023-03-24T17:46:31.541Z</time>
      </trkpt>
      <trkpt lat="48.72817" lon="-2.97623">
        <ele>67.063063</ele>
        <time>2023-03-24T17:46:33.594Z</time>
      </trkpt>
      <trkpt lat="48.72814" lon="-2.97628">
        <ele>67.168324</ele>
        <time>2023-03-24T17:46:35.505Z</time>
      </trkpt>
      <trkpt lat="48.72817" lon="-2.97644">
        <ele>67.46322</ele>
        <time>2023-03-24T17:46:41.658Z</time>
      </trkpt>
      <trkpt lat="48.72828" lon="-2.97673">
        <ele>68.031533</ele>
        <time>2023-03-24T17:46:52.044Z</time>
      </trkpt>
      <trkpt lat="48.72826" lon="-2.97688">
        <ele>68.309459</ele>
        <time>2023-03-24T17:46:57.685Z</time>
      </trkpt>
      <trkpt lat="48.72825" lon="-2.97696">
        <ele>68.437781</ele>
        <time>2023-03-24T17:47:00.255Z</time>
      </trkpt>
      <trkpt lat="48.72818" lon="-2.97713">
        <ele>68.780093</ele>
        <time>2023-03-24T17:47:07.318Z</time>
      </trkpt>
      <trkpt lat="48.72801" lon="-2.97729">
        <ele>69.303095</ele>
        <time>2023-03-24T17:47:17.016Z</time>
      </trkpt>
      <trkpt lat="48.72777" lon="-2.97774">
        <ele>70.303703</ele>
        <time>2023-03-24T17:47:36.390Z</time>
      </trkpt>
      <trkpt lat="48.7278" lon="-2.97807">
        <ele>70.859344</ele>
        <time>2023-03-24T17:47:46.870Z</time>
      </trkpt>
      <trkpt lat="48.72779" lon="-2.97844">
        <ele>71.319084</ele>
        <time>2023-03-24T17:47:59.381Z</time>
      </trkpt>
      <trkpt lat="48.72788" lon="-2.97845">
        <ele>71.502365</ele>
        <time>2023-03-24T17:48:02.014Z</time>
      </trkpt>
      <trkpt lat="48.72809" lon="-2.97886">
        <ele>72.134598</ele>
        <time>2023-03-24T17:48:13.613Z</time>
      </trkpt>
      <trkpt lat="48.72831" lon="-2.97914">
        <ele>72.667622</ele>
        <time>2023-03-24T17:48:23.771Z</time>
      </trkpt>
      <trkpt lat="48.72849" lon="-2.97944">
        <ele>73.164837</ele>
        <time>2023-03-24T17:48:32.575Z</time>
      </trkpt>
      <trkpt lat="48.72867" lon="-2.98016">
        <ele>74.100908</ele>
        <time>2023-03-24T17:48:49.151Z</time>
      </trkpt>
      <trkpt lat="48.72915" lon="-2.98109">
        <ele>74.644068</ele>
        <time>2023-03-24T17:49:06.993Z</time>
      </trkpt>
      <trkpt lat="48.72922" lon="-2.98129">
        <ele>74.736877</ele>
        <time>2023-03-24T17:49:10.945Z</time>
      </trkpt>
      <trkpt lat="48.72927" lon="-2.98143">
        <ele>74.802871</ele>
        <time>2023-03-24T17:49:13.461Z</time>
      </trkpt>
      <trkpt lat="48.72945" lon="-2.98226">
        <ele>75.172376</ele>
        <time>2023-03-24T17:49:28.591Z</time>
      </trkpt>
      <trkpt lat="48.72973" lon="-2.98222">
        <ele>75.479249</ele>
        <time>2023-03-24T17:49:36.105Z</time>
      </trkpt>
      <trkpt lat="48.73003" lon="-2.98225">
        <ele>76.226684</ele>
        <time>2023-03-24T17:49:44.436Z</time>
      </trkpt>
      <trkpt lat="48.7299" lon="-2.98261">
        <ele>76.920775</ele>
        <time>2023-03-24T17:49:53.451Z</time>
      </trkpt>
      <trkpt lat="48.72955" lon="-2.9838">
        <ele>79.082354</ele>
        <time>2023-03-24T17:50:23.659Z</time>
      </trkpt>
      <trkpt lat="48.72937" lon="-2.98466">
        <ele>81.197761</ele>
        <time>2023-03-24T17:50:51.498Z</time>
      </trkpt>
      <trkpt lat="48.7293" lon="-2.98488">
        <ele>81.950419</ele>
        <time>2023-03-24T17:50:59.437Z</time>
      </trkpt>
      <trkpt lat="48.72926" lon="-2.98496">
        <ele>82.280342</ele>
        <time>2023-03-24T17:51:02.745Z</time>
      </trkpt>
      <trkpt lat="48.72921" lon="-2.98503">
        <ele>82.60577</ele>
        <time>2023-03-24T17:51:06.013Z</time>
      </trkpt>
      <trkpt lat="48.7285" lon="-2.98586">
        <ele>86.798569</ele>
        <time>2023-03-24T17:51:48.744Z</time>
      </trkpt>
      <trkpt lat="48.72805" lon="-2.98635">
        <ele>89.077082</ele>
        <time>2023-03-24T17:52:14.451Z</time>
      </trkpt>
      <trkpt lat="48.72802" lon="-2.98641">
        <ele>89.226601</ele>
        <time>2023-03-24T17:52:16.357Z</time>
      </trkpt>
      <trkpt lat="48.72799" lon="-2.98657">
        <ele>89.605102</ele>
        <time>2023-03-24T17:52:22.134Z</time>
      </trkpt>
      <trkpt lat="48.72795" lon="-2.98734">
        <ele>91.283862</ele>
        <time>2023-03-24T17:52:44.131Z</time>
      </trkpt>
      <trkpt lat="48.72785" lon="-2.98764">
        <ele>92.017812</ele>
        <time>2023-03-24T17:52:52.952Z</time>
      </trkpt>
      <trkpt lat="48.72783" lon="-2.98783">
        <ele>92.447138</ele>
        <time>2023-03-24T17:52:57.746Z</time>
      </trkpt>
      <trkpt lat="48.72773" lon="-2.98803">
        <ele>93.004417</ele>
        <time>2023-03-24T17:53:03.099Z</time>
      </trkpt>
      <trkpt lat="48.72774" lon="-2.98816">
        <ele>93.27332</ele>
        <time>2023-03-24T17:53:06.818Z</time>
      </trkpt>
      <trkpt lat="48.72754" lon="-2.98824">
        <ele>93.940081</ele>
        <time>2023-03-24T17:53:12.749Z</time>
      </trkpt>
      <trkpt lat="48.72734" lon="-2.98821">
        <ele>94.355855</ele>
        <time>2023-03-24T17:53:19.245Z</time>
      </trkpt>
      <trkpt lat="48.72699" lon="-2.98795">
        <ele>94.784297</ele>
        <time>2023-03-24T17:53:30.320Z</time>
      </trkpt>
      <trkpt lat="48.72652" lon="-2.98748">
        <ele>95.394496</ele>
        <time>2023-03-24T17:53:45.825Z</time>
      </trkpt>
      <trkpt lat="48.72623" lon="-2.98734">
        <ele>95.719987</ele>
        <time>2023-03-24T17:53:54.981Z</time>
      </trkpt>
      <trkpt lat="48.72606" lon="-2.98733">
        <ele>95.906541</ele>
        <time>2023-03-24T17:53:59.447Z</time>
      </trkpt>
      <trkpt lat="48.72592" lon="-2.98739">
        <ele>96.068087</ele>
        <time>2023-03-24T17:54:03.371Z</time>
      </trkpt>
      <trkpt lat="48.72579" lon="-2.98748">
        <ele>96.208571</ele>
        <time>2023-03-24T17:54:07.009Z</time>
      </trkpt>
      <trkpt lat="48.72448" lon="-2.98864">
        <ele>97.348994</ele>
        <time>2023-03-24T17:54:47.515Z</time>
      </trkpt>
      <trkpt lat="48.72434" lon="-2.98867">
        <ele>97.458805</ele>
        <time>2023-03-24T17:54:51.571Z</time>
      </trkpt>
      <trkpt lat="48.72427" lon="-2.98862">
        <ele>97.51348</ele>
        <time>2023-03-24T17:54:53.333Z</time>
      </trkpt>
      <trkpt lat="48.72395" lon="-2.98816">
        <ele>97.874052</ele>
        <time>2023-03-24T17:55:05.446Z</time>
      </trkpt>
      <trkpt lat="48.72379" lon="-2.98802">
        <ele>98.030564</ele>
        <time>2023-03-24T17:55:10.653Z</time>
      </trkpt>
      <trkpt lat="48.72345" lon="-2.98803">
        <ele>98.304872</ele>
        <time>2023-03-24T17:55:19.839Z</time>
      </trkpt>
      <trkpt lat="48.72306" lon="-2.98795">
        <ele>98.631116</ele>
        <time>2023-03-24T17:55:30.615Z</time>
      </trkpt>
      <trkpt lat="48.72291" lon="-2.98796">
        <ele>98.756515</ele>
        <time>2023-03-24T17:55:34.843Z</time>
      </trkpt>
      <trkpt lat="48.72269" lon="-2.98806">
        <ele>98.944231</ele>
        <time>2023-03-24T17:55:40.712Z</time>
      </trkpt>
      <trkpt lat="48.72276" lon="-2.9883">
        <ele>99.09166</ele>
        <time>2023-03-24T17:55:45.875Z</time>
      </trkpt>
      <trkpt lat="48.72276" lon="-2.98849">
        <ele>99.198803</ele>
        <time>2023-03-24T17:55:48.900Z</time>
      </trkpt>
      <trkpt lat="48.72263" lon="-2.98909">
        <ele>99.566547</ele>
        <time>2023-03-24T17:56:00.288Z</time>
      </trkpt>
      <trkpt lat="48.72264" lon="-2.98929">
        <ele>99.684223</ele>
        <time>2023-03-24T17:56:04.264Z</time>
      </trkpt>
      <trkpt lat="48.72268" lon="-2.9895">
        <ele>99.816902</ele>
        <time>2023-03-24T17:56:08.282Z</time>
      </trkpt>
      <trkpt lat="48.72281" lon="-2.9898">
        <ele>100.030004</ele>
        <time>2023-03-24T17:56:15.228Z</time>
      </trkpt>
      <trkpt lat="48.72283" lon="-2.98994">
        <ele>100.112747</ele>
        <time>2023-03-24T17:56:17.681Z</time>
      </trkpt>
      <trkpt lat="48.72282" lon="-2.99013">
        <ele>100.223695</ele>
        <time>2023-03-24T17:56:21.043Z</time>
      </trkpt>
      <trkpt lat="48.72278" lon="-2.9903">
        <ele>100.327082</ele>
        <time>2023-03-24T17:56:24.649Z</time>
      </trkpt>
      <trkpt lat="48.72262" lon="-2.99073">
        <ele>100.61611</ele>
        <time>2023-03-24T17:56:33.357Z</time>
      </trkpt>
      <trkpt lat="48.72223" lon="-2.99156">
        <ele>101.158736</ele>
        <time>2023-03-24T17:56:51.371Z</time>
      </trkpt>
      <trkpt lat="48.72196" lon="-2.99209">
        <ele>101.514487</ele>
        <time>2023-03-24T17:57:03.476Z</time>
      </trkpt>
      <trkpt lat="48.72179" lon="-2.99248">
        <ele>101.761693</ele>
        <time>2023-03-24T17:57:11.900Z</time>
      </trkpt>
      <trkpt lat="48.72164" lon="-2.99296">
        <ele>102.045702</ele>
        <time>2023-03-24T17:57:21.635Z</time>
      </trkpt>
      <trkpt lat="48.7213" lon="-2.9945">
        <ele>102.322861</ele>
        <time>2023-03-24T17:57:49.740Z</time>
      </trkpt>
      <trkpt lat="48.72123" lon="-2.99497">
        <ele>102.400805</ele>
        <time>2023-03-24T17:57:57.595Z</time>
      </trkpt>
      <trkpt lat="48.72107" lon="-2.99719">
        <ele>101.172491</ele>
        <time>2023-03-24T17:58:29.044Z</time>
      </trkpt>
      <trkpt lat="48.72103" lon="-2.99778">
        <ele>100.660259</ele>
        <time>2023-03-24T17:58:36.768Z</time>
      </trkpt>
      <trkpt lat="48.72085" lon="-2.99778">
        <ele>100.430565</ele>
        <time>2023-03-24T17:58:40.062Z</time>
      </trkpt>
      <trkpt lat="48.72073" lon="-2.99813">
        <ele>100.010766</ele>
        <time>2023-03-24T17:58:44.929Z</time>
      </trkpt>
      <trkpt lat="48.72037" lon="-2.99938">
        <ele>97.821132</ele>
        <time>2023-03-24T17:59:01.755Z</time>
      </trkpt>
      <trkpt lat="48.72024" lon="-3.00014">
        <ele>96.561555</ele>
        <time>2023-03-24T17:59:11.253Z</time>
      </trkpt>
      <trkpt lat="48.72019" lon="-3.00074">
        <ele>95.613</ele>
        <time>2023-03-24T17:59:18.785Z</time>
      </trkpt>
      <trkpt lat="48.72013" lon="-3.00111">
        <ele>95.052937</ele>
        <time>2023-03-24T17:59:23.517Z</time>
      </trkpt>
      <trkpt lat="48.71999" lon="-3.00146">
        <ele>94.450858</ele>
        <time>2023-03-24T17:59:28.356Z</time>
      </trkpt>
      <trkpt lat="48.71966" lon="-3.00214">
        <ele>93.208565</ele>
        <time>2023-03-24T17:59:38.582Z</time>
      </trkpt>
      <trkpt lat="48.71957" lon="-3.00233">
        <ele>92.865302</ele>
        <time>2023-03-24T17:59:41.549Z</time>
      </trkpt>
      <trkpt lat="48.71942" lon="-3.00284">
        <ele>92.044293</ele>
        <time>2023-03-24T17:59:48.883Z</time>
      </trkpt>
      <trkpt lat="48.71936" lon="-3.003">
        <ele>91.799684</ele>
        <time>2023-03-24T17:59:51.463Z</time>
      </trkpt>
      <trkpt lat="48.71926" lon="-3.00314">
        <ele>91.806368</ele>
        <time>2023-03-24T17:59:54.015Z</time>
      </trkpt>
      <trkpt lat="48.71902" lon="-3.00349">
        <ele>91.823187</ele>
        <time>2023-03-24T18:00:01.034Z</time>
      </trkpt>
      <trkpt lat="48.71883" lon="-3.00355">
        <ele>91.83329</ele>
        <time>2023-03-24T18:00:05.276Z</time>
      </trkpt>
      <trkpt lat="48.71868" lon="-3.00361">
        <ele>91.84098</ele>
        <time>2023-03-24T18:00:08.581Z</time>
      </trkpt>
      <trkpt lat="48.71847" lon="-3.00378">
        <ele>91.853101</ele>
        <time>2023-03-24T18:00:14.529Z</time>
      </trkpt>
      <trkpt lat="48.71834" lon="-3.00383">
        <ele>91.85978</ele>
        <time>2023-03-24T18:00:17.395Z</time>
      </trkpt>
      <trkpt lat="48.71819" lon="-3.00385">
        <ele>91.867391</ele>
        <time>2023-03-24T18:00:21.491Z</time>
      </trkpt>
      <trkpt lat="48.71732" lon="-3.00376">
        <ele>92.732242</ele>
        <time>2023-03-24T18:00:48.845Z</time>
      </trkpt>
      <trkpt lat="48.71721" lon="-3.00378">
        <ele>92.961649</ele>
        <time>2023-03-24T18:00:52.678Z</time>
      </trkpt>
      <trkpt lat="48.71709" lon="-3.00384">
        <ele>93.207344</ele>
        <time>2023-03-24T18:00:57.367Z</time>
      </trkpt>
      <trkpt lat="48.71629" lon="-3.00455">
        <ele>95.048824</ele>
        <time>2023-03-24T18:01:41.087Z</time>
      </trkpt>
      <trkpt lat="48.716" lon="-3.00474">
        <ele>95.646665</ele>
        <time>2023-03-24T18:01:56.501Z</time>
      </trkpt>
      <trkpt lat="48.71543" lon="-3.00505">
        <ele>96.708589</ele>
        <time>2023-03-24T18:02:25.904Z</time>
      </trkpt>
      <trkpt lat="48.71499" lon="-3.0066">
        <ele>98.631016</ele>
        <time>2023-03-24T18:03:15.642Z</time>
      </trkpt>
      <trkpt lat="48.71491" lon="-3.00675">
        <ele>98.709091</ele>
        <time>2023-03-24T18:03:20.959Z</time>
      </trkpt>
      <trkpt lat="48.71477" lon="-3.00694">
        <ele>98.830002</ele>
        <time>2023-03-24T18:03:29.317Z</time>
      </trkpt>
      <trkpt lat="48.71442" lon="-3.00728">
        <ele>99.086756</ele>
        <time>2023-03-24T18:03:46.361Z</time>
      </trkpt>
      <trkpt lat="48.71415" lon="-3.00779">
        <ele>99.353292</ele>
        <time>2023-03-24T18:04:03.424Z</time>
      </trkpt>
      <trkpt lat="48.71412" lon="-3.0079">
        <ele>99.3986</ele>
        <time>2023-03-24T18:04:06.226Z</time>
      </trkpt>
      <trkpt lat="48.7138" lon="-3.008">
        <ele>99.601204</ele>
        <time>2023-03-24T18:04:18.629Z</time>
      </trkpt>
      <trkpt lat="48.71338" lon="-3.00799">
        <ele>99.727023</ele>
        <time>2023-03-24T18:04:34.181Z</time>
      </trkpt>
      <trkpt lat="48.71319" lon="-3.0082">
        <ele>99.725323</ele>
        <time>2023-03-24T18:04:43.079Z</time>
      </trkpt>
      <trkpt lat="48.71288" lon="-3.00822">
        <ele>99.723031</ele>
        <time>2023-03-24T18:04:54.810Z</time>
      </trkpt>
      <trkpt lat="48.7127" lon="-3.00827">
        <ele>99.721618</ele>
        <time>2023-03-24T18:05:01.731Z</time>
      </trkpt>
      <trkpt lat="48.71222" lon="-3.00853">
        <ele>99.717857</ele>
        <time>2023-03-24T18:05:20.692Z</time>
      </trkpt>
      <trkpt lat="48.71219" lon="-3.00869">
        <ele>99.717052</ele>
        <time>2023-03-24T18:05:24.599Z</time>
      </trkpt>
      <trkpt lat="48.71211" lon="-3.00887">
        <ele>99.716015</ele>
        <time>2023-03-24T18:05:29.642Z</time>
      </trkpt>
      <trkpt lat="48.71208" lon="-3.0089">
        <ele>99.715729</ele>
        <time>2023-03-24T18:05:31.043Z</time>
      </trkpt>
      <trkpt lat="48.71203" lon="-3.00893">
        <ele>99.715336</ele>
        <time>2023-03-24T18:05:33.389Z</time>
      </trkpt>
      <trkpt lat="48.71189" lon="-3.00927">
        <ele>99.622741</ele>
        <time>2023-03-24T18:05:42.709Z</time>
      </trkpt>
      <trkpt lat="48.71177" lon="-3.00969">
        <ele>99.513747</ele>
        <time>2023-03-24T18:05:53.830Z</time>
      </trkpt>
      <trkpt lat="48.71172" lon="-3.01032">
        <ele>99.362273</ele>
        <time>2023-03-24T18:06:09.076Z</time>
      </trkpt>
      <trkpt lat="48.71162" lon="-3.01078">
        <ele>99.247839</ele>
        <time>2023-03-24T18:06:20.713Z</time>
      </trkpt>
      <trkpt lat="48.71134" lon="-3.01173">
        <ele>98.974331</ele>
        <time>2023-03-24T18:06:45.055Z</time>
      </trkpt>
      <trkpt lat="48.71133" lon="-3.01203">
        <ele>98.874816</ele>
        <time>2023-03-24T18:06:51.797Z</time>
      </trkpt>
      <trkpt lat="48.71155" lon="-3.01333">
        <ele>98.423354</ele>
        <time>2023-03-24T18:07:23.164Z</time>
      </trkpt>
      <trkpt lat="48.71153" lon="-3.01376">
        <ele>98.280794</ele>
        <time>2023-03-24T18:07:33.239Z</time>
      </trkpt>
      <trkpt lat="48.7115" lon="-3.01405">
        <ele>98.180616</ele>
        <time>2023-03-24T18:07:40.217Z</time>
      </trkpt>
      <trkpt lat="48.71121" lon="-3.01432">
        <ele>98.287767</ele>
        <time>2023-03-24T18:07:47.967Z</time>
      </trkpt>
      <trkpt lat="48.71105" lon="-3.01448">
        <ele>98.37545</ele>
        <time>2023-03-24T18:07:52.624Z</time>
      </trkpt>
      <trkpt lat="48.71095" lon="-3.01458">
        <ele>98.430623</ele>
        <time>2023-03-24T18:07:55.371Z</time>
      </trkpt>
      <trkpt lat="48.71087" lon="-3.01462">
        <ele>98.46884</ele>
        <time>2023-03-24T18:07:57.290Z</time>
      </trkpt>
      <trkpt lat="48.71014" lon="-3.01471">
        <ele>98.797063</ele>
        <time>2023-03-24T18:08:16.224Z</time>
      </trkpt>
      <trkpt lat="48.70926" lon="-3.01499">
        <ele>99.718709</ele>
        <time>2023-03-24T18:08:42.745Z</time>
      </trkpt>
      <trkpt lat="48.70906" lon="-3.0151">
        <ele>100.026287</ele>
        <time>2023-03-24T18:08:49.436Z</time>
      </trkpt>
      <trkpt lat="48.70886" lon="-3.01541">
        <ele>100.440947</ele>
        <time>2023-03-24T18:08:58.202Z</time>
      </trkpt>
      <trkpt lat="48.70879" lon="-3.0156">
        <ele>100.646985</ele>
        <time>2023-03-24T18:09:02.580Z</time>
      </trkpt>
      <trkpt lat="48.70866" lon="-3.01619">
        <ele>101.234065</ele>
        <time>2023-03-24T18:09:15.194Z</time>
      </trkpt>
      <trkpt lat="48.70843" lon="-3.01758">
        <ele>102.479864</ele>
        <time>2023-03-24T18:09:44.860Z</time>
      </trkpt>
      <trkpt lat="48.70824" lon="-3.01836">
        <ele>103.177911</ele>
        <time>2023-03-24T18:10:01.106Z</time>
      </trkpt>
      <trkpt lat="48.70718" lon="-3.02079">
        <ele>104.761376</ele>
        <time>2023-03-24T18:10:53.746Z</time>
      </trkpt>
      <trkpt lat="48.70667" lon="-3.02217">
        <ele>104.715705</ele>
        <time>2023-03-24T18:11:17.942Z</time>
      </trkpt>
      <trkpt lat="48.70643" lon="-3.02281">
        <ele>104.476798</ele>
        <time>2023-03-24T18:11:28.446Z</time>
      </trkpt>
      <trkpt lat="48.7062" lon="-3.02329">
        <ele>104.284716</ele>
        <time>2023-03-24T18:11:36.747Z</time>
      </trkpt>
      <trkpt lat="48.70596" lon="-3.02372">
        <ele>104.007554</ele>
        <time>2023-03-24T18:11:44.639Z</time>
      </trkpt>
      <trkpt lat="48.70568" lon="-3.02409">
        <ele>103.407857</ele>
        <time>2023-03-24T18:11:52.266Z</time>
      </trkpt>
      <trkpt lat="48.70497" lon="-3.02486">
        <ele>102.011422</ele>
        <time>2023-03-24T18:12:09.172Z</time>
      </trkpt>
      <trkpt lat="48.70469" lon="-3.0252">
        <ele>101.426739</ele>
        <time>2023-03-24T18:12:16.163Z</time>
      </trkpt>
      <trkpt lat="48.70456" lon="-3.02548">
        <ele>100.992848</ele>
        <time>2023-03-24T18:12:20.435Z</time>
      </trkpt>
      <trkpt lat="48.70451" lon="-3.02609">
        <ele>100.044775</ele>
        <time>2023-03-24T18:12:28.427Z</time>
      </trkpt>
      <trkpt lat="48.70451" lon="-3.02624">
        <ele>99.81674</ele>
        <time>2023-03-24T18:12:31.644Z</time>
      </trkpt>
      <trkpt lat="48.70415" lon="-3.02627">
        <ele>98.993177</ele>
        <time>2023-03-24T18:12:43.245Z</time>
      </trkpt>
      <trkpt lat="48.70346" lon="-3.02645">
        <ele>97.360432</ele>
        <time>2023-03-24T18:13:05.226Z</time>
      </trkpt>
      <trkpt lat="48.70277" lon="-3.02632">
        <ele>94.963613</ele>
        <time>2023-03-24T18:13:27.261Z</time>
      </trkpt>
      <trkpt lat="48.7027" lon="-3.0269">
        <ele>93.546342</ele>
        <time>2023-03-24T18:13:39.195Z</time>
      </trkpt>
      <trkpt lat="48.70276" lon="-3.02778">
        <ele>91.407428</ele>
        <time>2023-03-24T18:13:56.406Z</time>
      </trkpt>
      <trkpt lat="48.7027" lon="-3.02826">
        <ele>90.152947</ele>
        <time>2023-03-24T18:14:05.850Z</time>
      </trkpt>
      <trkpt lat="48.70255" lon="-3.02866">
        <ele>88.819774</ele>
        <time>2023-03-24T18:14:14.498Z</time>
      </trkpt>
      <trkpt lat="48.70234" lon="-3.02957">
        <ele>85.971568</ele>
        <time>2023-03-24T18:14:33.251Z</time>
      </trkpt>
      <trkpt lat="48.70226" lon="-3.02956">
        <ele>85.587638</ele>
        <time>2023-03-24T18:14:35.739Z</time>
      </trkpt>
      <trkpt lat="48.70186" lon="-3.02976">
        <ele>83.721387</ele>
        <time>2023-03-24T18:14:48.116Z</time>
      </trkpt>
      <trkpt lat="48.7013" lon="-3.03011">
        <ele>81.463145</ele>
        <time>2023-03-24T18:15:05.943Z</time>
      </trkpt>
      <trkpt lat="48.70106" lon="-3.03033">
        <ele>80.590578</ele>
        <time>2023-03-24T18:15:14.300Z</time>
      </trkpt>
      <trkpt lat="48.7003" lon="-3.03136">
        <ele>77.369916</ele>
        <time>2023-03-24T18:15:46.208Z</time>
      </trkpt>
      <trkpt lat="48.70004" lon="-3.03194">
        <ele>76.563969</ele>
        <time>2023-03-24T18:16:01.140Z</time>
      </trkpt>
      <trkpt lat="48.69985" lon="-3.03212">
        <ele>76.344573</ele>
        <time>2023-03-24T18:16:08.528Z</time>
      </trkpt>
      <trkpt lat="48.69964" lon="-3.03235">
        <ele>76.092557</ele>
        <time>2023-03-24T18:16:15.501Z</time>
      </trkpt>
      <trkpt lat="48.69957" lon="-3.03246">
        <ele>75.992494</ele>
        <time>2023-03-24T18:16:18.198Z</time>
      </trkpt>
      <trkpt lat="48.69948" lon="-3.03249">
        <ele>75.904898</ele>
        <time>2023-03-24T18:16:21.479Z</time>
      </trkpt>
      <trkpt lat="48.69944" lon="-3.0325">
        <ele>75.866982</ele>
        <time>2023-03-24T18:16:22.901Z</time>
      </trkpt>
      <trkpt lat="48.69939" lon="-3.03252">
        <ele>75.812288</ele>
        <time>2023-03-24T18:16:24.869Z</time>
      </trkpt>
      <trkpt lat="48.69891" lon="-3.03284">
        <ele>75.30817</ele>
        <time>2023-03-24T18:16:43.527Z</time>
      </trkpt>
      <trkpt lat="48.69859" lon="-3.03319">
        <ele>75.058771</ele>
        <time>2023-03-24T18:16:58.417Z</time>
      </trkpt>
      <trkpt lat="48.69835" lon="-3.03349">
        <ele>74.981446</ele>
        <time>2023-03-24T18:17:10.940Z</time>
      </trkpt>
      <trkpt lat="48.69806" lon="-3.03393">
        <ele>74.879195</ele>
        <time>2023-03-24T18:17:27.150Z</time>
      </trkpt>
      <trkpt lat="48.69784" lon="-3.03434">
        <ele>74.793413</ele>
        <time>2023-03-24T18:17:39.941Z</time>
      </trkpt>
      <trkpt lat="48.69752" lon="-3.03468">
        <ele>74.695143</ele>
        <time>2023-03-24T18:17:53.938Z</time>
      </trkpt>
      <trkpt lat="48.69719" lon="-3.03534">
        <ele>73.389179</ele>
        <time>2023-03-24T18:18:12.102Z</time>
      </trkpt>
      <trkpt lat="48.69705" lon="-3.03577">
        <ele>72.386935</ele>
        <time>2023-03-24T18:18:22.062Z</time>
      </trkpt>
      <trkpt lat="48.6969" lon="-3.03646">
        <ele>70.833702</ele>
        <time>2023-03-24T18:18:36.815Z</time>
      </trkpt>
      <trkpt lat="48.69684" lon="-3.03664">
        <ele>70.424653</ele>
        <time>2023-03-24T18:18:40.610Z</time>
      </trkpt>
      <trkpt lat="48.69649" lon="-3.03773">
        <ele>67.263209</ele>
        <time>2023-03-24T18:19:03.790Z</time>
      </trkpt>
      <trkpt lat="48.6965" lon="-3.0385">
        <ele>64.669439</ele>
        <time>2023-03-24T18:19:18.296Z</time>
      </trkpt>
      <trkpt lat="48.69627" lon="-3.03951">
        <ele>61.104776</ele>
        <time>2023-03-24T18:19:38.577Z</time>
      </trkpt>
      <trkpt lat="48.69616" lon="-3.04009">
        <ele>59.167956</ele>
        <time>2023-03-24T18:19:49.980Z</time>
      </trkpt>
      <trkpt lat="48.69613" lon="-3.04051">
        <ele>57.96183</ele>
        <time>2023-03-24T18:19:57.908Z</time>
      </trkpt>
      <trkpt lat="48.69616" lon="-3.04075">
        <ele>57.242622</ele>
        <time>2023-03-24T18:20:02.603Z</time>
      </trkpt>
      <trkpt lat="48.69622" lon="-3.04096">
        <ele>56.586365</ele>
        <time>2023-03-24T18:20:06.963Z</time>
      </trkpt>
      <trkpt lat="48.69634" lon="-3.0416">
        <ele>54.651761</ele>
        <time>2023-03-24T18:20:20.024Z</time>
      </trkpt>
      <trkpt lat="48.69635" lon="-3.04187">
        <ele>53.882432</ele>
        <time>2023-03-24T18:20:25.121Z</time>
      </trkpt>
      <trkpt lat="48.69597" lon="-3.04327">
        <ele>50.266442</ele>
        <time>2023-03-24T18:20:42.779Z</time>
      </trkpt>
      <trkpt lat="48.69593" lon="-3.04367">
        <ele>49.439256</ele>
        <time>2023-03-24T18:20:47.618Z</time>
      </trkpt>
      <trkpt lat="48.69593" lon="-3.04418">
        <ele>48.42842</ele>
        <time>2023-03-24T18:20:53.412Z</time>
      </trkpt>
      <trkpt lat="48.69591" lon="-3.0445">
        <ele>47.793234</ele>
        <time>2023-03-24T18:20:57.233Z</time>
      </trkpt>
      <trkpt lat="48.69582" lon="-3.04495">
        <ele>46.851772</ele>
        <time>2023-03-24T18:21:03.126Z</time>
      </trkpt>
      <trkpt lat="48.69575" lon="-3.0452">
        <ele>46.472921</ele>
        <time>2023-03-24T18:21:06.580Z</time>
      </trkpt>
      <trkpt lat="48.69557" lon="-3.04555">
        <ele>46.490771</ele>
        <time>2023-03-24T18:21:12.415Z</time>
      </trkpt>
      <trkpt lat="48.69534" lon="-3.0456">
        <ele>46.505403</ele>
        <time>2023-03-24T18:21:17.775Z</time>
      </trkpt>
      <trkpt lat="48.69542" lon="-3.04575">
        <ele>46.513028</ele>
        <time>2023-03-24T18:21:21.945Z</time>
      </trkpt>
      <trkpt lat="48.69542" lon="-3.04583">
        <ele>46.516211</ele>
        <time>2023-03-24T18:21:24.118Z</time>
      </trkpt>
      <trkpt lat="48.69526" lon="-3.04624">
        <ele>46.535674</ele>
        <time>2023-03-24T18:21:35.538Z</time>
      </trkpt>
      <trkpt lat="48.69526" lon="-3.04624">
        <ele>46.535674</ele>
        <time>2023-03-24T18:21:35.550Z</time>
      </trkpt>
      <trkpt lat="48.69522" lon="-3.04628">
        <ele>46.538618</ele>
        <time>2023-03-24T18:21:37.611Z</time>
      </trkpt>
      <trkpt lat="48.69513" lon="-3.04615">
        <ele>46.546296</ele>
        <time>2023-03-24T18:21:42.813Z</time>
      </trkpt>
      <trkpt lat="48.6951" lon="-3.04605">
        <ele>46.550651</ele>
        <time>2023-03-24T18:21:45.714Z</time>
      </trkpt>
      <trkpt lat="48.6951" lon="-3.04597">
        <ele>46.55394</ele>
        <time>2023-03-24T18:21:47.566Z</time>
      </trkpt>
      <trkpt lat="48.69515" lon="-3.04562">
        <ele>46.568669</ele>
        <time>2023-03-24T18:21:57.871Z</time>
      </trkpt>
      <trkpt lat="48.69497" lon="-3.04557">
        <ele>46.57979</ele>
        <time>2023-03-24T18:22:02.559Z</time>
      </trkpt>
      <trkpt lat="48.69474" lon="-3.04545">
        <ele>47.587183</ele>
        <time>2023-03-24T18:22:12.041Z</time>
      </trkpt>
      <trkpt lat="48.69462" lon="-3.04565">
        <ele>48.333505</ele>
        <time>2023-03-24T18:22:18.532Z</time>
      </trkpt>
      <trkpt lat="48.69437" lon="-3.04604">
        <ele>49.863121</ele>
        <time>2023-03-24T18:22:34.233Z</time>
      </trkpt>
      <trkpt lat="48.6942" lon="-3.04591">
        <ele>50.650824</ele>
        <time>2023-03-24T18:22:43.054Z</time>
      </trkpt>
      <trkpt lat="48.69423" lon="-3.04571">
        <ele>51.203224</ele>
        <time>2023-03-24T18:22:48.669Z</time>
      </trkpt>
      <trkpt lat="48.6943" lon="-3.04519">
        <ele>52.670777</ele>
        <time>2023-03-24T18:23:05.005Z</time>
      </trkpt>
      <trkpt lat="48.69427" lon="-3.04459">
        <ele>54.422369</ele>
        <time>2023-03-24T18:23:26.017Z</time>
      </trkpt>
      <trkpt lat="48.69418" lon="-3.04418">
        <ele>56.121729</ele>
        <time>2023-03-24T18:23:41.272Z</time>
      </trkpt>
      <trkpt lat="48.6938" lon="-3.0432">
        <ele>60.527531</ele>
        <time>2023-03-24T18:24:20.891Z</time>
      </trkpt>
      <trkpt lat="48.69376" lon="-3.04303">
        <ele>61.20543</ele>
        <time>2023-03-24T18:24:27.560Z</time>
      </trkpt>
      <trkpt lat="48.69375" lon="-3.04287">
        <ele>61.828048</ele>
        <time>2023-03-24T18:24:33.470Z</time>
      </trkpt>
      <trkpt lat="48.6938" lon="-3.04231">
        <ele>64.041572</ele>
        <time>2023-03-24T18:24:52.583Z</time>
      </trkpt>
      <trkpt lat="48.69405" lon="-3.04086">
        <ele>68.447291</ele>
        <time>2023-03-24T18:25:38.900Z</time>
      </trkpt>
      <trkpt lat="48.69405" lon="-3.04041">
        <ele>69.713549</ele>
        <time>2023-03-24T18:25:51.259Z</time>
      </trkpt>
      <trkpt lat="48.69399" lon="-3.04001">
        <ele>70.877373</ele>
        <time>2023-03-24T18:26:02.004Z</time>
      </trkpt>
      <trkpt lat="48.69395" lon="-3.03954">
        <ele>72.226253</ele>
        <time>2023-03-24T18:26:14.125Z</time>
      </trkpt>
      <trkpt lat="48.69404" lon="-3.0383">
        <ele>74.854383</ele>
        <time>2023-03-24T18:26:45.225Z</time>
      </trkpt>
      <trkpt lat="48.69367" lon="-3.0381">
        <ele>76.090035</ele>
        <time>2023-03-24T18:27:06.041Z</time>
      </trkpt>
      <trkpt lat="48.69359" lon="-3.03801">
        <ele>76.391939</ele>
        <time>2023-03-24T18:27:11.016Z</time>
      </trkpt>
      <trkpt lat="48.69316" lon="-3.03712">
        <ele>78.483966</ele>
        <time>2023-03-24T18:27:50.336Z</time>
      </trkpt>
      <trkpt lat="48.69268" lon="-3.03516">
        <ele>81.408185</ele>
        <time>2023-03-24T18:28:56.692Z</time>
      </trkpt>
      <trkpt lat="48.69253" lon="-3.03486">
        <ele>81.87234</ele>
        <time>2023-03-24T18:29:07.208Z</time>
      </trkpt>
      <trkpt lat="48.69238" lon="-3.0347">
        <ele>81.838907</ele>
        <time>2023-03-24T18:29:14.622Z</time>
      </trkpt>
      <trkpt lat="48.69187" lon="-3.03442">
        <ele>81.73878</ele>
        <time>2023-03-24T18:29:35.905Z</time>
      </trkpt>
      <trkpt lat="48.69154" lon="-3.03405">
        <ele>81.662522</ele>
        <time>2023-03-24T18:29:51.034Z</time>
      </trkpt>
      <trkpt lat="48.69143" lon="-3.03349">
        <ele>81.591322</ele>
        <time>2023-03-24T18:30:04.513Z</time>
      </trkpt>
      <trkpt lat="48.69158" lon="-3.03248">
        <ele>80.453226</ele>
        <time>2023-03-24T18:30:26.960Z</time>
      </trkpt>
      <trkpt lat="48.69166" lon="-3.03212">
        <ele>79.815697</ele>
        <time>2023-03-24T18:30:35.002Z</time>
      </trkpt>
      <trkpt lat="48.69167" lon="-3.03175">
        <ele>79.210316</ele>
        <time>2023-03-24T18:30:42.481Z</time>
      </trkpt>
      <trkpt lat="48.69165" lon="-3.0315">
        <ele>78.779699</ele>
        <time>2023-03-24T18:30:47.884Z</time>
      </trkpt>
      <trkpt lat="48.69136" lon="-3.03115">
        <ele>77.852517</ele>
        <time>2023-03-24T18:30:59.525Z</time>
      </trkpt>
      <trkpt lat="48.69062" lon="-3.03014">
        <ele>74.623373</ele>
        <time>2023-03-24T18:31:30.109Z</time>
      </trkpt>
      <trkpt lat="48.69062" lon="-3.03014">
        <ele>74.623373</ele>
        <time>2023-03-24T18:31:30.112Z</time>
      </trkpt>
      <trkpt lat="48.69026" lon="-3.02902">
        <ele>71.635983</ele>
        <time>2023-03-24T18:31:54.784Z</time>
      </trkpt>
      <trkpt lat="48.6902" lon="-3.0284">
        <ele>70.05706</ele>
        <time>2023-03-24T18:32:07.291Z</time>
      </trkpt>
      <trkpt lat="48.68821" lon="-3.02378">
        <ele>54.31534</ele>
        <time>2023-03-24T18:33:54.121Z</time>
      </trkpt>
      <trkpt lat="48.68831" lon="-3.02357">
        <ele>53.652748</ele>
        <time>2023-03-24T18:33:56.943Z</time>
      </trkpt>
      <trkpt lat="48.68827" lon="-3.02357">
        <ele>53.522011</ele>
        <time>2023-03-24T18:33:57.958Z</time>
      </trkpt>
      <trkpt lat="48.68816" lon="-3.02357">
        <ele>53.087762</ele>
        <time>2023-03-24T18:34:01.249Z</time>
      </trkpt>
      <trkpt lat="48.68741" lon="-3.02359">
        <ele>50.197801</ele>
        <time>2023-03-24T18:34:23.820Z</time>
      </trkpt>
      <trkpt lat="48.68639" lon="-3.02369">
        <ele>46.786733</ele>
        <time>2023-03-24T18:34:54.979Z</time>
      </trkpt>
      <trkpt lat="48.68619" lon="-3.0237">
        <ele>46.243375</ele>
        <time>2023-03-24T18:35:01.361Z</time>
      </trkpt>
      <trkpt lat="48.68543" lon="-3.02377">
        <ele>44.230402</ele>
        <time>2023-03-24T18:35:25.606Z</time>
      </trkpt>
      <trkpt lat="48.6854" lon="-3.02377">
        <ele>44.128802</ele>
        <time>2023-03-24T18:35:26.818Z</time>
      </trkpt>
      <trkpt lat="48.68524" lon="-3.02424">
        <ele>43.206903</ele>
        <time>2023-03-24T18:35:37.898Z</time>
      </trkpt>
      <trkpt lat="48.68516" lon="-3.02436">
        <ele>42.953137</ele>
        <time>2023-03-24T18:35:41.431Z</time>
      </trkpt>
      <trkpt lat="48.68509" lon="-3.02453">
        <ele>42.650123</ele>
        <time>2023-03-24T18:35:45.731Z</time>
      </trkpt>
      <trkpt lat="48.68505" lon="-3.0247">
        <ele>42.392949</ele>
        <time>2023-03-24T18:35:49.336Z</time>
      </trkpt>
      <trkpt lat="48.68484" lon="-3.02511">
        <ele>41.617095</ele>
        <time>2023-03-24T18:36:00.048Z</time>
      </trkpt>
      <trkpt lat="48.68431" lon="-3.02659">
        <ele>39.134098</ele>
        <time>2023-03-24T18:36:35.826Z</time>
      </trkpt>
      <trkpt lat="48.68439" lon="-3.02716">
        <ele>39.103598</ele>
        <time>2023-03-24T18:36:48.692Z</time>
      </trkpt>
      <trkpt lat="48.68444" lon="-3.02735">
        <ele>39.092976</ele>
        <time>2023-03-24T18:36:53.285Z</time>
      </trkpt>
      <trkpt lat="48.68455" lon="-3.02744">
        <ele>39.082551</ele>
        <time>2023-03-24T18:36:57.753Z</time>
      </trkpt>
      <trkpt lat="48.68458" lon="-3.02755">
        <ele>39.076474</ele>
        <time>2023-03-24T18:37:00.616Z</time>
      </trkpt>
      <trkpt lat="48.68458" lon="-3.02852">
        <ele>39.025384</ele>
        <time>2023-03-24T18:37:25.256Z</time>
      </trkpt>
      <trkpt lat="48.68456" lon="-3.02917">
        <ele>38.991276</ele>
        <time>2023-03-24T18:37:43.232Z</time>
      </trkpt>
      <trkpt lat="48.68451" lon="-3.02959">
        <ele>39.494423</ele>
        <time>2023-03-24T18:37:56.186Z</time>
      </trkpt>
      <trkpt lat="48.68447" lon="-3.02974">
        <ele>39.690432</ele>
        <time>2023-03-24T18:38:01.371Z</time>
      </trkpt>
      <trkpt lat="48.68439" lon="-3.0298">
        <ele>39.852584</ele>
        <time>2023-03-24T18:38:06.147Z</time>
      </trkpt>
      <trkpt lat="48.68426" lon="-3.02982">
        <ele>40.079389</ele>
        <time>2023-03-24T18:38:11.323Z</time>
      </trkpt>
      <trkpt lat="48.68419" lon="-3.03022">
        <ele>40.573547</ele>
        <time>2023-03-24T18:38:24.752Z</time>
      </trkpt>
      <trkpt lat="48.68416" lon="-3.03029">
        <ele>40.669574</ele>
        <time>2023-03-24T18:38:26.977Z</time>
      </trkpt>
      <trkpt lat="48.68411" lon="-3.03032">
        <ele>40.766451</ele>
        <time>2023-03-24T18:38:29.278Z</time>
      </trkpt>
      <trkpt lat="48.683" lon="-3.02995">
        <ele>42.722397</ele>
        <time>2023-03-24T18:39:23.075Z</time>
      </trkpt>
      <trkpt lat="48.68287" lon="-3.02984">
        <ele>42.946865</ele>
        <time>2023-03-24T18:39:29.770Z</time>
      </trkpt>
      <trkpt lat="48.68255" lon="-3.02947">
        <ele>43.543822</ele>
        <time>2023-03-24T18:39:47.395Z</time>
      </trkpt>
      <trkpt lat="48.68223" lon="-3.02902">
        <ele>44.182921</ele>
        <time>2023-03-24T18:40:06.357Z</time>
      </trkpt>
      <trkpt lat="48.68202" lon="-3.02884">
        <ele>44.539756</ele>
        <time>2023-03-24T18:40:17.069Z</time>
      </trkpt>
      <trkpt lat="48.68082" lon="-3.02725">
        <ele>46.171321</ele>
        <time>2023-03-24T18:41:26.110Z</time>
      </trkpt>
      <trkpt lat="48.68026" lon="-3.02655">
        <ele>46.35133</ele>
        <time>2023-03-24T18:41:54.456Z</time>
      </trkpt>
      <trkpt lat="48.67939" lon="-3.02556">
        <ele>45.395197</ele>
        <time>2023-03-24T18:42:32.000Z</time>
      </trkpt>
      <trkpt lat="48.67887" lon="-3.02486">
        <ele>44.688675</ele>
        <time>2023-03-24T18:42:54.824Z</time>
      </trkpt>
      <trkpt lat="48.67887" lon="-3.02486">
        <ele>44.688675</ele>
        <time>2023-03-24T18:42:54.839Z</time>
      </trkpt>
      <trkpt lat="48.67877" lon="-3.02469">
        <ele>44.501098</ele>
        <time>2023-03-24T18:42:59.707Z</time>
      </trkpt>
      <trkpt lat="48.67862" lon="-3.02417">
        <ele>44.041084</ele>
        <time>2023-03-24T18:43:12.048Z</time>
      </trkpt>
      <trkpt lat="48.67868" lon="-3.0237">
        <ele>43.650017</ele>
        <time>2023-03-24T18:43:22.720Z</time>
      </trkpt>
      <trkpt lat="48.67931" lon="-3.02223">
        <ele>43.437613</ele>
        <time>2023-03-24T18:44:03.370Z</time>
      </trkpt>
      <trkpt lat="48.67934" lon="-3.022">
        <ele>43.663419</ele>
        <time>2023-03-24T18:44:09.974Z</time>
      </trkpt>
      <trkpt lat="48.67932" lon="-3.02191">
        <ele>43.746738</ele>
        <time>2023-03-24T18:44:12.622Z</time>
      </trkpt>
      <trkpt lat="48.67893" lon="-3.02125">
        <ele>44.591011</ele>
        <time>2023-03-24T18:44:40.584Z</time>
      </trkpt>
      <trkpt lat="48.6789" lon="-3.0212">
        <ele>44.648907</ele>
        <time>2023-03-24T18:44:42.572Z</time>
      </trkpt>
      <trkpt lat="48.68031" lon="-3.02062">
        <ele>47.793121</ele>
        <time>2023-03-24T18:45:35.920Z</time>
      </trkpt>
      <trkpt lat="48.68033" lon="-3.0201">
        <ele>48.662855</ele>
        <time>2023-03-24T18:45:49.243Z</time>
      </trkpt>
      <trkpt lat="48.68051" lon="-3.01913">
        <ele>49.927617</ele>
        <time>2023-03-24T18:46:11.471Z</time>
      </trkpt>
      <trkpt lat="48.68059" lon="-3.01869">
        <ele>49.997136</ele>
        <time>2023-03-24T18:46:19.908Z</time>
      </trkpt>
      <trkpt lat="48.68071" lon="-3.018">
        <ele>50.107064</ele>
        <time>2023-03-24T18:46:31.344Z</time>
      </trkpt>
      <trkpt lat="48.68078" lon="-3.01765">
        <ele>50.161737</ele>
        <time>2023-03-24T18:46:36.546Z</time>
      </trkpt>
      <trkpt lat="48.68054" lon="-3.01768">
        <ele>50.216363</ele>
        <time>2023-03-24T18:46:41.631Z</time>
      </trkpt>
      <trkpt lat="48.6775" lon="-3.01895">
        <ele>48.568922</ele>
        <time>2023-03-24T18:47:48.595Z</time>
      </trkpt>
      <trkpt lat="48.67733" lon="-3.01896">
        <ele>48.51541</ele>
        <time>2023-03-24T18:47:52.446Z</time>
      </trkpt>
      <trkpt lat="48.67724" lon="-3.01892">
        <ele>48.484741</ele>
        <time>2023-03-24T18:47:54.693Z</time>
      </trkpt>
      <trkpt lat="48.67715" lon="-3.01883">
        <ele>48.450871</ele>
        <time>2023-03-24T18:47:57.193Z</time>
      </trkpt>
      <trkpt lat="48.67704" lon="-3.01866">
        <ele>48.40016</ele>
        <time>2023-03-24T18:48:00.951Z</time>
      </trkpt>
      <trkpt lat="48.67681" lon="-3.01762">
        <ele>48.732646</ele>
        <time>2023-03-24T18:48:19.003Z</time>
      </trkpt>
      <trkpt lat="48.67643" lon="-3.01605">
        <ele>49.781003</ele>
        <time>2023-03-24T18:48:51.393Z</time>
      </trkpt>
      <trkpt lat="48.67641" lon="-3.01588">
        <ele>49.889453</ele>
        <time>2023-03-24T18:48:54.716Z</time>
      </trkpt>
      <trkpt lat="48.67642" lon="-3.01564">
        <ele>50.035873</ele>
        <time>2023-03-24T18:48:59.471Z</time>
      </trkpt>
      <trkpt lat="48.67652" lon="-3.01437">
        <ele>50.516816</ele>
        <time>2023-03-24T18:49:22.791Z</time>
      </trkpt>
      <trkpt lat="48.67654" lon="-3.01347">
        <ele>50.856942</ele>
        <time>2023-03-24T18:49:38.200Z</time>
      </trkpt>
      <trkpt lat="48.67637" lon="-3.01169">
        <ele>50.76416</ele>
        <time>2023-03-24T18:50:05.004Z</time>
      </trkpt>
      <trkpt lat="48.67636" lon="-3.01083">
        <ele>50.574737</ele>
        <time>2023-03-24T18:50:17.246Z</time>
      </trkpt>
      <trkpt lat="48.67638" lon="-3.01063">
        <ele>50.529518</ele>
        <time>2023-03-24T18:50:20.198Z</time>
      </trkpt>
      <trkpt lat="48.67645" lon="-3.00951">
        <ele>50.419197</ele>
        <time>2023-03-24T18:50:36.437Z</time>
      </trkpt>
      <trkpt lat="48.67645" lon="-3.00666">
        <ele>50.664692</ele>
        <time>2023-03-24T18:51:20.809Z</time>
      </trkpt>
      <trkpt lat="48.67641" lon="-3.00613">
        <ele>50.858519</ele>
        <time>2023-03-24T18:51:29.706Z</time>
      </trkpt>
      <trkpt lat="48.67604" lon="-3.00621">
        <ele>51.066689</ele>
        <time>2023-03-24T18:51:40.169Z</time>
      </trkpt>
      <trkpt lat="48.67594" lon="-3.0063">
        <ele>51.133066</ele>
        <time>2023-03-24T18:51:43.371Z</time>
      </trkpt>
      <trkpt lat="48.67584" lon="-3.00645">
        <ele>51.207303</ele>
        <time>2023-03-24T18:51:46.902Z</time>
      </trkpt>
      <trkpt lat="48.67579" lon="-3.00647">
        <ele>51.236417</ele>
        <time>2023-03-24T18:51:48.530Z</time>
      </trkpt>
      <trkpt lat="48.67572" lon="-3.00649">
        <ele>51.278627</ele>
        <time>2023-03-24T18:51:50.890Z</time>
      </trkpt>
      <trkpt lat="48.67517" lon="-3.00606">
        <ele>51.922071</ele>
        <time>2023-03-24T18:52:07.890Z</time>
      </trkpt>
      <trkpt lat="48.67499" lon="-3.00596">
        <ele>52.147435</ele>
        <time>2023-03-24T18:52:13.722Z</time>
      </trkpt>
      <trkpt lat="48.67477" lon="-3.00598">
        <ele>52.405738</ele>
        <time>2023-03-24T18:52:23.501Z</time>
      </trkpt>
      <trkpt lat="48.67426" lon="-3.0062">
        <ele>53.010587</ele>
        <time>2023-03-24T18:52:46.185Z</time>
      </trkpt>
      <trkpt lat="48.674" lon="-3.00635">
        <ele>53.331221</ele>
        <time>2023-03-24T18:52:58.109Z</time>
      </trkpt>
      <trkpt lat="48.6737" lon="-3.00638">
        <ele>53.673664</ele>
        <time>2023-03-24T18:53:11.450Z</time>
      </trkpt>
      <trkpt lat="48.67326" lon="-3.00649">
        <ele>54.165717</ele>
        <time>2023-03-24T18:53:30.679Z</time>
      </trkpt>
      <trkpt lat="48.67291" lon="-3.00669">
        <ele>54.575102</ele>
        <time>2023-03-24T18:53:46.146Z</time>
      </trkpt>
      <trkpt lat="48.67263" lon="-3.00677">
        <ele>54.896036</ele>
        <time>2023-03-24T18:53:58.438Z</time>
      </trkpt>
      <trkpt lat="48.67225" lon="-3.00672">
        <ele>55.321903</ele>
        <time>2023-03-24T18:54:14.919Z</time>
      </trkpt>
      <trkpt lat="48.67165" lon="-3.00627">
        <ele>55.895397</ele>
        <time>2023-03-24T18:54:42.979Z</time>
      </trkpt>
      <trkpt lat="48.67119" lon="-3.00573">
        <ele>56.372693</ele>
        <time>2023-03-24T18:55:06.896Z</time>
      </trkpt>
      <trkpt lat="48.67081" lon="-3.00558">
        <ele>56.697765</ele>
        <time>2023-03-24T18:55:22.782Z</time>
      </trkpt>
      <trkpt lat="48.67057" lon="-3.00541">
        <ele>56.918904</ele>
        <time>2023-03-24T18:55:32.957Z</time>
      </trkpt>
      <trkpt lat="48.67072" lon="-3.00508">
        <ele>57.171572</ele>
        <time>2023-03-24T18:55:40.164Z</time>
      </trkpt>
      <trkpt lat="48.67121" lon="-3.00375">
        <ele>58.107911</ele>
        <time>2023-03-24T18:56:07.404Z</time>
      </trkpt>
      <trkpt lat="48.67127" lon="-3.00367">
        <ele>58.185327</ele>
        <time>2023-03-24T18:56:09.683Z</time>
      </trkpt>
      <trkpt lat="48.67129" lon="-3.00352">
        <ele>58.277862</ele>
        <time>2023-03-24T18:56:12.339Z</time>
      </trkpt>
      <trkpt lat="48.67268" lon="-2.99994">
        <ele>61.677934</ele>
        <time>2023-03-24T18:57:37.346Z</time>
      </trkpt>
      <trkpt lat="48.67209" lon="-2.99934">
        <ele>62.119362</ele>
        <time>2023-03-24T18:57:55.027Z</time>
      </trkpt>
      <trkpt lat="48.67125" lon="-2.99817">
        <ele>62.573945</ele>
        <time>2023-03-24T18:58:20.701Z</time>
      </trkpt>
      <trkpt lat="48.67048" lon="-2.99724">
        <ele>62.82299</ele>
        <time>2023-03-24T18:58:45.394Z</time>
      </trkpt>
      <trkpt lat="48.67004" lon="-2.99652">
        <ele>63.078099</ele>
        <time>2023-03-24T18:59:03.038Z</time>
      </trkpt>
      <trkpt lat="48.6698" lon="-2.99592">
        <ele>63.276947</ele>
        <time>2023-03-24T18:59:15.198Z</time>
      </trkpt>
      <trkpt lat="48.66945" lon="-2.99496">
        <ele>63.584478</ele>
        <time>2023-03-24T18:59:32.818Z</time>
      </trkpt>
      <trkpt lat="48.6694" lon="-2.99476">
        <ele>63.639567</ele>
        <time>2023-03-24T18:59:36.056Z</time>
      </trkpt>
      <trkpt lat="48.66921" lon="-2.99389">
        <ele>63.818733</ele>
        <time>2023-03-24T18:59:50.745Z</time>
      </trkpt>
      <trkpt lat="48.66907" lon="-2.99387">
        <ele>63.86184</ele>
        <time>2023-03-24T18:59:56.008Z</time>
      </trkpt>
      <trkpt lat="48.66873" lon="-2.9937">
        <ele>63.968666</ele>
        <time>2023-03-24T19:00:09.432Z</time>
      </trkpt>
      <trkpt lat="48.66853" lon="-2.99353">
        <ele>64.035799</ele>
        <time>2023-03-24T19:00:18.036Z</time>
      </trkpt>
      <trkpt lat="48.66726" lon="-2.99267">
        <ele>65.204853</ele>
        <time>2023-03-24T19:01:15.495Z</time>
      </trkpt>
      <trkpt lat="48.66664" lon="-2.99217">
        <ele>65.959448</ele>
        <time>2023-03-24T19:01:46.714Z</time>
      </trkpt>
      <trkpt lat="48.66664" lon="-2.99217">
        <ele>65.959448</ele>
        <time>2023-03-24T19:01:46.718Z</time>
      </trkpt>
      <trkpt lat="48.66644" lon="-2.99206">
        <ele>66.147553</ele>
        <time>2023-03-24T19:01:55.910Z</time>
      </trkpt>
      <trkpt lat="48.66536" lon="-2.99174">
        <ele>66.901644</ele>
        <time>2023-03-24T19:02:42.931Z</time>
      </trkpt>
      <trkpt lat="48.6643" lon="-2.9913">
        <ele>66.663184</ele>
        <time>2023-03-24T19:03:22.954Z</time>
      </trkpt>
      <trkpt lat="48.66391" lon="-2.99105">
        <ele>66.10223</ele>
        <time>2023-03-24T19:03:37.456Z</time>
      </trkpt>
      <trkpt lat="48.66349" lon="-2.99119">
        <ele>65.541175</ele>
        <time>2023-03-24T19:03:45.779Z</time>
      </trkpt>
      <trkpt lat="48.66329" lon="-2.99081">
        <ele>65.109014</ele>
        <time>2023-03-24T19:03:51.960Z</time>
      </trkpt>
      <trkpt lat="48.66306" lon="-2.99017">
        <ele>64.019505</ele>
        <time>2023-03-24T19:04:01.044Z</time>
      </trkpt>
      <trkpt lat="48.66266" lon="-2.98985">
        <ele>62.844593</ele>
        <time>2023-03-24T19:04:09.413Z</time>
      </trkpt>
      <trkpt lat="48.6626" lon="-2.98946">
        <ele>62.157668</ele>
        <time>2023-03-24T19:04:14.344Z</time>
      </trkpt>
      <trkpt lat="48.66268" lon="-2.98898">
        <ele>61.305144</ele>
        <time>2023-03-24T19:04:20.042Z</time>
      </trkpt>
      <trkpt lat="48.66267" lon="-2.98865">
        <ele>60.746864</ele>
        <time>2023-03-24T19:04:23.789Z</time>
      </trkpt>
      <trkpt lat="48.66261" lon="-2.98817">
        <ele>59.934369</ele>
        <time>2023-03-24T19:04:29.459Z</time>
      </trkpt>
      <trkpt lat="48.66244" lon="-2.98746">
        <ele>58.75333</ele>
        <time>2023-03-24T19:04:38.296Z</time>
      </trkpt>
      <trkpt lat="48.66236" lon="-2.98658">
        <ele>57.372568</ele>
        <time>2023-03-24T19:04:48.683Z</time>
      </trkpt>
      <trkpt lat="48.66164" lon="-2.98673">
        <ele>55.870949</ele>
        <time>2023-03-24T19:05:02.147Z</time>
      </trkpt>
      <trkpt lat="48.66093" lon="-2.98689">
        <ele>55.228532</ele>
        <time>2023-03-24T19:05:15.627Z</time>
      </trkpt>
      <trkpt lat="48.65942" lon="-2.98687">
        <ele>54.689461</ele>
        <time>2023-03-24T19:05:48.679Z</time>
      </trkpt>
      <trkpt lat="48.65908" lon="-2.98676">
        <ele>54.863441</ele>
        <time>2023-03-24T19:05:57.517Z</time>
      </trkpt>
      <trkpt lat="48.65894" lon="-2.98664">
        <ele>54.945053</ele>
        <time>2023-03-24T19:06:01.550Z</time>
      </trkpt>
      <trkpt lat="48.65876" lon="-2.98643">
        <ele>55.055895</ele>
        <time>2023-03-24T19:06:07.451Z</time>
      </trkpt>
      <trkpt lat="48.65868" lon="-2.98632">
        <ele>55.112759</ele>
        <time>2023-03-24T19:06:10.372Z</time>
      </trkpt>
      <trkpt lat="48.65826" lon="-2.98584">
        <ele>55.459273</ele>
        <time>2023-03-24T19:06:24.841Z</time>
      </trkpt>
      <trkpt lat="48.65799" lon="-2.98563">
        <ele>55.772287</ele>
        <time>2023-03-24T19:06:33.301Z</time>
      </trkpt>
      <trkpt lat="48.6576" lon="-2.98544">
        <ele>56.194716</ele>
        <time>2023-03-24T19:06:44.685Z</time>
      </trkpt>
      <trkpt lat="48.65685" lon="-2.98522">
        <ele>56.993162</ele>
        <time>2023-03-24T19:07:05.617Z</time>
      </trkpt>
      <trkpt lat="48.65681" lon="-2.98389">
        <ele>57.953349</ele>
        <time>2023-03-24T19:07:30.482Z</time>
      </trkpt>
      <trkpt lat="48.65669" lon="-2.98325">
        <ele>58.436615</ele>
        <time>2023-03-24T19:07:42.648Z</time>
      </trkpt>
      <trkpt lat="48.65656" lon="-2.98293">
        <ele>58.711348</ele>
        <time>2023-03-24T19:07:53.295Z</time>
      </trkpt>
      <trkpt lat="48.65647" lon="-2.98278">
        <ele>58.862772</ele>
        <time>2023-03-24T19:07:59.004Z</time>
      </trkpt>
      <trkpt lat="48.65606" lon="-2.98233">
        <ele>59.644572</ele>
        <time>2023-03-24T19:08:20.982Z</time>
      </trkpt>
      <trkpt lat="48.65602" lon="-2.98224">
        <ele>59.790092</ele>
        <time>2023-03-24T19:08:24.346Z</time>
      </trkpt>
      <trkpt lat="48.65599" lon="-2.98214">
        <ele>59.933374</ele>
        <time>2023-03-24T19:08:27.518Z</time>
      </trkpt>
      <trkpt lat="48.65599" lon="-2.98184">
        <ele>60.34273</ele>
        <time>2023-03-24T19:08:36.751Z</time>
      </trkpt>
      <trkpt lat="48.65595" lon="-2.98143">
        <ele>60.890851</ele>
        <time>2023-03-24T19:08:49.577Z</time>
      </trkpt>
      <trkpt lat="48.65498" lon="-2.98143">
        <ele>62.869267</ele>
        <time>2023-03-24T19:09:36.954Z</time>
      </trkpt>
      <trkpt lat="48.65426" lon="-2.98122">
        <ele>64.448059</ele>
        <time>2023-03-24T19:10:13.744Z</time>
      </trkpt>
      <trkpt lat="48.6538" lon="-2.98113">
        <ele>65.468468</ele>
        <time>2023-03-24T19:10:36.204Z</time>
      </trkpt>
      <trkpt lat="48.6534" lon="-2.98097">
        <ele>66.351544</ele>
        <time>2023-03-24T19:10:55.385Z</time>
      </trkpt>
      <trkpt lat="48.65314" lon="-2.98027">
        <ele>67.093133</ele>
        <time>2023-03-24T19:11:18.888Z</time>
      </trkpt>
      <trkpt lat="48.65307" lon="-2.97976">
        <ele>67.465348</ele>
        <time>2023-03-24T19:11:33.552Z</time>
      </trkpt>
      <trkpt lat="48.65299" lon="-2.97921">
        <ele>67.865136</ele>
        <time>2023-03-24T19:11:44.627Z</time>
      </trkpt>
      <trkpt lat="48.65299" lon="-2.97883">
        <ele>68.133628</ele>
        <time>2023-03-24T19:11:51.623Z</time>
      </trkpt>
      <trkpt lat="48.65307" lon="-2.9783">
        <ele>68.520264</ele>
        <time>2023-03-24T19:12:00.665Z</time>
      </trkpt>
      <trkpt lat="48.65305" lon="-2.97824">
        <ele>68.566467</ele>
        <time>2023-03-24T19:12:01.730Z</time>
      </trkpt>
      <trkpt lat="48.65301" lon="-2.97816">
        <ele>68.624669</ele>
        <time>2023-03-24T19:12:03.404Z</time>
      </trkpt>
      <trkpt lat="48.65295" lon="-2.97811">
        <ele>68.640705</ele>
        <time>2023-03-24T19:12:05.474Z</time>
      </trkpt>
      <trkpt lat="48.6526" lon="-2.97801">
        <ele>68.717044</ele>
        <time>2023-03-24T19:12:14.566Z</time>
      </trkpt>
      <trkpt lat="48.65247" lon="-2.97792">
        <ele>68.747922</ele>
        <time>2023-03-24T19:12:18.045Z</time>
      </trkpt>
      <trkpt lat="48.65229" lon="-2.97771">
        <ele>68.796768</ele>
        <time>2023-03-24T19:12:24.265Z</time>
      </trkpt>
      <trkpt lat="48.65236" lon="-2.97729">
        <ele>68.858365</ele>
        <time>2023-03-24T19:12:31.136Z</time>
      </trkpt>
      <trkpt lat="48.65237" lon="-2.97701">
        <ele>68.898729</ele>
        <time>2023-03-24T19:12:35.487Z</time>
      </trkpt>
      <trkpt lat="48.65235" lon="-2.97675">
        <ele>68.935678</ele>
        <time>2023-03-24T19:12:39.209Z</time>
      </trkpt>
      <trkpt lat="48.65216" lon="-2.97588">
        <ele>68.917036</ele>
        <time>2023-03-24T19:12:52.905Z</time>
      </trkpt>
      <trkpt lat="48.65206" lon="-2.97554">
        <ele>68.827134</ele>
        <time>2023-03-24T19:13:02.093Z</time>
      </trkpt>
      <trkpt lat="48.652" lon="-2.97491">
        <ele>68.675312</ele>
        <time>2023-03-24T19:13:16.821Z</time>
      </trkpt>
      <trkpt lat="48.65203" lon="-2.97472">
        <ele>68.628706</ele>
        <time>2023-03-24T19:13:21.342Z</time>
      </trkpt>
      <trkpt lat="48.65277" lon="-2.97384">
        <ele>68.470677</ele>
        <time>2023-03-24T19:13:55.512Z</time>
      </trkpt>
      <trkpt lat="48.65277" lon="-2.97379">
        <ele>68.490444</ele>
        <time>2023-03-24T19:13:56.578Z</time>
      </trkpt>
      <trkpt lat="48.65278" lon="-2.97371">
        <ele>68.519346</ele>
        <time>2023-03-24T19:13:58.868Z</time>
      </trkpt>
      <trkpt lat="48.6522" lon="-2.97272">
        <ele>69.000477</ele>
        <time>2023-03-24T19:14:32.095Z</time>
      </trkpt>
      <trkpt lat="48.65207" lon="-2.97229">
        <ele>69.17118</ele>
        <time>2023-03-24T19:14:45.230Z</time>
      </trkpt>
      <trkpt lat="48.65201" lon="-2.97175">
        <ele>69.408693</ele>
        <time>2023-03-24T19:15:01.148Z</time>
      </trkpt>
      <trkpt lat="48.65166" lon="-2.97125">
        <ele>70.253519</ele>
        <time>2023-03-24T19:15:23.175Z</time>
      </trkpt>
      <trkpt lat="48.65137" lon="-2.97108">
        <ele>70.795874</ele>
        <time>2023-03-24T19:15:37.678Z</time>
      </trkpt>
      <trkpt lat="48.6511" lon="-2.97101">
        <ele>71.281953</ele>
        <time>2023-03-24T19:15:50.869Z</time>
      </trkpt>
      <trkpt lat="48.64997" lon="-2.97101">
        <ele>72.874397</ele>
        <time>2023-03-24T19:16:42.775Z</time>
      </trkpt>
      <trkpt lat="48.64933" lon="-2.97092">
        <ele>73.434947</ele>
        <time>2023-03-24T19:17:10.851Z</time>
      </trkpt>
      <trkpt lat="48.64908" lon="-2.97094">
        <ele>73.651578</ele>
        <time>2023-03-24T19:17:20.807Z</time>
      </trkpt>
      <trkpt lat="48.6487" lon="-2.97082">
        <ele>73.995167</ele>
        <time>2023-03-24T19:17:35.682Z</time>
      </trkpt>
      <trkpt lat="48.64857" lon="-2.97087">
        <ele>74.026572</ele>
        <time>2023-03-24T19:17:40.578Z</time>
      </trkpt>
      <trkpt lat="48.64842" lon="-2.97076">
        <ele>73.883056</ele>
        <time>2023-03-24T19:17:44.003Z</time>
      </trkpt>
      <trkpt lat="48.64814" lon="-2.97073">
        <ele>73.647416</ele>
        <time>2023-03-24T19:17:49.885Z</time>
      </trkpt>
      <trkpt lat="48.64784" lon="-2.97059">
        <ele>73.375042</ele>
        <time>2023-03-24T19:17:56.570Z</time>
      </trkpt>
      <trkpt lat="48.64753" lon="-2.97037">
        <ele>73.084819</ele>
        <time>2023-03-24T19:18:03.585Z</time>
      </trkpt>
      <trkpt lat="48.64709" lon="-2.96986">
        <ele>72.610609</ele>
        <time>2023-03-24T19:18:14.955Z</time>
      </trkpt>
      <trkpt lat="48.64684" lon="-2.96972">
        <ele>72.390812</ele>
        <time>2023-03-24T19:18:20.417Z</time>
      </trkpt>
      <trkpt lat="48.64615" lon="-2.96952">
        <ele>71.811375</ele>
        <time>2023-03-24T19:18:34.980Z</time>
      </trkpt>
      <trkpt lat="48.64608" lon="-2.96943">
        <ele>71.738074</ele>
        <time>2023-03-24T19:18:36.834Z</time>
      </trkpt>
      <trkpt lat="48.64586" lon="-2.96869">
        <ele>71.294024</ele>
        <time>2023-03-24T19:18:48.401Z</time>
      </trkpt>
      <trkpt lat="48.64572" lon="-2.96857">
        <ele>71.155722</ele>
        <time>2023-03-24T19:18:52.142Z</time>
      </trkpt>
      <trkpt lat="48.64555" lon="-2.9685">
        <ele>71.026544</ele>
        <time>2023-03-24T19:18:55.890Z</time>
      </trkpt>
      <trkpt lat="48.64513" lon="-2.9685">
        <ele>70.780083</ele>
        <time>2023-03-24T19:19:05.305Z</time>
      </trkpt>
      <trkpt lat="48.64491" lon="-2.96841">
        <ele>70.651484</ele>
        <time>2023-03-24T19:19:10.140Z</time>
      </trkpt>
      <trkpt lat="48.64475" lon="-2.96828">
        <ele>70.547739</ele>
        <time>2023-03-24T19:19:14.078Z</time>
      </trkpt>
      <trkpt lat="48.64462" lon="-2.96805">
        <ele>70.427842</ele>
        <time>2023-03-24T19:19:18.466Z</time>
      </trkpt>
      <trkpt lat="48.64448" lon="-2.96782">
        <ele>70.31025</ele>
        <time>2023-03-24T19:19:22.847Z</time>
      </trkpt>
      <trkpt lat="48.64417" lon="-2.96671">
        <ele>69.848008</ele>
        <time>2023-03-24T19:19:39.832Z</time>
      </trkpt>
      <trkpt lat="48.64362" lon="-2.96573">
        <ele>69.361493</ele>
        <time>2023-03-24T19:19:57.973Z</time>
      </trkpt>
      <trkpt lat="48.64291" lon="-2.96486">
        <ele>69.000507</ele>
        <time>2023-03-24T19:20:18.190Z</time>
      </trkpt>
      <trkpt lat="48.64263" lon="-2.96369">
        <ele>69.077071</ele>
        <time>2023-03-24T19:20:37.451Z</time>
      </trkpt>
      <trkpt lat="48.64242" lon="-2.96318">
        <ele>69.114228</ele>
        <time>2023-03-24T19:20:47.297Z</time>
      </trkpt>
      <trkpt lat="48.64229" lon="-2.96295">
        <ele>69.132703</ele>
        <time>2023-03-24T19:20:52.299Z</time>
      </trkpt>
      <trkpt lat="48.64212" lon="-2.9627">
        <ele>69.171023</ele>
        <time>2023-03-24T19:20:58.274Z</time>
      </trkpt>
      <trkpt lat="48.64185" lon="-2.96241">
        <ele>69.254277</ele>
        <time>2023-03-24T19:21:06.493Z</time>
      </trkpt>
      <trkpt lat="48.64162" lon="-2.962">
        <ele>69.344121</ele>
        <time>2023-03-24T19:21:15.300Z</time>
      </trkpt>
      <trkpt lat="48.64143" lon="-2.96156">
        <ele>69.432873</ele>
        <time>2023-03-24T19:21:23.875Z</time>
      </trkpt>
      <trkpt lat="48.64126" lon="-2.96106">
        <ele>69.52557</ele>
        <time>2023-03-24T19:21:32.649Z</time>
      </trkpt>
      <trkpt lat="48.64092" lon="-2.95898">
        <ele>69.869607</ele>
        <time>2023-03-24T19:22:06.198Z</time>
      </trkpt>
      <trkpt lat="48.64038" lon="-2.95759">
        <ele>70.553177</ele>
        <time>2023-03-24T19:22:33.567Z</time>
      </trkpt>
      <trkpt lat="48.64009" lon="-2.95697">
        <ele>71.219084</ele>
        <time>2023-03-24T19:22:46.595Z</time>
      </trkpt>
      <trkpt lat="48.63981" lon="-2.9565">
        <ele>71.781505</ele>
        <time>2023-03-24T19:22:59.981Z</time>
      </trkpt>
      <trkpt lat="48.63981" lon="-2.95639">
        <ele>71.876956</ele>
        <time>2023-03-24T19:23:02.334Z</time>
      </trkpt>
      <trkpt lat="48.63985" lon="-2.95622">
        <ele>72.045036</ele>
        <time>2023-03-24T19:23:06.818Z</time>
      </trkpt>
      <trkpt lat="48.6399" lon="-2.95605">
        <ele>72.206557</ele>
        <time>2023-03-24T19:23:10.975Z</time>
      </trkpt>
      <trkpt lat="48.64008" lon="-2.95586">
        <ele>72.56035</ele>
        <time>2023-03-24T19:23:18.474Z</time>
      </trkpt>
      <trkpt lat="48.64064" lon="-2.95598">
        <ele>74.065254</ele>
        <time>2023-03-24T19:23:38.105Z</time>
      </trkpt>
      <trkpt lat="48.6408" lon="-2.95567">
        <ele>74.763824</ele>
        <time>2023-03-24T19:23:51.904Z</time>
      </trkpt>
      <trkpt lat="48.64094" lon="-2.95504">
        <ele>75.939319</ele>
        <time>2023-03-24T19:24:13.955Z</time>
      </trkpt>
      <trkpt lat="48.64095" lon="-2.95438">
        <ele>77.093478</ele>
        <time>2023-03-24T19:24:36.632Z</time>
      </trkpt>
      <trkpt lat="48.64071" lon="-2.95273">
        <ele>79.775697</ele>
        <time>2023-03-24T19:25:34.139Z</time>
      </trkpt>
      <trkpt lat="48.6405" lon="-2.95208">
        <ele>80.907624</ele>
        <time>2023-03-24T19:25:56.430Z</time>
      </trkpt>
      <trkpt lat="48.64032" lon="-2.95116">
        <ele>81.844911</ele>
        <time>2023-03-24T19:26:24.904Z</time>
      </trkpt>
      <trkpt lat="48.64023" lon="-2.95043">
        <ele>82.264982</ele>
        <time>2023-03-24T19:26:45.611Z</time>
      </trkpt>
      <trkpt lat="48.64027" lon="-2.9496">
        <ele>82.738694</ele>
        <time>2023-03-24T19:27:07.527Z</time>
      </trkpt>
      <trkpt lat="48.64026" lon="-2.94898">
        <ele>83.064561</ele>
        <time>2023-03-24T19:27:23.216Z</time>
      </trkpt>
      <trkpt lat="48.64015" lon="-2.94817">
        <ele>82.943318</ele>
        <time>2023-03-24T19:27:43.837Z</time>
      </trkpt>
      <trkpt lat="48.64015" lon="-2.94817">
        <ele>82.943318</ele>
        <time>2023-03-24T19:27:43.840Z</time>
      </trkpt>
      <trkpt lat="48.64008" lon="-2.94686">
        <ele>82.751091</ele>
        <time>2023-03-24T19:28:15.022Z</time>
      </trkpt>
      <trkpt lat="48.6401" lon="-2.94613">
        <ele>82.658361</ele>
        <time>2023-03-24T19:28:32.199Z</time>
      </trkpt>
      <trkpt lat="48.64019" lon="-2.94525">
        <ele>82.595415</ele>
        <time>2023-03-24T19:28:53.119Z</time>
      </trkpt>
      <trkpt lat="48.64017" lon="-2.94503">
        <ele>82.57934</ele>
        <time>2023-03-24T19:28:56.233Z</time>
      </trkpt>
      <trkpt lat="48.64002" lon="-2.94273">
        <ele>83.162927</ele>
        <time>2023-03-24T19:29:32.281Z</time>
      </trkpt>
      <trkpt lat="48.63999" lon="-2.94221">
        <ele>83.566799</ele>
        <time>2023-03-24T19:29:42.154Z</time>
      </trkpt>
      <trkpt lat="48.63976" lon="-2.94186">
        <ele>83.942213</ele>
        <time>2023-03-24T19:29:51.396Z</time>
      </trkpt>
      <trkpt lat="48.63976" lon="-2.94186">
        <ele>83.942213</ele>
        <time>2023-03-24T19:29:51.414Z</time>
      </trkpt>
      <trkpt lat="48.63976" lon="-2.94186">
        <ele>83.942213</ele>
        <time>2023-03-24T19:29:51.414Z</time>
      </trkpt>
      <trkpt lat="48.63973" lon="-2.94158">
        <ele>84.169593</ele>
        <time>2023-03-24T19:29:56.450Z</time>
      </trkpt>
      <trkpt lat="48.6397" lon="-2.94141">
        <ele>84.305075</ele>
        <time>2023-03-24T19:29:59.450Z</time>
      </trkpt>
      <trkpt lat="48.63967" lon="-2.94123">
        <ele>84.443234</ele>
        <time>2023-03-24T19:30:02.511Z</time>
      </trkpt>
      <trkpt lat="48.63967" lon="-2.94117">
        <ele>84.490061</ele>
        <time>2023-03-24T19:30:03.548Z</time>
      </trkpt>
      <trkpt lat="48.63965" lon="-2.94106">
        <ele>84.581685</ele>
        <time>2023-03-24T19:30:05.557Z</time>
      </trkpt>
      <trkpt lat="48.63964" lon="-2.94089">
        <ele>84.780067</ele>
        <time>2023-03-24T19:30:08.493Z</time>
      </trkpt>
      <trkpt lat="48.63964" lon="-2.94078">
        <ele>84.90132</ele>
        <time>2023-03-24T19:30:10.288Z</time>
      </trkpt>
      <trkpt lat="48.63964" lon="-2.94073">
        <ele>84.962596</ele>
        <time>2023-03-24T19:30:11.195Z</time>
      </trkpt>
      <trkpt lat="48.63966" lon="-2.94071">
        <ele>84.99991</ele>
        <time>2023-03-24T19:30:11.748Z</time>
      </trkpt>
      <trkpt lat="48.63966" lon="-2.94065">
        <ele>85.063633</ele>
        <time>2023-03-24T19:30:12.691Z</time>
      </trkpt>
      <trkpt lat="48.63966" lon="-2.94059">
        <ele>85.137717</ele>
        <time>2023-03-24T19:30:13.788Z</time>
      </trkpt>
      <trkpt lat="48.63966" lon="-2.94047">
        <ele>85.270792</ele>
        <time>2023-03-24T19:30:15.757Z</time>
      </trkpt>
      <trkpt lat="48.63966" lon="-2.94041">
        <ele>85.341226</ele>
        <time>2023-03-24T19:30:16.800Z</time>
      </trkpt>
      <trkpt lat="48.63967" lon="-2.94036">
        <ele>85.401371</ele>
        <time>2023-03-24T19:30:17.690Z</time>
      </trkpt>
      <trkpt lat="48.63966" lon="-2.94025">
        <ele>85.528685</ele>
        <time>2023-03-24T19:30:19.575Z</time>
      </trkpt>
      <trkpt lat="48.63966" lon="-2.94019">
        <ele>85.592192</ele>
        <time>2023-03-24T19:30:20.515Z</time>
      </trkpt>
      <trkpt lat="48.63966" lon="-2.94014">
        <ele>85.653787</ele>
        <time>2023-03-24T19:30:21.427Z</time>
      </trkpt>
      <trkpt lat="48.63964" lon="-2.93999">
        <ele>85.834931</ele>
        <time>2023-03-24T19:30:24.108Z</time>
      </trkpt>
      <trkpt lat="48.63963" lon="-2.93989">
        <ele>85.952962</ele>
        <time>2023-03-24T19:30:25.855Z</time>
      </trkpt>
      <trkpt lat="48.63962" lon="-2.93979">
        <ele>86.066602</ele>
        <time>2023-03-24T19:30:27.537Z</time>
      </trkpt>
      <trkpt lat="48.6396" lon="-2.93971">
        <ele>86.157082</ele>
        <time>2023-03-24T19:30:28.876Z</time>
      </trkpt>
      <trkpt lat="48.63959" lon="-2.9397">
        <ele>86.183362</ele>
        <time>2023-03-24T19:30:29.265Z</time>
      </trkpt>
      <trkpt lat="48.63959" lon="-2.9397">
        <ele>86.186857</ele>
        <time>2023-03-24T19:30:29.317Z</time>
      </trkpt>
      <trkpt lat="48.63957" lon="-2.93962">
        <ele>86.280243</ele>
        <time>2023-03-24T19:30:30.699Z</time>
      </trkpt>
      <trkpt lat="48.63957" lon="-2.93958">
        <ele>86.326727</ele>
        <time>2023-03-24T19:30:31.387Z</time>
      </trkpt>
      <trkpt lat="48.63956" lon="-2.93957">
        <ele>86.339548</ele>
        <time>2023-03-24T19:30:31.577Z</time>
      </trkpt>
      <trkpt lat="48.63926" lon="-2.93951">
        <ele>86.880309</ele>
        <time>2023-03-24T19:30:39.580Z</time>
      </trkpt>
      <trkpt lat="48.63926" lon="-2.93951">
        <ele>86.880309</ele>
        <time>2023-03-24T19:30:39.598Z</time>
      </trkpt>
      <trkpt lat="48.63944" lon="-2.93916">
        <ele>87.397469</ele>
        <time>2023-03-24T19:30:47.914Z</time>
      </trkpt>
      <trkpt lat="48.63947" lon="-2.93897">
        <ele>87.624567</ele>
        <time>2023-03-24T19:30:52.096Z</time>
      </trkpt>
      <trkpt lat="48.63943" lon="-2.9387">
        <ele>87.909017</ele>
        <time>2023-03-24T19:30:57.541Z</time>
      </trkpt>
      <trkpt lat="48.63928" lon="-2.93822">
        <ele>88.444838</ele>
        <time>2023-03-24T19:31:08.984Z</time>
      </trkpt>
      <trkpt lat="48.63904" lon="-2.9377">
        <ele>89.064466</ele>
        <time>2023-03-24T19:31:22.173Z</time>
      </trkpt>
      <trkpt lat="48.639" lon="-2.9374">
        <ele>89.36738</ele>
        <time>2023-03-24T19:31:28.895Z</time>
      </trkpt>
      <trkpt lat="48.63912" lon="-2.9361">
        <ele>90.692655</ele>
        <time>2023-03-24T19:31:56.599Z</time>
      </trkpt>
      <trkpt lat="48.6393" lon="-2.93459">
        <ele>92.359667</ele>
        <time>2023-03-24T19:32:30.584Z</time>
      </trkpt>
      <trkpt lat="48.63932" lon="-2.93368">
        <ele>93.345067</ele>
        <time>2023-03-24T19:32:50.090Z</time>
      </trkpt>
      <trkpt lat="48.63937" lon="-2.93293">
        <ele>94.090007</ele>
        <time>2023-03-24T19:33:05.464Z</time>
      </trkpt>
      <trkpt lat="48.63929" lon="-2.93219">
        <ele>94.827714</ele>
        <time>2023-03-24T19:33:20.267Z</time>
      </trkpt>
      <trkpt lat="48.6392" lon="-2.93182">
        <ele>95.213543</ele>
        <time>2023-03-24T19:33:27.630Z</time>
      </trkpt>
      <trkpt lat="48.63916" lon="-2.93131">
        <ele>95.719142</ele>
        <time>2023-03-24T19:33:37.436Z</time>
      </trkpt>
      <trkpt lat="48.63935" lon="-2.93111">
        <ele>96.067237</ele>
        <time>2023-03-24T19:33:44.418Z</time>
      </trkpt>
      <trkpt lat="48.63952" lon="-2.93097">
        <ele>96.35788</ele>
        <time>2023-03-24T19:33:49.698Z</time>
      </trkpt>
      <trkpt lat="48.63967" lon="-2.93076">
        <ele>96.671058</ele>
        <time>2023-03-24T19:33:55.874Z</time>
      </trkpt>
      <trkpt lat="48.6399" lon="-2.93014">
        <ele>97.389652</ele>
        <time>2023-03-24T19:34:09.990Z</time>
      </trkpt>
      <trkpt lat="48.64011" lon="-2.92971">
        <ele>97.934465</ele>
        <time>2023-03-24T19:34:21.093Z</time>
      </trkpt>
      <trkpt lat="48.64041" lon="-2.92906">
        <ele>98.735449</ele>
        <time>2023-03-24T19:34:44.493Z</time>
      </trkpt>
      <trkpt lat="48.64063" lon="-2.92865">
        <ele>99.28756</ele>
        <time>2023-03-24T19:34:59.649Z</time>
      </trkpt>
      <trkpt lat="48.64081" lon="-2.92857">
        <ele>99.587666</ele>
        <time>2023-03-24T19:35:07.898Z</time>
      </trkpt>
      <trkpt lat="48.64101" lon="-2.92853">
        <ele>99.913312</ele>
        <time>2023-03-24T19:35:17.027Z</time>
      </trkpt>
      <trkpt lat="48.64185" lon="-2.92737">
        <ele>101.752952</ele>
        <time>2023-03-24T19:36:08.782Z</time>
      </trkpt>
      <trkpt lat="48.64198" lon="-2.92723">
        <ele>102.07483</ele>
        <time>2023-03-24T19:36:16.111Z</time>
      </trkpt>
      <trkpt lat="48.64281" lon="-2.92669">
        <ele>103.849563</ele>
        <time>2023-03-24T19:36:57.629Z</time>
      </trkpt>
      <trkpt lat="48.64292" lon="-2.92622">
        <ele>104.497411</ele>
        <time>2023-03-24T19:37:13.241Z</time>
      </trkpt>
      <trkpt lat="48.64337" lon="-2.92474">
        <ele>106.484138</ele>
        <time>2023-03-24T19:38:05.868Z</time>
      </trkpt>
      <trkpt lat="48.64337" lon="-2.92474">
        <ele>106.484138</ele>
        <time>2023-03-24T19:38:05.889Z</time>
      </trkpt>
      <trkpt lat="48.64411" lon="-2.9225">
        <ele>108.339773</ele>
        <time>2023-03-24T19:39:19.463Z</time>
      </trkpt>
      <trkpt lat="48.64429" lon="-2.92185">
        <ele>108.257961</ele>
        <time>2023-03-24T19:39:36.042Z</time>
      </trkpt>
      <trkpt lat="48.64423" lon="-2.92187">
        <ele>108.24684</ele>
        <time>2023-03-24T19:39:38.231Z</time>
      </trkpt>
      <trkpt lat="48.64312" lon="-2.92197">
        <ele>107.700542</ele>
        <time>2023-03-24T19:40:15.803Z</time>
      </trkpt>
      <trkpt lat="48.6427" lon="-2.92208">
        <ele>107.24069</ele>
        <time>2023-03-24T19:40:29.916Z</time>
      </trkpt>
      <trkpt lat="48.64265" lon="-2.92205">
        <ele>107.181506</ele>
        <time>2023-03-24T19:40:31.749Z</time>
      </trkpt>
      <trkpt lat="48.6426" lon="-2.92199">
        <ele>107.112156</ele>
        <time>2023-03-24T19:40:33.893Z</time>
      </trkpt>
      <trkpt lat="48.64255" lon="-2.92182">
        <ele>106.981678</ele>
        <time>2023-03-24T19:40:37.949Z</time>
      </trkpt>
      <trkpt lat="48.6424" lon="-2.92065">
        <ele>106.162263</ele>
        <time>2023-03-24T19:41:05.579Z</time>
      </trkpt>
      <trkpt lat="48.64216" lon="-2.91909">
        <ele>105.868701</ele>
        <time>2023-03-24T19:41:44.564Z</time>
      </trkpt>
      <trkpt lat="48.64195" lon="-2.9179">
        <ele>105.638674</ele>
        <time>2023-03-24T19:42:13.982Z</time>
      </trkpt>
      <trkpt lat="48.64186" lon="-2.91778">
        <ele>105.600166</ele>
        <time>2023-03-24T19:42:18.263Z</time>
      </trkpt>
      <trkpt lat="48.64182" lon="-2.91777">
        <ele>105.584597</ele>
        <time>2023-03-24T19:42:19.908Z</time>
      </trkpt>
      <trkpt lat="48.64105" lon="-2.91819">
        <ele>105.318762</ele>
        <time>2023-03-24T19:42:37.046Z</time>
      </trkpt>
      <trkpt lat="48.64082" lon="-2.91827">
        <ele>105.24177</ele>
        <time>2023-03-24T19:42:42.077Z</time>
      </trkpt>
      <trkpt lat="48.64085" lon="-2.91809">
        <ele>105.203165</ele>
        <time>2023-03-24T19:42:44.685Z</time>
      </trkpt>
      <trkpt lat="48.64117" lon="-2.91621">
        <ele>105.050939</ele>
        <time>2023-03-24T19:43:14.162Z</time>
      </trkpt>
      <trkpt lat="48.64127" lon="-2.91507">
        <ele>105.020222</ele>
        <time>2023-03-24T19:43:32.015Z</time>
      </trkpt>
      <trkpt lat="48.64125" lon="-2.91451">
        <ele>104.981761</ele>
        <time>2023-03-24T19:43:40.627Z</time>
      </trkpt>
      <trkpt lat="48.64121" lon="-2.91421">
        <ele>104.956001</ele>
        <time>2023-03-24T19:43:45.238Z</time>
      </trkpt>
      <trkpt lat="48.64113" lon="-2.91384">
        <ele>104.922829</ele>
        <time>2023-03-24T19:43:51.185Z</time>
      </trkpt>
      <trkpt lat="48.64105" lon="-2.91349">
        <ele>104.89089</ele>
        <time>2023-03-24T19:43:56.875Z</time>
      </trkpt>
      <trkpt lat="48.64095" lon="-2.91323">
        <ele>104.865969</ele>
        <time>2023-03-24T19:44:01.283Z</time>
      </trkpt>
      <trkpt lat="48.64057" lon="-2.91218">
        <ele>104.772948</ele>
        <time>2023-03-24T19:44:18.904Z</time>
      </trkpt>
      <trkpt lat="48.63995" lon="-2.91067">
        <ele>104.684282</ele>
        <time>2023-03-24T19:44:45.511Z</time>
      </trkpt>
      <trkpt lat="48.63975" lon="-2.91022">
        <ele>104.656801</ele>
        <time>2023-03-24T19:44:54.263Z</time>
      </trkpt>
      <trkpt lat="48.63981" lon="-2.91016">
        <ele>104.651178</ele>
        <time>2023-03-24T19:44:57.197Z</time>
      </trkpt>
      <trkpt lat="48.64029" lon="-2.90838">
        <ele>104.853035</ele>
        <time>2023-03-24T19:45:46.410Z</time>
      </trkpt>
      <trkpt lat="48.64062" lon="-2.90704">
        <ele>104.577115</ele>
        <time>2023-03-24T19:46:21.285Z</time>
      </trkpt>
      <trkpt lat="48.64068" lon="-2.90667">
        <ele>104.339602</ele>
        <time>2023-03-24T19:46:30.325Z</time>
      </trkpt>
      <trkpt lat="48.64087" lon="-2.90429">
        <ele>102.585638</ele>
        <time>2023-03-24T19:47:23.832Z</time>
      </trkpt>
      <trkpt lat="48.64078" lon="-2.90416">
        <ele>102.39842</ele>
        <time>2023-03-24T19:47:27.660Z</time>
      </trkpt>
      <trkpt lat="48.64065" lon="-2.90358">
        <ele>101.766561</ele>
        <time>2023-03-24T19:47:41.038Z</time>
      </trkpt>
      <trkpt lat="48.64058" lon="-2.90314">
        <ele>101.300489</ele>
        <time>2023-03-24T19:47:50.928Z</time>
      </trkpt>
      <trkpt lat="48.64056" lon="-2.90281">
        <ele>100.957148</ele>
        <time>2023-03-24T19:47:58.392Z</time>
      </trkpt>
      <trkpt lat="48.64068" lon="-2.90144">
        <ele>99.585087</ele>
        <time>2023-03-24T19:48:29.102Z</time>
      </trkpt>
      <trkpt lat="48.64069" lon="-2.90085">
        <ele>99.012509</ele>
        <time>2023-03-24T19:48:42.394Z</time>
      </trkpt>
      <trkpt lat="48.64065" lon="-2.90042">
        <ele>98.591323</ele>
        <time>2023-03-24T19:48:51.956Z</time>
      </trkpt>
      <trkpt lat="48.64016" lon="-2.899">
        <ele>96.988495</ele>
        <time>2023-03-24T19:49:26.886Z</time>
      </trkpt>
      <trkpt lat="48.64011" lon="-2.89869">
        <ele>96.656464</ele>
        <time>2023-03-24T19:49:34.116Z</time>
      </trkpt>
      <trkpt lat="48.64008" lon="-2.89796">
        <ele>95.91325</ele>
        <time>2023-03-24T19:49:50.029Z</time>
      </trkpt>
      <trkpt lat="48.63992" lon="-2.89788">
        <ele>95.644474</ele>
        <time>2023-03-24T19:49:53.549Z</time>
      </trkpt>
      <trkpt lat="48.6397" lon="-2.89775">
        <ele>95.287001</ele>
        <time>2023-03-24T19:49:58.065Z</time>
      </trkpt>
      <trkpt lat="48.63934" lon="-2.89774">
        <ele>95.011995</ele>
        <time>2023-03-24T19:50:05.344Z</time>
      </trkpt>
      <trkpt lat="48.63888" lon="-2.8975">
        <ele>94.990118</ele>
        <time>2023-03-24T19:50:15.516Z</time>
      </trkpt>
      <trkpt lat="48.63884" lon="-2.8975">
        <ele>94.988278</ele>
        <time>2023-03-24T19:50:16.357Z</time>
      </trkpt>
      <trkpt lat="48.63878" lon="-2.8975">
        <ele>94.985859</ele>
        <time>2023-03-24T19:50:17.493Z</time>
      </trkpt>
      <trkpt lat="48.63876" lon="-2.89745">
        <ele>94.98403</ele>
        <time>2023-03-24T19:50:18.364Z</time>
      </trkpt>
      <trkpt lat="48.63831" lon="-2.89706">
        <ele>94.961046</ele>
        <time>2023-03-24T19:50:31.200Z</time>
      </trkpt>
      <trkpt lat="48.6382" lon="-2.89691">
        <ele>94.954395</ele>
        <time>2023-03-24T19:50:35.567Z</time>
      </trkpt>
      <trkpt lat="48.63776" lon="-2.89754">
        <ele>95.389884</ele>
        <time>2023-03-24T19:50:53.114Z</time>
      </trkpt>
      <trkpt lat="48.63751" lon="-2.89774">
        <ele>95.841281</ele>
        <time>2023-03-24T19:51:01.753Z</time>
      </trkpt>
      <trkpt lat="48.63732" lon="-2.89794">
        <ele>96.211255</ele>
        <time>2023-03-24T19:51:09.247Z</time>
      </trkpt>
      <trkpt lat="48.63716" lon="-2.89804">
        <ele>96.488852</ele>
        <time>2023-03-24T19:51:14.606Z</time>
      </trkpt>
      <trkpt lat="48.63702" lon="-2.89815">
        <ele>96.740671</ele>
        <time>2023-03-24T19:51:22.280Z</time>
      </trkpt>
      <trkpt lat="48.63678" lon="-2.89826">
        <ele>97.142532</ele>
        <time>2023-03-24T19:51:34.012Z</time>
      </trkpt>
      <trkpt lat="48.63598" lon="-2.89858">
        <ele>98.213142</ele>
        <time>2023-03-24T19:52:12.013Z</time>
      </trkpt>
      <trkpt lat="48.63577" lon="-2.89897">
        <ele>98.546079</ele>
        <time>2023-03-24T19:52:26.428Z</time>
      </trkpt>
      <trkpt lat="48.63558" lon="-2.89962">
        <ele>99.017232</ele>
        <time>2023-03-24T19:52:45.781Z</time>
      </trkpt>
      <trkpt lat="48.63553" lon="-2.8997">
        <ele>99.093291</ele>
        <time>2023-03-24T19:52:48.813Z</time>
      </trkpt>
      <trkpt lat="48.63549" lon="-2.89972">
        <ele>99.131225</ele>
        <time>2023-03-24T19:52:50.342Z</time>
      </trkpt>
      <trkpt lat="48.63541" lon="-2.89967">
        <ele>99.217725</ele>
        <time>2023-03-24T19:52:53.823Z</time>
      </trkpt>
      <trkpt lat="48.63524" lon="-2.89955">
        <ele>99.403603</ele>
        <time>2023-03-24T19:53:01.156Z</time>
      </trkpt>
      <trkpt lat="48.63479" lon="-2.89905">
        <ele>99.563673</ele>
        <time>2023-03-24T19:53:22.660Z</time>
      </trkpt>
      <trkpt lat="48.63479" lon="-2.89905">
        <ele>99.563673</ele>
        <time>2023-03-24T19:53:22.665Z</time>
      </trkpt>
      <trkpt lat="48.63469" lon="-2.89888">
        <ele>99.544908</ele>
        <time>2023-03-24T19:53:28.201Z</time>
      </trkpt>
      <trkpt lat="48.63461" lon="-2.89889">
        <ele>99.5355</ele>
        <time>2023-03-24T19:53:30.971Z</time>
      </trkpt>
      <trkpt lat="48.63454" lon="-2.89899">
        <ele>99.523937</ele>
        <time>2023-03-24T19:53:34.383Z</time>
      </trkpt>
      <trkpt lat="48.63439" lon="-2.8991">
        <ele>99.503304</ele>
        <time>2023-03-24T19:53:40.377Z</time>
      </trkpt>
      <trkpt lat="48.63427" lon="-2.89918">
        <ele>99.485904</ele>
        <time>2023-03-24T19:53:45.404Z</time>
      </trkpt>
      <trkpt lat="48.63413" lon="-2.89923">
        <ele>99.468531</ele>
        <time>2023-03-24T19:53:50.435Z</time>
      </trkpt>
      <trkpt lat="48.63399" lon="-2.89843">
        <ele>99.399705</ele>
        <time>2023-03-24T19:54:02.070Z</time>
      </trkpt>
      <trkpt lat="48.63397" lon="-2.89742">
        <ele>99.185727</ele>
        <time>2023-03-24T19:54:16.173Z</time>
      </trkpt>
      <trkpt lat="48.63386" lon="-2.89691">
        <ele>99.05586</ele>
        <time>2023-03-24T19:54:23.573Z</time>
      </trkpt>
      <trkpt lat="48.63274" lon="-2.89392">
        <ele>98.37073</ele>
        <time>2023-03-24T19:55:12.093Z</time>
      </trkpt>
      <trkpt lat="48.63253" lon="-2.8932">
        <ele>98.274541</ele>
        <time>2023-03-24T19:55:23.418Z</time>
      </trkpt>
      <trkpt lat="48.6325" lon="-2.89297">
        <ele>98.30641</ele>
        <time>2023-03-24T19:55:26.927Z</time>
      </trkpt>
      <trkpt lat="48.63227" lon="-2.89213">
        <ele>98.426097</ele>
        <time>2023-03-24T19:55:40.265Z</time>
      </trkpt>
      <trkpt lat="48.6321" lon="-2.89172">
        <ele>98.489436</ele>
        <time>2023-03-24T19:55:48.055Z</time>
      </trkpt>
      <trkpt lat="48.63141" lon="-2.8906">
        <ele>98.738872</ele>
        <time>2023-03-24T19:56:12.799Z</time>
      </trkpt>
      <trkpt lat="48.63118" lon="-2.89004">
        <ele>98.883548</ele>
        <time>2023-03-24T19:56:23.496Z</time>
      </trkpt>
      <trkpt lat="48.63063" lon="-2.88859">
        <ele>99.177216</ele>
        <time>2023-03-24T19:56:49.572Z</time>
      </trkpt>
      <trkpt lat="48.63043" lon="-2.88792">
        <ele>99.029139</ele>
        <time>2023-03-24T19:57:00.348Z</time>
      </trkpt>
      <trkpt lat="48.63023" lon="-2.88703">
        <ele>98.840323</ele>
        <time>2023-03-24T19:57:13.382Z</time>
      </trkpt>
      <trkpt lat="48.63006" lon="-2.88592">
        <ele>98.633662</ele>
        <time>2023-03-24T19:57:28.989Z</time>
      </trkpt>
      <trkpt lat="48.62989" lon="-2.88493">
        <ele>98.513727</ele>
        <time>2023-03-24T19:57:43.545Z</time>
      </trkpt>
      <trkpt lat="48.62924" lon="-2.88448">
        <ele>98.387759</ele>
        <time>2023-03-24T19:58:09.655Z</time>
      </trkpt>
      <trkpt lat="48.62862" lon="-2.88415">
        <ele>98.301806</ele>
        <time>2023-03-24T19:58:34.326Z</time>
      </trkpt>
      <trkpt lat="48.62807" lon="-2.88374">
        <ele>98.237775</ele>
        <time>2023-03-24T19:58:57.553Z</time>
      </trkpt>
      <trkpt lat="48.62788" lon="-2.88369">
        <ele>98.218758</ele>
        <time>2023-03-24T19:59:04.357Z</time>
      </trkpt>
      <trkpt lat="48.62695" lon="-2.88331">
        <ele>97.757429</ele>
        <time>2023-03-24T19:59:39.462Z</time>
      </trkpt>
      <trkpt lat="48.62683" lon="-2.88328">
        <ele>97.633536</ele>
        <time>2023-03-24T19:59:43.618Z</time>
      </trkpt>
      <trkpt lat="48.62561" lon="-2.88262">
        <ele>96.319496</ele>
        <time>2023-03-24T20:00:27.444Z</time>
      </trkpt>
      <trkpt lat="48.62479" lon="-2.88195">
        <ele>94.800048</ele>
        <time>2023-03-24T20:00:58.712Z</time>
      </trkpt>
      <trkpt lat="48.62398" lon="-2.88166">
        <ele>93.457368</ele>
        <time>2023-03-24T20:01:26.120Z</time>
      </trkpt>
      <trkpt lat="48.62403" lon="-2.88094">
        <ele>92.520414</ele>
        <time>2023-03-24T20:01:41.884Z</time>
      </trkpt>
      <trkpt lat="48.62402" lon="-2.88052">
        <ele>91.975614</ele>
        <time>2023-03-24T20:01:50.971Z</time>
      </trkpt>
      <trkpt lat="48.62395" lon="-2.87976">
        <ele>90.978137</ele>
        <time>2023-03-24T20:02:07.574Z</time>
      </trkpt>
      <trkpt lat="48.62395" lon="-2.87945">
        <ele>90.583348</ele>
        <time>2023-03-24T20:02:14.034Z</time>
      </trkpt>
      <trkpt lat="48.62405" lon="-2.87843">
        <ele>89.10291</ele>
        <time>2023-03-24T20:02:35.931Z</time>
      </trkpt>
      <trkpt lat="48.62405" lon="-2.87814">
        <ele>88.638057</ele>
        <time>2023-03-24T20:02:42.185Z</time>
      </trkpt>
      <trkpt lat="48.62398" lon="-2.877">
        <ele>86.812939</ele>
        <time>2023-03-24T20:03:06.066Z</time>
      </trkpt>
      <trkpt lat="48.62396" lon="-2.87563">
        <ele>84.782702</ele>
        <time>2023-03-24T20:03:34.857Z</time>
      </trkpt>
      <trkpt lat="48.62382" lon="-2.87515">
        <ele>84.088627</ele>
        <time>2023-03-24T20:03:46.009Z</time>
      </trkpt>
      <trkpt lat="48.62367" lon="-2.87474">
        <ele>83.471025</ele>
        <time>2023-03-24T20:03:56.058Z</time>
      </trkpt>
      <trkpt lat="48.62338" lon="-2.87412">
        <ele>82.471223</ele>
        <time>2023-03-24T20:04:12.627Z</time>
      </trkpt>
      <trkpt lat="48.62323" lon="-2.87368">
        <ele>81.906245</ele>
        <time>2023-03-24T20:04:23.390Z</time>
      </trkpt>
      <trkpt lat="48.62309" lon="-2.87337">
        <ele>81.723711</ele>
        <time>2023-03-24T20:04:31.791Z</time>
      </trkpt>
      <trkpt lat="48.62261" lon="-2.87268">
        <ele>81.236352</ele>
        <time>2023-03-24T20:04:55.386Z</time>
      </trkpt>
      <trkpt lat="48.62238" lon="-2.87209">
        <ele>80.908694</ele>
        <time>2023-03-24T20:05:11.453Z</time>
      </trkpt>
      <trkpt lat="48.6222" lon="-2.87146">
        <ele>80.597274</ele>
        <time>2023-03-24T20:05:27.787Z</time>
      </trkpt>
      <trkpt lat="48.62215" lon="-2.87112">
        <ele>80.483262</ele>
        <time>2023-03-24T20:05:36.143Z</time>
      </trkpt>
      <trkpt lat="48.62201" lon="-2.86978">
        <ele>80.041076</ele>
        <time>2023-03-24T20:06:08.247Z</time>
      </trkpt>
      <trkpt lat="48.62197" lon="-2.86902">
        <ele>79.795794</ele>
        <time>2023-03-24T20:06:26.003Z</time>
      </trkpt>
      <trkpt lat="48.62187" lon="-2.8683">
        <ele>79.552567</ele>
        <time>2023-03-24T20:06:43.392Z</time>
      </trkpt>
      <trkpt lat="48.62171" lon="-2.86763">
        <ele>79.319657</ele>
        <time>2023-03-24T20:07:00.043Z</time>
      </trkpt>
      <trkpt lat="48.6211" lon="-2.86565">
        <ele>78.516977</ele>
        <time>2023-03-24T20:07:51.691Z</time>
      </trkpt>
      <trkpt lat="48.62098" lon="-2.86517">
        <ele>78.289715</ele>
        <time>2023-03-24T20:08:04.085Z</time>
      </trkpt>
      <trkpt lat="48.621" lon="-2.86506">
        <ele>78.241352</ele>
        <time>2023-03-24T20:08:05.671Z</time>
      </trkpt>
      <trkpt lat="48.62098" lon="-2.86489">
        <ele>78.163306</ele>
        <time>2023-03-24T20:08:08.069Z</time>
      </trkpt>
      <trkpt lat="48.62093" lon="-2.86477">
        <ele>78.102013</ele>
        <time>2023-03-24T20:08:09.950Z</time>
      </trkpt>
      <trkpt lat="48.62037" lon="-2.8642">
        <ele>77.644779</ele>
        <time>2023-03-24T20:08:23.476Z</time>
      </trkpt>
      <trkpt lat="48.61996" lon="-2.86347">
        <ele>76.946793</ele>
        <time>2023-03-24T20:08:35.837Z</time>
      </trkpt>
      <trkpt lat="48.61973" lon="-2.86316">
        <ele>76.604288</ele>
        <time>2023-03-24T20:08:41.797Z</time>
      </trkpt>
      <trkpt lat="48.61922" lon="-2.86298">
        <ele>76.019934</ele>
        <time>2023-03-24T20:08:52.108Z</time>
      </trkpt>
      <trkpt lat="48.61871" lon="-2.86289">
        <ele>75.569828</ele>
        <time>2023-03-24T20:09:02.110Z</time>
      </trkpt>
      <trkpt lat="48.61832" lon="-2.86261">
        <ele>75.34411</ele>
        <time>2023-03-24T20:09:10.732Z</time>
      </trkpt>
      <trkpt lat="48.61795" lon="-2.86227">
        <ele>75.120389</ele>
        <time>2023-03-24T20:09:19.786Z</time>
      </trkpt>
      <trkpt lat="48.61724" lon="-2.86158">
        <ele>74.721289</ele>
        <time>2023-03-24T20:09:38.298Z</time>
      </trkpt>
      <trkpt lat="48.61624" lon="-2.86046">
        <ele>74.552882</ele>
        <time>2023-03-24T20:10:06.116Z</time>
      </trkpt>
      <trkpt lat="48.61481" lon="-2.85909">
        <ele>73.646583</ele>
        <time>2023-03-24T20:10:42.024Z</time>
      </trkpt>
      <trkpt lat="48.6136" lon="-2.85896">
        <ele>71.83486</ele>
        <time>2023-03-24T20:11:23.201Z</time>
      </trkpt>
      <trkpt lat="48.6136" lon="-2.85896">
        <ele>71.83486</ele>
        <time>2023-03-24T20:11:23.216Z</time>
      </trkpt>
      <trkpt lat="48.61348" lon="-2.85898">
        <ele>71.569557</ele>
        <time>2023-03-24T20:11:27.060Z</time>
      </trkpt>
      <trkpt lat="48.61355" lon="-2.85818">
        <ele>70.409718</ele>
        <time>2023-03-24T20:11:44.363Z</time>
      </trkpt>
      <trkpt lat="48.61346" lon="-2.85807">
        <ele>70.151572</ele>
        <time>2023-03-24T20:11:46.448Z</time>
      </trkpt>
      <trkpt lat="48.61278" lon="-2.85779">
        <ele>67.968563</ele>
        <time>2023-03-24T20:12:08.073Z</time>
      </trkpt>
      <trkpt lat="48.61201" lon="-2.85725">
        <ele>64.534554</ele>
        <time>2023-03-24T20:12:33.069Z</time>
      </trkpt>
      <trkpt lat="48.61104" lon="-2.85672">
        <ele>60.002075</ele>
        <time>2023-03-24T20:13:03.544Z</time>
      </trkpt>
      <trkpt lat="48.61066" lon="-2.8564">
        <ele>57.932465</ele>
        <time>2023-03-24T20:13:15.938Z</time>
      </trkpt>
      <trkpt lat="48.61047" lon="-2.85629">
        <ele>56.946455</ele>
        <time>2023-03-24T20:13:21.788Z</time>
      </trkpt>
      <trkpt lat="48.60987" lon="-2.85579">
        <ele>53.656013</ele>
        <time>2023-03-24T20:13:41.281Z</time>
      </trkpt>
      <trkpt lat="48.60891" lon="-2.85546">
        <ele>50.244768</ele>
        <time>2023-03-24T20:14:10.482Z</time>
      </trkpt>
      <trkpt lat="48.60825" lon="-2.85546">
        <ele>47.984274</ele>
        <time>2023-03-24T20:14:31.197Z</time>
      </trkpt>
      <trkpt lat="48.60818" lon="-2.8553">
        <ele>47.549571</ele>
        <time>2023-03-24T20:14:35.330Z</time>
      </trkpt>
      <trkpt lat="48.60792" lon="-2.85512">
        <ele>47.263058</ele>
        <time>2023-03-24T20:14:41.302Z</time>
      </trkpt>
      <trkpt lat="48.60762" lon="-2.85484">
        <ele>47.162753</ele>
        <time>2023-03-24T20:14:49.513Z</time>
      </trkpt>
      <trkpt lat="48.60682" lon="-2.85384">
        <ele>46.874837</ele>
        <time>2023-03-24T20:15:17.380Z</time>
      </trkpt>
      <trkpt lat="48.60639" lon="-2.85356">
        <ele>46.733162</ele>
        <time>2023-03-24T20:15:30.064Z</time>
      </trkpt>
      <trkpt lat="48.60579" lon="-2.85342">
        <ele>46.535399</ele>
        <time>2023-03-24T20:15:44.439Z</time>
      </trkpt>
      <trkpt lat="48.6055" lon="-2.85331">
        <ele>46.439853</ele>
        <time>2023-03-24T20:15:51.189Z</time>
      </trkpt>
      <trkpt lat="48.60513" lon="-2.85303">
        <ele>46.304427</ele>
        <time>2023-03-24T20:16:00.769Z</time>
      </trkpt>
      <trkpt lat="48.60469" lon="-2.85254">
        <ele>46.05221</ele>
        <time>2023-03-24T20:16:13.416Z</time>
      </trkpt>
      <trkpt lat="48.60489" lon="-2.85196">
        <ele>45.818353</ele>
        <time>2023-03-24T20:16:23.275Z</time>
      </trkpt>
      <trkpt lat="48.60501" lon="-2.85175">
        <ele>45.717962</ele>
        <time>2023-03-24T20:16:27.427Z</time>
      </trkpt>
      <trkpt lat="48.60586" lon="-2.85077">
        <ele>44.370401</ele>
        <time>2023-03-24T20:16:50.646Z</time>
      </trkpt>
      <trkpt lat="48.60609" lon="-2.85046">
        <ele>43.209428</ele>
        <time>2023-03-24T20:16:56.664Z</time>
      </trkpt>
      <trkpt lat="48.60636" lon="-2.85009">
        <ele>41.796366</ele>
        <time>2023-03-24T20:17:03.262Z</time>
      </trkpt>
      <trkpt lat="48.60663" lon="-2.84976">
        <ele>40.430967</ele>
        <time>2023-03-24T20:17:09.203Z</time>
      </trkpt>
      <trkpt lat="48.60634" lon="-2.84924">
        <ele>38.690236</ele>
        <time>2023-03-24T20:17:21.769Z</time>
      </trkpt>
      <trkpt lat="48.60602" lon="-2.84857">
        <ele>34.76353</ele>
        <time>2023-03-24T20:17:36.632Z</time>
      </trkpt>
      <trkpt lat="48.60588" lon="-2.84837">
        <ele>33.200932</ele>
        <time>2023-03-24T20:17:50.309Z</time>
      </trkpt>
      <trkpt lat="48.60546" lon="-2.84791">
        <ele>29.063385</ele>
        <time>2023-03-24T20:18:26.535Z</time>
      </trkpt>
      <trkpt lat="48.60546" lon="-2.84791">
        <ele>29.063385</ele>
        <time>2023-03-24T20:18:26.546Z</time>
      </trkpt>
      <trkpt lat="48.60534" lon="-2.8477">
        <ele>27.589384</ele>
        <time>2023-03-24T20:18:39.453Z</time>
      </trkpt>
      <trkpt lat="48.6047" lon="-2.84633">
        <ele>20.13716</ele>
        <time>2023-03-24T20:19:56.598Z</time>
      </trkpt>
      <trkpt lat="48.6046" lon="-2.84605">
        <ele>18.873185</ele>
        <time>2023-03-24T20:20:11.491Z</time>
      </trkpt>
      <trkpt lat="48.60453" lon="-2.84545">
        <ele>16.506125</ele>
        <time>2023-03-24T20:20:39.456Z</time>
      </trkpt>
      <trkpt lat="48.6045" lon="-2.84542">
        <ele>16.294205</ele>
        <time>2023-03-24T20:20:40.057Z</time>
      </trkpt>
      <trkpt lat="48.60428" lon="-2.84543">
        <ele>14.997429</ele>
        <time>2023-03-24T20:20:43.844Z</time>
      </trkpt>
      <trkpt lat="48.60428" lon="-2.84529">
        <ele>14.455041</ele>
        <time>2023-03-24T20:20:45.294Z</time>
      </trkpt>
      <trkpt lat="48.60419" lon="-2.84431">
        <ele>12.5655</ele>
        <time>2023-03-24T20:20:56.465Z</time>
      </trkpt>
      <trkpt lat="48.60408" lon="-2.84357">
        <ele>11.687548</ele>
        <time>2023-03-24T20:21:05.583Z</time>
      </trkpt>
      <trkpt lat="48.60397" lon="-2.84309">
        <ele>11.088197</ele>
        <time>2023-03-24T20:21:12.720Z</time>
      </trkpt>
      <trkpt lat="48.6038" lon="-2.84253">
        <ele>10.370633</ele>
        <time>2023-03-24T20:21:21.181Z</time>
      </trkpt>
      <trkpt lat="48.60359" lon="-2.84202">
        <ele>10.220104</ele>
        <time>2023-03-24T20:21:29.707Z</time>
      </trkpt>
      <trkpt lat="48.60345" lon="-2.84174">
        <ele>10.211221</ele>
        <time>2023-03-24T20:21:34.569Z</time>
      </trkpt>
      <trkpt lat="48.60267" lon="-2.84036">
        <ele>10.164777</ele>
        <time>2023-03-24T20:22:01.744Z</time>
      </trkpt>
      <trkpt lat="48.60261" lon="-2.8404">
        <ele>10.183945</ele>
        <time>2023-03-24T20:22:04.190Z</time>
      </trkpt>
      <trkpt lat="48.60257" lon="-2.84044">
        <ele>10.258827</ele>
        <time>2023-03-24T20:22:06.118Z</time>
      </trkpt>
      <trkpt lat="48.6025" lon="-2.84054">
        <ele>10.398186</ele>
        <time>2023-03-24T20:22:09.756Z</time>
      </trkpt>
      <trkpt lat="48.60248" lon="-2.84086">
        <ele>10.704961</ele>
        <time>2023-03-24T20:22:18.036Z</time>
      </trkpt>
      <trkpt lat="48.60244" lon="-2.84094">
        <ele>10.804994</ele>
        <time>2023-03-24T20:22:20.623Z</time>
      </trkpt>
      <trkpt lat="48.6023" lon="-2.84104">
        <ele>11.033335</ele>
        <time>2023-03-24T20:22:26.630Z</time>
      </trkpt>
      <trkpt lat="48.602" lon="-2.841">
        <ele>11.475258</ele>
        <time>2023-03-24T20:22:38.331Z</time>
      </trkpt>
      <trkpt lat="48.60191" lon="-2.84077">
        <ele>11.737486</ele>
        <time>2023-03-24T20:22:47.548Z</time>
      </trkpt>
      <trkpt lat="48.60184" lon="-2.84031">
        <ele>12.19228</ele>
        <time>2023-03-24T20:23:02.319Z</time>
      </trkpt>
      <trkpt lat="48.60158" lon="-2.83984">
        <ele>12.795126</ele>
        <time>2023-03-24T20:23:22.333Z</time>
      </trkpt>
      <trkpt lat="48.60153" lon="-2.83957">
        <ele>13.474112</ele>
        <time>2023-03-24T20:23:30.297Z</time>
      </trkpt>
      <trkpt lat="48.60147" lon="-2.83942">
        <ele>13.887891</ele>
        <time>2023-03-24T20:23:38.235Z</time>
      </trkpt>
      <trkpt lat="48.60118" lon="-2.83916">
        <ele>15.163209</ele>
        <time>2023-03-24T20:23:55.673Z</time>
      </trkpt>
      <trkpt lat="48.60118" lon="-2.83916">
        <ele>15.163209</ele>
        <time>2023-03-24T20:23:55.758Z</time>
      </trkpt>
      <trkpt lat="48.60118" lon="-2.83916">
        <ele>15.163209</ele>
        <time>2023-03-24T20:23:55.758Z</time>
      </trkpt>
      <trkpt lat="48.60119" lon="-2.83914">
        <ele>15.22966</ele>
        <time>2023-03-24T20:23:56.216Z</time>
      </trkpt>
      <trkpt lat="48.60115" lon="-2.83909">
        <ele>15.409617</ele>
        <time>2023-03-24T20:23:57.454Z</time>
      </trkpt>
      <trkpt lat="48.60114" lon="-2.83908">
        <ele>15.483623</ele>
        <time>2023-03-24T20:23:57.963Z</time>
      </trkpt>
      <trkpt lat="48.60112" lon="-2.83906">
        <ele>15.549899</ele>
        <time>2023-03-24T20:23:58.419Z</time>
      </trkpt>
      <trkpt lat="48.60111" lon="-2.83905">
        <ele>15.611537</ele>
        <time>2023-03-24T20:23:58.843Z</time>
      </trkpt>
      <trkpt lat="48.60109" lon="-2.83905">
        <ele>15.675891</ele>
        <time>2023-03-24T20:23:59.286Z</time>
      </trkpt>
      <trkpt lat="48.60108" lon="-2.83905">
        <ele>15.725337</ele>
        <time>2023-03-24T20:23:59.626Z</time>
      </trkpt>
      <trkpt lat="48.60108" lon="-2.83906">
        <ele>15.744297</ele>
        <time>2023-03-24T20:23:59.756Z</time>
      </trkpt>
      <trkpt lat="48.6009" lon="-2.8391">
        <ele>16.42093</ele>
        <time>2023-03-24T20:24:04.412Z</time>
      </trkpt>
      <trkpt lat="48.60088" lon="-2.83909">
        <ele>16.504246</ele>
        <time>2023-03-24T20:24:04.985Z</time>
      </trkpt>
      <trkpt lat="48.60083" lon="-2.83909">
        <ele>16.684744</ele>
        <time>2023-03-24T20:24:06.235Z</time>
      </trkpt>
      <trkpt lat="48.60076" lon="-2.8391">
        <ele>16.941631</ele>
        <time>2023-03-24T20:24:08.002Z</time>
      </trkpt>
      <trkpt lat="48.60074" lon="-2.83909">
        <ele>17.027325</ele>
        <time>2023-03-24T20:24:08.591Z</time>
      </trkpt>
      <trkpt lat="48.60072" lon="-2.83908">
        <ele>17.111267</ele>
        <time>2023-03-24T20:24:09.169Z</time>
      </trkpt>
      <trkpt lat="48.60068" lon="-2.83907">
        <ele>17.263709</ele>
        <time>2023-03-24T20:24:10.217Z</time>
      </trkpt>
      <trkpt lat="48.60066" lon="-2.83907">
        <ele>17.338909</ele>
        <time>2023-03-24T20:24:10.734Z</time>
      </trkpt>
      <trkpt lat="48.60062" lon="-2.83906">
        <ele>17.480693</ele>
        <time>2023-03-24T20:24:11.710Z</time>
      </trkpt>
      <trkpt lat="48.6006" lon="-2.83904">
        <ele>17.556801</ele>
        <time>2023-03-24T20:24:12.233Z</time>
      </trkpt>
      <trkpt lat="48.60059" lon="-2.83903">
        <ele>17.625387</ele>
        <time>2023-03-24T20:24:12.705Z</time>
      </trkpt>
      <trkpt lat="48.60057" lon="-2.83903">
        <ele>17.6942</ele>
        <time>2023-03-24T20:24:13.178Z</time>
      </trkpt>
      <trkpt lat="48.60055" lon="-2.83902">
        <ele>17.762786</ele>
        <time>2023-03-24T20:24:13.659Z</time>
      </trkpt>
      <trkpt lat="48.60054" lon="-2.839">
        <ele>17.83357</ele>
        <time>2023-03-24T20:24:14.146Z</time>
      </trkpt>
      <trkpt lat="48.60052" lon="-2.83899">
        <ele>17.900514</ele>
        <time>2023-03-24T20:24:14.625Z</time>
      </trkpt>
      <trkpt lat="48.60048" lon="-2.83897">
        <ele>18.043031</ele>
        <time>2023-03-24T20:24:15.605Z</time>
      </trkpt>
      <trkpt lat="48.60044" lon="-2.83895">
        <ele>18.228979</ele>
        <time>2023-03-24T20:24:16.884Z</time>
      </trkpt>
      <trkpt lat="48.60041" lon="-2.83895">
        <ele>18.324577</ele>
        <time>2023-03-24T20:24:17.542Z</time>
      </trkpt>
      <trkpt lat="48.60039" lon="-2.83894">
        <ele>18.388931</ele>
        <time>2023-03-24T20:24:17.984Z</time>
      </trkpt>
      <trkpt lat="48.60038" lon="-2.83895">
        <ele>18.446686</ele>
        <time>2023-03-24T20:24:18.382Z</time>
      </trkpt>
      <trkpt lat="48.60036" lon="-2.83895">
        <ele>18.503086</ele>
        <time>2023-03-24T20:24:18.770Z</time>
      </trkpt>
      <trkpt lat="48.60035" lon="-2.83895">
        <ele>18.552532</ele>
        <time>2023-03-24T20:24:19.110Z</time>
      </trkpt>
      <trkpt lat="48.60034" lon="-2.83895">
        <ele>18.597652</ele>
        <time>2023-03-24T20:24:19.420Z</time>
      </trkpt>
      <trkpt lat="48.60032" lon="-2.83896">
        <ele>18.662342</ele>
        <time>2023-03-24T20:24:19.865Z</time>
      </trkpt>
      <trkpt lat="48.60031" lon="-2.83895">
        <ele>18.720096</ele>
        <time>2023-03-24T20:24:20.262Z</time>
      </trkpt>
      <trkpt lat="48.60029" lon="-2.83895">
        <ele>18.787959</ele>
        <time>2023-03-24T20:24:20.729Z</time>
      </trkpt>
      <trkpt lat="48.60027" lon="-2.83895">
        <ele>18.852072</ele>
        <time>2023-03-24T20:24:21.170Z</time>
      </trkpt>
      <trkpt lat="48.60026" lon="-2.83896">
        <ele>18.903178</ele>
        <time>2023-03-24T20:24:21.522Z</time>
      </trkpt>
      <trkpt lat="48.60024" lon="-2.83896">
        <ele>18.960449</ele>
        <time>2023-03-24T20:24:21.915Z</time>
      </trkpt>
      <trkpt lat="48.60022" lon="-2.83895">
        <ele>19.064407</ele>
        <time>2023-03-24T20:24:22.631Z</time>
      </trkpt>
      <trkpt lat="48.60019" lon="-2.83895">
        <ele>19.180994</ele>
        <time>2023-03-24T20:24:23.439Z</time>
      </trkpt>
      <trkpt lat="48.60017" lon="-2.83895">
        <ele>19.237885</ele>
        <time>2023-03-24T20:24:23.850Z</time>
      </trkpt>
      <trkpt lat="48.60013" lon="-2.83897">
        <ele>19.409273</ele>
        <time>2023-03-24T20:24:25.029Z</time>
      </trkpt>
      <trkpt lat="48.60011" lon="-2.83898">
        <ele>19.466544</ele>
        <time>2023-03-24T20:24:25.423Z</time>
      </trkpt>
      <trkpt lat="48.6001" lon="-2.83898">
        <ele>19.526755</ele>
        <time>2023-03-24T20:24:25.838Z</time>
      </trkpt>
      <trkpt lat="48.60008" lon="-2.83899">
        <ele>19.599829</ele>
        <time>2023-03-24T20:24:26.352Z</time>
      </trkpt>
      <trkpt lat="48.60006" lon="-2.83899">
        <ele>19.655946</ele>
        <time>2023-03-24T20:24:26.767Z</time>
      </trkpt>
      <trkpt lat="48.60003" lon="-2.83899">
        <ele>19.769252</ele>
        <time>2023-03-24T20:24:27.603Z</time>
      </trkpt>
      <trkpt lat="48.60002" lon="-2.839">
        <ele>19.81521</ele>
        <time>2023-03-24T20:24:27.942Z</time>
      </trkpt>
      <trkpt lat="48.6" lon="-2.83901">
        <ele>19.862217</ele>
        <time>2023-03-24T20:24:28.289Z</time>
      </trkpt>
      <trkpt lat="48.59996" lon="-2.83901">
        <ele>20.002467</ele>
        <time>2023-03-24T20:24:29.324Z</time>
      </trkpt>
      <trkpt lat="48.59991" lon="-2.83903">
        <ele>20.19919</ele>
        <time>2023-03-24T20:24:30.776Z</time>
      </trkpt>
      <trkpt lat="48.59988" lon="-2.83903">
        <ele>20.297558</ele>
        <time>2023-03-24T20:24:31.502Z</time>
      </trkpt>
      <trkpt lat="48.59986" lon="-2.83903">
        <ele>20.385929</ele>
        <time>2023-03-24T20:24:32.154Z</time>
      </trkpt>
      <trkpt lat="48.59986" lon="-2.83902">
        <ele>20.406786</ele>
        <time>2023-03-24T20:24:32.327Z</time>
      </trkpt>
      <trkpt lat="48.59976" lon="-2.83902">
        <ele>20.753839</ele>
        <time>2023-03-24T20:24:40.249Z</time>
      </trkpt>
      <trkpt lat="48.59929" lon="-2.8389">
        <ele>22.397745</ele>
        <time>2023-03-24T20:25:04.904Z</time>
      </trkpt>
      <trkpt lat="48.59851" lon="-2.83878">
        <ele>25.15872</ele>
        <time>2023-03-24T20:25:46.306Z</time>
      </trkpt>
      <trkpt lat="48.598" lon="-2.83873">
        <ele>26.882989</ele>
        <time>2023-03-24T20:26:12.908Z</time>
      </trkpt>
      <trkpt lat="48.59775" lon="-2.83877">
        <ele>27.716103</ele>
        <time>2023-03-24T20:26:25.622Z</time>
      </trkpt>
      <trkpt lat="48.59746" lon="-2.83863">
        <ele>28.709297</ele>
        <time>2023-03-24T20:26:41.501Z</time>
      </trkpt>
      <trkpt lat="48.59727" lon="-2.83844">
        <ele>29.467701</ele>
        <time>2023-03-24T20:26:54.071Z</time>
      </trkpt>
      <trkpt lat="48.59705" lon="-2.83797">
        <ele>30.725669</ele>
        <time>2023-03-24T20:27:14.893Z</time>
      </trkpt>
      <trkpt lat="48.59699" lon="-2.83781">
        <ele>31.10993</ele>
        <time>2023-03-24T20:27:21.145Z</time>
      </trkpt>
      <trkpt lat="48.59685" lon="-2.83776">
        <ele>31.595717</ele>
        <time>2023-03-24T20:27:29.534Z</time>
      </trkpt>
      <trkpt lat="48.59618" lon="-2.83775">
        <ele>34.053648</ele>
        <time>2023-03-24T20:28:07.248Z</time>
      </trkpt>
      <trkpt lat="48.59513" lon="-2.83737">
        <ele>38.045149</ele>
        <time>2023-03-24T20:29:07.762Z</time>
      </trkpt>
      <trkpt lat="48.59464" lon="-2.83712">
        <ele>39.616629</ele>
        <time>2023-03-24T20:29:35.367Z</time>
      </trkpt>
      <trkpt lat="48.59374" lon="-2.83685">
        <ele>42.251279</ele>
        <time>2023-03-24T20:30:22.907Z</time>
      </trkpt>
      <trkpt lat="48.5933" lon="-2.83684">
        <ele>43.513876</ele>
        <time>2023-03-24T20:30:44.650Z</time>
      </trkpt>
      <trkpt lat="48.59236" lon="-2.83693">
        <ele>45.832933</ele>
        <time>2023-03-24T20:31:29.205Z</time>
      </trkpt>
      <trkpt lat="48.59175" lon="-2.83726">
        <ele>47.419285</ele>
        <time>2023-03-24T20:32:01.906Z</time>
      </trkpt>
      <trkpt lat="48.59153" lon="-2.83724">
        <ele>47.960381</ele>
        <time>2023-03-24T20:32:13.352Z</time>
      </trkpt>
      <trkpt lat="48.59118" lon="-2.83727">
        <ele>49.065467</ele>
        <time>2023-03-24T20:32:31.033Z</time>
      </trkpt>
      <trkpt lat="48.59096" lon="-2.83718">
        <ele>49.782148</ele>
        <time>2023-03-24T20:32:41.626Z</time>
      </trkpt>
      <trkpt lat="48.5909" lon="-2.83719">
        <ele>49.958756</ele>
        <time>2023-03-24T20:32:46.045Z</time>
      </trkpt>
      <trkpt lat="48.58988" lon="-2.83696">
        <ele>53.22241</ele>
        <time>2023-03-24T20:33:39.758Z</time>
      </trkpt>
      <trkpt lat="48.58958" lon="-2.83693">
        <ele>54.310918</ele>
        <time>2023-03-24T20:33:57.537Z</time>
      </trkpt>
      <trkpt lat="48.5891" lon="-2.83717">
        <ele>56.272327</ele>
        <time>2023-03-24T20:34:26.053Z</time>
      </trkpt>
      <trkpt lat="48.58849" lon="-2.83727">
        <ele>58.692374</ele>
        <time>2023-03-24T20:35:01.739Z</time>
      </trkpt>
      <trkpt lat="48.58845" lon="-2.83716">
        <ele>59.039474</ele>
        <time>2023-03-24T20:35:06.849Z</time>
      </trkpt>
      <trkpt lat="48.58842" lon="-2.83687">
        <ele>59.79729</ele>
        <time>2023-03-24T20:35:18.649Z</time>
      </trkpt>
      <trkpt lat="48.58842" lon="-2.83658">
        <ele>60.564086</ele>
        <time>2023-03-24T20:35:29.465Z</time>
      </trkpt>
      <trkpt lat="48.58853" lon="-2.83492">
        <ele>63.509226</ele>
        <time>2023-03-24T20:36:27.705Z</time>
      </trkpt>
      <trkpt lat="48.58852" lon="-2.83448">
        <ele>64.268026</ele>
        <time>2023-03-24T20:36:41.720Z</time>
      </trkpt>
      <trkpt lat="48.58865" lon="-2.83391">
        <ele>65.307663</ele>
        <time>2023-03-24T20:36:59.830Z</time>
      </trkpt>
      <trkpt lat="48.58875" lon="-2.83378">
        <ele>65.50378</ele>
        <time>2023-03-24T20:37:05.761Z</time>
      </trkpt>
      <trkpt lat="48.58897" lon="-2.83364">
        <ele>65.605055</ele>
        <time>2023-03-24T20:37:16.039Z</time>
      </trkpt>
      <trkpt lat="48.58912" lon="-2.83333">
        <ele>65.710091</ele>
        <time>2023-03-24T20:37:26.228Z</time>
      </trkpt>
      <trkpt lat="48.58914" lon="-2.83283">
        <ele>65.848466</ele>
        <time>2023-03-24T20:37:34.279Z</time>
      </trkpt>
      <trkpt lat="48.58913" lon="-2.83211">
        <ele>66.046493</ele>
        <time>2023-03-24T20:37:45.147Z</time>
      </trkpt>
      <trkpt lat="48.58906" lon="-2.83091">
        <ele>66.361719</ele>
        <time>2023-03-24T20:38:03.507Z</time>
      </trkpt>
      <trkpt lat="48.58841" lon="-2.83091">
        <ele>66.604851</ele>
        <time>2023-03-24T20:38:19.343Z</time>
      </trkpt>
      <trkpt lat="48.5882" lon="-2.83087">
        <ele>66.681608</ele>
        <time>2023-03-24T20:38:24.587Z</time>
      </trkpt>
      <trkpt lat="48.58788" lon="-2.83069">
        <ele>66.809907</ele>
        <time>2023-03-24T20:38:33.486Z</time>
      </trkpt>
      <trkpt lat="48.58711" lon="-2.82999">
        <ele>67.69704</ele>
        <time>2023-03-24T20:38:58.727Z</time>
      </trkpt>
      <trkpt lat="48.58668" lon="-2.82985">
        <ele>68.222992</ele>
        <time>2023-03-24T20:39:12.053Z</time>
      </trkpt>
      <trkpt lat="48.58531" lon="-2.82986">
        <ele>69.901377</ele>
        <time>2023-03-24T20:39:52.856Z</time>
      </trkpt>
      <trkpt lat="48.58504" lon="-2.82979">
        <ele>70.238884</ele>
        <time>2023-03-24T20:40:00.882Z</time>
      </trkpt>
      <trkpt lat="48.5848" lon="-2.82958">
        <ele>70.589794</ele>
        <time>2023-03-24T20:40:09.135Z</time>
      </trkpt>
      <trkpt lat="48.58422" lon="-2.82888">
        <ele>71.580652</ele>
        <time>2023-03-24T20:40:30.726Z</time>
      </trkpt>
      <trkpt lat="48.58393" lon="-2.82865">
        <ele>72.117928</ele>
        <time>2023-03-24T20:40:40.243Z</time>
      </trkpt>
      <trkpt lat="48.58352" lon="-2.82857">
        <ele>72.790447</ele>
        <time>2023-03-24T20:40:52.520Z</time>
      </trkpt>
      <trkpt lat="48.58184" lon="-2.82839">
        <ele>75.627774</ele>
        <time>2023-03-24T20:41:48.979Z</time>
      </trkpt>
      <trkpt lat="48.58021" lon="-2.8278">
        <ele>77.48689</ele>
        <time>2023-03-24T20:42:39.880Z</time>
      </trkpt>
      <trkpt lat="48.57976" lon="-2.82762">
        <ele>77.571324</ele>
        <time>2023-03-24T20:42:50.199Z</time>
      </trkpt>
      <trkpt lat="48.57947" lon="-2.82756">
        <ele>77.622029</ele>
        <time>2023-03-24T20:42:56.124Z</time>
      </trkpt>
      <trkpt lat="48.57865" lon="-2.82764">
        <ele>77.265446</ele>
        <time>2023-03-24T20:43:12.135Z</time>
      </trkpt>
      <trkpt lat="48.5788" lon="-2.82716">
        <ele>76.941617</ele>
        <time>2023-03-24T20:43:18.992Z</time>
      </trkpt>
      <trkpt lat="48.57889" lon="-2.82661">
        <ele>76.591163</ele>
        <time>2023-03-24T20:43:26.464Z</time>
      </trkpt>
      <trkpt lat="48.57887" lon="-2.82649">
        <ele>76.519273</ele>
        <time>2023-03-24T20:43:27.971Z</time>
      </trkpt>
      <trkpt lat="48.57871" lon="-2.82599">
        <ele>76.177222</ele>
        <time>2023-03-24T20:43:35.410Z</time>
      </trkpt>
      <trkpt lat="48.57835" lon="-2.82651">
        <ele>76.195699</ele>
        <time>2023-03-24T20:43:45.795Z</time>
      </trkpt>
      <trkpt lat="48.57828" lon="-2.82654">
        <ele>76.234754</ele>
        <time>2023-03-24T20:43:47.537Z</time>
      </trkpt>
      <trkpt lat="48.57824" lon="-2.82653">
        <ele>76.261481</ele>
        <time>2023-03-24T20:43:48.565Z</time>
      </trkpt>
      <trkpt lat="48.57801" lon="-2.8263">
        <ele>76.408691</ele>
        <time>2023-03-24T20:43:55.428Z</time>
      </trkpt>
      <trkpt lat="48.57763" lon="-2.82609">
        <ele>76.627918</ele>
        <time>2023-03-24T20:44:06.346Z</time>
      </trkpt>
      <trkpt lat="48.57726" lon="-2.82569">
        <ele>76.876468</ele>
        <time>2023-03-24T20:44:18.987Z</time>
      </trkpt>
      <trkpt lat="48.5765" lon="-2.82485">
        <ele>77.636613</ele>
        <time>2023-03-24T20:44:45.514Z</time>
      </trkpt>
      <trkpt lat="48.57617" lon="-2.8245">
        <ele>77.997737</ele>
        <time>2023-03-24T20:44:56.991Z</time>
      </trkpt>
      <trkpt lat="48.57585" lon="-2.8243">
        <ele>78.301129</ele>
        <time>2023-03-24T20:45:06.093Z</time>
      </trkpt>
      <trkpt lat="48.57573" lon="-2.82428">
        <ele>78.40822</ele>
        <time>2023-03-24T20:45:09.121Z</time>
      </trkpt>
      <trkpt lat="48.57538" lon="-2.82423">
        <ele>78.769239</ele>
        <time>2023-03-24T20:45:18.520Z</time>
      </trkpt>
      <trkpt lat="48.57502" lon="-2.82401">
        <ele>79.241835</ele>
        <time>2023-03-24T20:45:29.011Z</time>
      </trkpt>
      <trkpt lat="48.57505" lon="-2.82464">
        <ele>79.752349</ele>
        <time>2023-03-24T20:45:40.168Z</time>
      </trkpt>
      <trkpt lat="48.57515" lon="-2.82531">
        <ele>80.298278</ele>
        <time>2023-03-24T20:45:52.760Z</time>
      </trkpt>
      <trkpt lat="48.57514" lon="-2.82542">
        <ele>80.389607</ele>
        <time>2023-03-24T20:45:55.023Z</time>
      </trkpt>
      <trkpt lat="48.57501" lon="-2.82534">
        <ele>80.560301</ele>
        <time>2023-03-24T20:45:59.787Z</time>
      </trkpt>
      <trkpt lat="48.5738" lon="-2.82484">
        <ele>83.667971</ele>
        <time>2023-03-24T20:46:42.967Z</time>
      </trkpt>
      <trkpt lat="48.57321" lon="-2.82463">
        <ele>85.301022</ele>
        <time>2023-03-24T20:47:06.887Z</time>
      </trkpt>
      <trkpt lat="48.57239" lon="-2.82454">
        <ele>88.598845</ele>
        <time>2023-03-24T20:47:41.204Z</time>
      </trkpt>
      <trkpt lat="48.57116" lon="-2.82442">
        <ele>93.877062</ele>
        <time>2023-03-24T20:48:38.030Z</time>
      </trkpt>
      <trkpt lat="48.56991" lon="-2.82429">
        <ele>99.144803</ele>
        <time>2023-03-24T20:49:34.171Z</time>
      </trkpt>
      <trkpt lat="48.56931" lon="-2.82426">
        <ele>101.334763</ele>
        <time>2023-03-24T20:49:57.285Z</time>
      </trkpt>
      <trkpt lat="48.56899" lon="-2.8242">
        <ele>102.18071</ele>
        <time>2023-03-24T20:50:09.628Z</time>
      </trkpt>
      <trkpt lat="48.56883" lon="-2.82412">
        <ele>102.61886</ele>
        <time>2023-03-24T20:50:16.086Z</time>
      </trkpt>
      <trkpt lat="48.56799" lon="-2.82332">
        <ele>105.179813</ele>
        <time>2023-03-24T20:50:48.683Z</time>
      </trkpt>
      <trkpt lat="48.56792" lon="-2.8233">
        <ele>105.364199</ele>
        <time>2023-03-24T20:50:51.451Z</time>
      </trkpt>
      <trkpt lat="48.56793" lon="-2.82321">
        <ele>105.51474</ele>
        <time>2023-03-24T20:50:52.980Z</time>
      </trkpt>
      <trkpt lat="48.56816" lon="-2.82262">
        <ele>106.449568</ele>
        <time>2023-03-24T20:51:07.560Z</time>
      </trkpt>
      <trkpt lat="48.56813" lon="-2.82252">
        <ele>106.591703</ele>
        <time>2023-03-24T20:51:10.303Z</time>
      </trkpt>
      <trkpt lat="48.56791" lon="-2.82207">
        <ele>107.350899</ele>
        <time>2023-03-24T20:51:22.821Z</time>
      </trkpt>
      <trkpt lat="48.5674" lon="-2.8212">
        <ele>108.935896</ele>
        <time>2023-03-24T20:51:48.723Z</time>
      </trkpt>
      <trkpt lat="48.56722" lon="-2.82099">
        <ele>109.339012</ele>
        <time>2023-03-24T20:51:56.119Z</time>
      </trkpt>
      <trkpt lat="48.56711" lon="-2.82089">
        <ele>109.5261</ele>
        <time>2023-03-24T20:52:02.556Z</time>
      </trkpt>
      <trkpt lat="48.56694" lon="-2.82075">
        <ele>109.803464</ele>
        <time>2023-03-24T20:52:11.688Z</time>
      </trkpt>
      <trkpt lat="48.56648" lon="-2.82045">
        <ele>110.506636</ele>
        <time>2023-03-24T20:52:33.494Z</time>
      </trkpt>
      <trkpt lat="48.56607" lon="-2.82021">
        <ele>111.143737</ele>
        <time>2023-03-24T20:52:46.819Z</time>
      </trkpt>
      <trkpt lat="48.56599" lon="-2.82014">
        <ele>111.2714</ele>
        <time>2023-03-24T20:52:49.634Z</time>
      </trkpt>
      <trkpt lat="48.56586" lon="-2.82018">
        <ele>111.455885</ele>
        <time>2023-03-24T20:52:53.619Z</time>
      </trkpt>
      <trkpt lat="48.56569" lon="-2.82016">
        <ele>111.70275</ele>
        <time>2023-03-24T20:52:58.180Z</time>
      </trkpt>
      <trkpt lat="48.56533" lon="-2.81995">
        <ele>111.883203</ele>
        <time>2023-03-24T20:53:08.468Z</time>
      </trkpt>
      <trkpt lat="48.56512" lon="-2.82055">
        <ele>112.046751</ele>
        <time>2023-03-24T20:53:20.317Z</time>
      </trkpt>
      <trkpt lat="48.56495" lon="-2.82087">
        <ele>112.145752</ele>
        <time>2023-03-24T20:53:27.165Z</time>
      </trkpt>
      <trkpt lat="48.56492" lon="-2.82084">
        <ele>112.158096</ele>
        <time>2023-03-24T20:53:27.933Z</time>
      </trkpt>
      <trkpt lat="48.56465" lon="-2.82082">
        <ele>112.256172</ele>
        <time>2023-03-24T20:53:34.329Z</time>
      </trkpt>
      <trkpt lat="48.56443" lon="-2.82087">
        <ele>112.339282</ele>
        <time>2023-03-24T20:53:39.332Z</time>
      </trkpt>
      <trkpt lat="48.56369" lon="-2.82134">
        <ele>111.937912</ele>
        <time>2023-03-24T20:53:56.510Z</time>
      </trkpt>
      <trkpt lat="48.56357" lon="-2.82113">
        <ele>111.797796</ele>
        <time>2023-03-24T20:54:00.327Z</time>
      </trkpt>
      <trkpt lat="48.56316" lon="-2.82054">
        <ele>111.358422</ele>
        <time>2023-03-24T20:54:12.440Z</time>
      </trkpt>
      <trkpt lat="48.5626" lon="-2.81984">
        <ele>110.572725</ele>
        <time>2023-03-24T20:54:26.975Z</time>
      </trkpt>
      <trkpt lat="48.56339" lon="-2.81778">
        <ele>108.203959</ele>
        <time>2023-03-24T20:54:56.442Z</time>
      </trkpt>
      <trkpt lat="48.56359" lon="-2.81645">
        <ele>108.203959</ele>
        <time>2023-03-24T20:55:14.085Z</time>
      </trkpt>
    </trkseg>
  </trk>
</gpx>